<?xml version="1.0" encoding="UTF-8" standalone="no" ?>
<gpx xmlns="http://www.topografix.com/GPX/1/1" xmlns:xsi="http://www.w3.org/2001/XMLSchema-instance" xsi:schemaLocation="http://www.topografix.com/GPX/1/1 http://www.topografix.com/GPX/1/1/gpx.xsd" version="1.1" creator="VisuGPX - https://www.visugpx.com">
  <metadata>
    <name>st co 31/03/2018</name>
    <desc><![CDATA[eType : 	
[Windsurf (Slalom)] 	
Date : 	31/03/2018 [Samedi]
Spot : 	
  	Saint-Colomban (France, Morbihan, Carnac)
Début : 	14:42
Fin : 	17:00
Durée : 	2h18mn
Vent : 	18 à 27 nds Ouest/Nord-Ouest
Note : 	9/10
exocet turbo boost 105l
aileron select 31
6.2 rapid gun sail]]></desc>
  </metadata>
  <trk>
    <name><![CDATA[st co 31/03/2018_1]]></name>
    <trkseg>
      <trkpt lat="47.5703" lon="-3.09987">
        <ele>6</ele>
        <time>2018-03-31T14:21:07.000Z</time>
      </trkpt>
      <trkpt lat="47.5703" lon="-3.09987">
        <ele>6</ele>
        <time>2018-03-31T14:21:08.000Z</time>
      </trkpt>
      <trkpt lat="47.5703" lon="-3.09987">
        <ele>6</ele>
        <time>2018-03-31T14:21:09.000Z</time>
      </trkpt>
      <trkpt lat="47.5703" lon="-3.09987">
        <ele>6</ele>
        <time>2018-03-31T14:21:10.000Z</time>
      </trkpt>
      <trkpt lat="47.5703" lon="-3.09987">
        <ele>6</ele>
        <time>2018-03-31T14:21:11.000Z</time>
      </trkpt>
      <trkpt lat="47.5703" lon="-3.09987">
        <ele>6</ele>
        <time>2018-03-31T14:21:12.000Z</time>
      </trkpt>
      <trkpt lat="47.5703" lon="-3.09987">
        <ele>6</ele>
        <time>2018-03-31T14:21:13.000Z</time>
      </trkpt>
      <trkpt lat="47.5703" lon="-3.09987">
        <ele>6</ele>
        <time>2018-03-31T14:21:14.000Z</time>
      </trkpt>
      <trkpt lat="47.5703" lon="-3.09987">
        <ele>6</ele>
        <time>2018-03-31T14:21:15.000Z</time>
      </trkpt>
      <trkpt lat="47.5703" lon="-3.09987">
        <ele>6</ele>
        <time>2018-03-31T14:21:16.000Z</time>
      </trkpt>
      <trkpt lat="47.5703" lon="-3.09987">
        <ele>6</ele>
        <time>2018-03-31T14:21:17.000Z</time>
      </trkpt>
      <trkpt lat="47.5703" lon="-3.09987">
        <ele>6</ele>
        <time>2018-03-31T14:21:18.000Z</time>
      </trkpt>
      <trkpt lat="47.5703" lon="-3.09987">
        <ele>6</ele>
        <time>2018-03-31T14:21:19.000Z</time>
      </trkpt>
      <trkpt lat="47.5703" lon="-3.09987">
        <ele>6</ele>
        <time>2018-03-31T14:21:20.000Z</time>
      </trkpt>
      <trkpt lat="47.5703" lon="-3.09987">
        <ele>6</ele>
        <time>2018-03-31T14:21:21.000Z</time>
      </trkpt>
      <trkpt lat="47.5703" lon="-3.09987">
        <ele>6</ele>
        <time>2018-03-31T14:21:22.000Z</time>
      </trkpt>
      <trkpt lat="47.5703" lon="-3.09987">
        <ele>6</ele>
        <time>2018-03-31T14:21:23.000Z</time>
      </trkpt>
      <trkpt lat="47.5703" lon="-3.09987">
        <ele>6</ele>
        <time>2018-03-31T14:21:24.000Z</time>
      </trkpt>
      <trkpt lat="47.5703" lon="-3.09987">
        <ele>6</ele>
        <time>2018-03-31T14:21:25.000Z</time>
      </trkpt>
      <trkpt lat="47.5703" lon="-3.09987">
        <ele>6</ele>
        <time>2018-03-31T14:21:26.000Z</time>
      </trkpt>
      <trkpt lat="47.5703" lon="-3.09987">
        <ele>6</ele>
        <time>2018-03-31T14:21:27.000Z</time>
      </trkpt>
      <trkpt lat="47.5703" lon="-3.09987">
        <ele>6</ele>
        <time>2018-03-31T14:21:28.000Z</time>
      </trkpt>
      <trkpt lat="47.5703" lon="-3.09987">
        <ele>6</ele>
        <time>2018-03-31T14:21:29.000Z</time>
      </trkpt>
      <trkpt lat="47.5703" lon="-3.09987">
        <ele>6</ele>
        <time>2018-03-31T14:21:30.000Z</time>
      </trkpt>
      <trkpt lat="47.5703" lon="-3.09987">
        <ele>6</ele>
        <time>2018-03-31T14:21:31.000Z</time>
      </trkpt>
      <trkpt lat="47.5703" lon="-3.09987">
        <ele>6</ele>
        <time>2018-03-31T14:21:32.000Z</time>
      </trkpt>
      <trkpt lat="47.5703" lon="-3.09987">
        <ele>6</ele>
        <time>2018-03-31T14:21:33.000Z</time>
      </trkpt>
      <trkpt lat="47.5703" lon="-3.09987">
        <ele>6</ele>
        <time>2018-03-31T14:21:34.000Z</time>
      </trkpt>
      <trkpt lat="47.5703" lon="-3.09987">
        <ele>6</ele>
        <time>2018-03-31T14:21:35.000Z</time>
      </trkpt>
      <trkpt lat="47.5703" lon="-3.09987">
        <ele>6</ele>
        <time>2018-03-31T14:21:36.000Z</time>
      </trkpt>
      <trkpt lat="47.5703" lon="-3.09987">
        <ele>6</ele>
        <time>2018-03-31T14:21:37.000Z</time>
      </trkpt>
      <trkpt lat="47.5703" lon="-3.09987">
        <ele>6</ele>
        <time>2018-03-31T14:21:38.000Z</time>
      </trkpt>
      <trkpt lat="47.5703" lon="-3.09987">
        <ele>6</ele>
        <time>2018-03-31T14:21:39.000Z</time>
      </trkpt>
      <trkpt lat="47.5703" lon="-3.09987">
        <ele>6</ele>
        <time>2018-03-31T14:21:40.000Z</time>
      </trkpt>
      <trkpt lat="47.5703" lon="-3.09987">
        <ele>6</ele>
        <time>2018-03-31T14:21:41.000Z</time>
      </trkpt>
      <trkpt lat="47.5703" lon="-3.09987">
        <ele>6</ele>
        <time>2018-03-31T14:21:42.000Z</time>
      </trkpt>
      <trkpt lat="47.5703" lon="-3.09987">
        <ele>6</ele>
        <time>2018-03-31T14:21:43.000Z</time>
      </trkpt>
      <trkpt lat="47.5703" lon="-3.09987">
        <ele>6</ele>
        <time>2018-03-31T14:21:44.000Z</time>
      </trkpt>
      <trkpt lat="47.5703" lon="-3.09987">
        <ele>6</ele>
        <time>2018-03-31T14:21:45.000Z</time>
      </trkpt>
      <trkpt lat="47.5703" lon="-3.09987">
        <ele>6</ele>
        <time>2018-03-31T14:21:46.000Z</time>
      </trkpt>
      <trkpt lat="47.5703" lon="-3.09987">
        <ele>6</ele>
        <time>2018-03-31T14:21:47.000Z</time>
      </trkpt>
      <trkpt lat="47.5703" lon="-3.09987">
        <ele>6</ele>
        <time>2018-03-31T14:21:48.000Z</time>
      </trkpt>
      <trkpt lat="47.5703" lon="-3.09987">
        <ele>6</ele>
        <time>2018-03-31T14:21:49.000Z</time>
      </trkpt>
      <trkpt lat="47.5703" lon="-3.09987">
        <ele>6</ele>
        <time>2018-03-31T14:21:50.000Z</time>
      </trkpt>
      <trkpt lat="47.5703" lon="-3.09987">
        <ele>6</ele>
        <time>2018-03-31T14:21:51.000Z</time>
      </trkpt>
      <trkpt lat="47.5703" lon="-3.09987">
        <ele>6</ele>
        <time>2018-03-31T14:21:52.000Z</time>
      </trkpt>
      <trkpt lat="47.5703" lon="-3.09987">
        <ele>6</ele>
        <time>2018-03-31T14:21:53.000Z</time>
      </trkpt>
      <trkpt lat="47.5703" lon="-3.09987">
        <ele>6</ele>
        <time>2018-03-31T14:21:54.000Z</time>
      </trkpt>
      <trkpt lat="47.5703" lon="-3.09987">
        <ele>6</ele>
        <time>2018-03-31T14:21:55.000Z</time>
      </trkpt>
      <trkpt lat="47.5703" lon="-3.09987">
        <ele>6</ele>
        <time>2018-03-31T14:21:56.000Z</time>
      </trkpt>
      <trkpt lat="47.57027" lon="-3.1">
        <ele>5.9</ele>
        <time>2018-03-31T14:21:57.000Z</time>
      </trkpt>
      <trkpt lat="47.57027" lon="-3.1">
        <ele>5.9</ele>
        <time>2018-03-31T14:21:58.000Z</time>
      </trkpt>
      <trkpt lat="47.57026" lon="-3.10001">
        <ele>5.9</ele>
        <time>2018-03-31T14:21:59.000Z</time>
      </trkpt>
      <trkpt lat="47.57025" lon="-3.10002">
        <ele>5.8</ele>
        <time>2018-03-31T14:22:00.000Z</time>
      </trkpt>
      <trkpt lat="47.57025" lon="-3.10002">
        <ele>5.8</ele>
        <time>2018-03-31T14:22:01.000Z</time>
      </trkpt>
      <trkpt lat="47.57025" lon="-3.10002">
        <ele>5.8</ele>
        <time>2018-03-31T14:22:02.000Z</time>
      </trkpt>
      <trkpt lat="47.57025" lon="-3.10002">
        <ele>5.8</ele>
        <time>2018-03-31T14:22:03.000Z</time>
      </trkpt>
      <trkpt lat="47.57025" lon="-3.10002">
        <ele>5.8</ele>
        <time>2018-03-31T14:22:04.000Z</time>
      </trkpt>
      <trkpt lat="47.57025" lon="-3.10002">
        <ele>5.8</ele>
        <time>2018-03-31T14:22:05.000Z</time>
      </trkpt>
      <trkpt lat="47.57025" lon="-3.10002">
        <ele>5.8</ele>
        <time>2018-03-31T14:22:06.000Z</time>
      </trkpt>
      <trkpt lat="47.57025" lon="-3.10002">
        <ele>5.8</ele>
        <time>2018-03-31T14:22:07.000Z</time>
      </trkpt>
      <trkpt lat="47.57025" lon="-3.10002">
        <ele>5.8</ele>
        <time>2018-03-31T14:22:08.000Z</time>
      </trkpt>
      <trkpt lat="47.57025" lon="-3.10002">
        <ele>5.8</ele>
        <time>2018-03-31T14:22:09.000Z</time>
      </trkpt>
      <trkpt lat="47.57021" lon="-3.10016">
        <ele>5.4</ele>
        <time>2018-03-31T14:22:10.000Z</time>
      </trkpt>
      <trkpt lat="47.5702" lon="-3.10018">
        <ele>5.3</ele>
        <time>2018-03-31T14:22:11.000Z</time>
      </trkpt>
      <trkpt lat="47.5702" lon="-3.1002">
        <ele>5.2</ele>
        <time>2018-03-31T14:22:12.000Z</time>
      </trkpt>
      <trkpt lat="47.5702" lon="-3.10022">
        <ele>5.2</ele>
        <time>2018-03-31T14:22:13.000Z</time>
      </trkpt>
      <trkpt lat="47.5702" lon="-3.10022">
        <ele>5.2</ele>
        <time>2018-03-31T14:22:14.000Z</time>
      </trkpt>
      <trkpt lat="47.5702" lon="-3.10022">
        <ele>5.2</ele>
        <time>2018-03-31T14:22:15.000Z</time>
      </trkpt>
      <trkpt lat="47.5702" lon="-3.10022">
        <ele>5.2</ele>
        <time>2018-03-31T14:22:16.000Z</time>
      </trkpt>
      <trkpt lat="47.5702" lon="-3.10022">
        <ele>5.2</ele>
        <time>2018-03-31T14:22:17.000Z</time>
      </trkpt>
      <trkpt lat="47.5702" lon="-3.10022">
        <ele>5.2</ele>
        <time>2018-03-31T14:22:18.000Z</time>
      </trkpt>
      <trkpt lat="47.5702" lon="-3.10022">
        <ele>5.2</ele>
        <time>2018-03-31T14:22:19.000Z</time>
      </trkpt>
      <trkpt lat="47.5702" lon="-3.10022">
        <ele>5.2</ele>
        <time>2018-03-31T14:22:20.000Z</time>
      </trkpt>
      <trkpt lat="47.5702" lon="-3.10022">
        <ele>5.2</ele>
        <time>2018-03-31T14:22:21.000Z</time>
      </trkpt>
      <trkpt lat="47.5702" lon="-3.10022">
        <ele>5.2</ele>
        <time>2018-03-31T14:22:22.000Z</time>
      </trkpt>
      <trkpt lat="47.5702" lon="-3.10022">
        <ele>5.2</ele>
        <time>2018-03-31T14:22:23.000Z</time>
      </trkpt>
      <trkpt lat="47.5702" lon="-3.10022">
        <ele>5.2</ele>
        <time>2018-03-31T14:22:24.000Z</time>
      </trkpt>
      <trkpt lat="47.5702" lon="-3.10022">
        <ele>5.2</ele>
        <time>2018-03-31T14:22:25.000Z</time>
      </trkpt>
      <trkpt lat="47.57019" lon="-3.10035">
        <ele>5.4</ele>
        <time>2018-03-31T14:22:26.000Z</time>
      </trkpt>
      <trkpt lat="47.57019" lon="-3.10033">
        <ele>5.3</ele>
        <time>2018-03-31T14:22:27.000Z</time>
      </trkpt>
      <trkpt lat="47.57019" lon="-3.10033">
        <ele>5.3</ele>
        <time>2018-03-31T14:22:28.000Z</time>
      </trkpt>
      <trkpt lat="47.57019" lon="-3.10033">
        <ele>5.3</ele>
        <time>2018-03-31T14:22:29.000Z</time>
      </trkpt>
      <trkpt lat="47.57019" lon="-3.10033">
        <ele>5.3</ele>
        <time>2018-03-31T14:22:30.000Z</time>
      </trkpt>
      <trkpt lat="47.57019" lon="-3.10033">
        <ele>5.3</ele>
        <time>2018-03-31T14:22:31.000Z</time>
      </trkpt>
      <trkpt lat="47.57019" lon="-3.10033">
        <ele>5.3</ele>
        <time>2018-03-31T14:22:32.000Z</time>
      </trkpt>
      <trkpt lat="47.57019" lon="-3.10033">
        <ele>5.3</ele>
        <time>2018-03-31T14:22:33.000Z</time>
      </trkpt>
      <trkpt lat="47.57019" lon="-3.10033">
        <ele>5.3</ele>
        <time>2018-03-31T14:22:34.000Z</time>
      </trkpt>
      <trkpt lat="47.57019" lon="-3.10033">
        <ele>5.3</ele>
        <time>2018-03-31T14:22:35.000Z</time>
      </trkpt>
      <trkpt lat="47.57019" lon="-3.10033">
        <ele>5.3</ele>
        <time>2018-03-31T14:22:36.000Z</time>
      </trkpt>
      <trkpt lat="47.57019" lon="-3.10033">
        <ele>5.3</ele>
        <time>2018-03-31T14:22:37.000Z</time>
      </trkpt>
      <trkpt lat="47.57019" lon="-3.10033">
        <ele>5.3</ele>
        <time>2018-03-31T14:22:38.000Z</time>
      </trkpt>
      <trkpt lat="47.57019" lon="-3.10033">
        <ele>5.3</ele>
        <time>2018-03-31T14:22:39.000Z</time>
      </trkpt>
      <trkpt lat="47.57019" lon="-3.10033">
        <ele>5.3</ele>
        <time>2018-03-31T14:22:40.000Z</time>
      </trkpt>
      <trkpt lat="47.57019" lon="-3.10033">
        <ele>5.3</ele>
        <time>2018-03-31T14:22:41.000Z</time>
      </trkpt>
      <trkpt lat="47.57019" lon="-3.10033">
        <ele>5.3</ele>
        <time>2018-03-31T14:22:42.000Z</time>
      </trkpt>
      <trkpt lat="47.57019" lon="-3.10033">
        <ele>5.3</ele>
        <time>2018-03-31T14:22:43.000Z</time>
      </trkpt>
      <trkpt lat="47.57019" lon="-3.10033">
        <ele>5.3</ele>
        <time>2018-03-31T14:22:44.000Z</time>
      </trkpt>
      <trkpt lat="47.57019" lon="-3.10033">
        <ele>5.3</ele>
        <time>2018-03-31T14:22:45.000Z</time>
      </trkpt>
      <trkpt lat="47.57019" lon="-3.10033">
        <ele>5.3</ele>
        <time>2018-03-31T14:22:46.000Z</time>
      </trkpt>
      <trkpt lat="47.57019" lon="-3.10033">
        <ele>5.3</ele>
        <time>2018-03-31T14:22:47.000Z</time>
      </trkpt>
      <trkpt lat="47.57019" lon="-3.10033">
        <ele>5.3</ele>
        <time>2018-03-31T14:22:48.000Z</time>
      </trkpt>
      <trkpt lat="47.57019" lon="-3.10033">
        <ele>5.3</ele>
        <time>2018-03-31T14:22:49.000Z</time>
      </trkpt>
      <trkpt lat="47.57019" lon="-3.10033">
        <ele>5.3</ele>
        <time>2018-03-31T14:22:50.000Z</time>
      </trkpt>
      <trkpt lat="47.57019" lon="-3.10033">
        <ele>5.3</ele>
        <time>2018-03-31T14:22:51.000Z</time>
      </trkpt>
      <trkpt lat="47.57019" lon="-3.10033">
        <ele>5.3</ele>
        <time>2018-03-31T14:22:52.000Z</time>
      </trkpt>
      <trkpt lat="47.57019" lon="-3.10033">
        <ele>5.3</ele>
        <time>2018-03-31T14:22:53.000Z</time>
      </trkpt>
      <trkpt lat="47.57019" lon="-3.10033">
        <ele>5.3</ele>
        <time>2018-03-31T14:22:54.000Z</time>
      </trkpt>
      <trkpt lat="47.57019" lon="-3.10033">
        <ele>5.3</ele>
        <time>2018-03-31T14:22:55.000Z</time>
      </trkpt>
      <trkpt lat="47.57019" lon="-3.10033">
        <ele>5.3</ele>
        <time>2018-03-31T14:22:56.000Z</time>
      </trkpt>
      <trkpt lat="47.57019" lon="-3.10033">
        <ele>5.3</ele>
        <time>2018-03-31T14:22:57.000Z</time>
      </trkpt>
      <trkpt lat="47.57019" lon="-3.10033">
        <ele>5.3</ele>
        <time>2018-03-31T14:22:58.000Z</time>
      </trkpt>
      <trkpt lat="47.57019" lon="-3.10033">
        <ele>5.3</ele>
        <time>2018-03-31T14:22:59.000Z</time>
      </trkpt>
      <trkpt lat="47.57019" lon="-3.10033">
        <ele>5.3</ele>
        <time>2018-03-31T14:23:00.000Z</time>
      </trkpt>
      <trkpt lat="47.57019" lon="-3.10033">
        <ele>5.3</ele>
        <time>2018-03-31T14:23:01.000Z</time>
      </trkpt>
      <trkpt lat="47.57019" lon="-3.10033">
        <ele>5.3</ele>
        <time>2018-03-31T14:23:02.000Z</time>
      </trkpt>
      <trkpt lat="47.57019" lon="-3.10033">
        <ele>5.3</ele>
        <time>2018-03-31T14:23:03.000Z</time>
      </trkpt>
      <trkpt lat="47.57019" lon="-3.10033">
        <ele>5.3</ele>
        <time>2018-03-31T14:23:04.000Z</time>
      </trkpt>
      <trkpt lat="47.57019" lon="-3.10033">
        <ele>5.3</ele>
        <time>2018-03-31T14:23:05.000Z</time>
      </trkpt>
      <trkpt lat="47.57016" lon="-3.10047">
        <ele>5.5</ele>
        <time>2018-03-31T14:23:06.000Z</time>
      </trkpt>
      <trkpt lat="47.57016" lon="-3.10047">
        <ele>5.5</ele>
        <time>2018-03-31T14:23:07.000Z</time>
      </trkpt>
      <trkpt lat="47.57015" lon="-3.10047">
        <ele>5.4</ele>
        <time>2018-03-31T14:23:08.000Z</time>
      </trkpt>
      <trkpt lat="47.57015" lon="-3.10048">
        <ele>5.4</ele>
        <time>2018-03-31T14:23:09.000Z</time>
      </trkpt>
      <trkpt lat="47.57015" lon="-3.10048">
        <ele>5.4</ele>
        <time>2018-03-31T14:23:10.000Z</time>
      </trkpt>
      <trkpt lat="47.57015" lon="-3.10048">
        <ele>5.4</ele>
        <time>2018-03-31T14:23:11.000Z</time>
      </trkpt>
      <trkpt lat="47.57015" lon="-3.10048">
        <ele>5.4</ele>
        <time>2018-03-31T14:23:12.000Z</time>
      </trkpt>
      <trkpt lat="47.57015" lon="-3.10048">
        <ele>5.4</ele>
        <time>2018-03-31T14:23:13.000Z</time>
      </trkpt>
      <trkpt lat="47.57015" lon="-3.10048">
        <ele>5.4</ele>
        <time>2018-03-31T14:23:14.000Z</time>
      </trkpt>
      <trkpt lat="47.57015" lon="-3.10048">
        <ele>5.4</ele>
        <time>2018-03-31T14:23:15.000Z</time>
      </trkpt>
      <trkpt lat="47.57015" lon="-3.10048">
        <ele>5.4</ele>
        <time>2018-03-31T14:23:16.000Z</time>
      </trkpt>
      <trkpt lat="47.57015" lon="-3.10048">
        <ele>5.4</ele>
        <time>2018-03-31T14:23:17.000Z</time>
      </trkpt>
      <trkpt lat="47.57015" lon="-3.10048">
        <ele>5.4</ele>
        <time>2018-03-31T14:23:18.000Z</time>
      </trkpt>
      <trkpt lat="47.57015" lon="-3.10048">
        <ele>5.4</ele>
        <time>2018-03-31T14:23:19.000Z</time>
      </trkpt>
      <trkpt lat="47.57015" lon="-3.10048">
        <ele>5.4</ele>
        <time>2018-03-31T14:23:20.000Z</time>
      </trkpt>
      <trkpt lat="47.57015" lon="-3.10048">
        <ele>5.4</ele>
        <time>2018-03-31T14:23:21.000Z</time>
      </trkpt>
      <trkpt lat="47.57015" lon="-3.10048">
        <ele>5.4</ele>
        <time>2018-03-31T14:23:22.000Z</time>
      </trkpt>
      <trkpt lat="47.57015" lon="-3.10048">
        <ele>5.4</ele>
        <time>2018-03-31T14:23:23.000Z</time>
      </trkpt>
      <trkpt lat="47.57015" lon="-3.10048">
        <ele>5.4</ele>
        <time>2018-03-31T14:23:24.000Z</time>
      </trkpt>
      <trkpt lat="47.57015" lon="-3.10048">
        <ele>5.4</ele>
        <time>2018-03-31T14:23:25.000Z</time>
      </trkpt>
      <trkpt lat="47.57015" lon="-3.10048">
        <ele>5.4</ele>
        <time>2018-03-31T14:23:26.000Z</time>
      </trkpt>
      <trkpt lat="47.57015" lon="-3.10048">
        <ele>5.4</ele>
        <time>2018-03-31T14:23:27.000Z</time>
      </trkpt>
      <trkpt lat="47.57015" lon="-3.10048">
        <ele>5.4</ele>
        <time>2018-03-31T14:23:28.000Z</time>
      </trkpt>
      <trkpt lat="47.57015" lon="-3.10048">
        <ele>5.4</ele>
        <time>2018-03-31T14:23:29.000Z</time>
      </trkpt>
      <trkpt lat="47.57015" lon="-3.10048">
        <ele>5.4</ele>
        <time>2018-03-31T14:23:30.000Z</time>
      </trkpt>
      <trkpt lat="47.57015" lon="-3.10048">
        <ele>5.4</ele>
        <time>2018-03-31T14:23:31.000Z</time>
      </trkpt>
      <trkpt lat="47.57015" lon="-3.10048">
        <ele>5.4</ele>
        <time>2018-03-31T14:23:32.000Z</time>
      </trkpt>
      <trkpt lat="47.57015" lon="-3.10048">
        <ele>5.4</ele>
        <time>2018-03-31T14:23:33.000Z</time>
      </trkpt>
      <trkpt lat="47.57015" lon="-3.10048">
        <ele>5.4</ele>
        <time>2018-03-31T14:23:34.000Z</time>
      </trkpt>
      <trkpt lat="47.57015" lon="-3.10048">
        <ele>5.4</ele>
        <time>2018-03-31T14:23:35.000Z</time>
      </trkpt>
      <trkpt lat="47.57015" lon="-3.10048">
        <ele>5.4</ele>
        <time>2018-03-31T14:23:36.000Z</time>
      </trkpt>
      <trkpt lat="47.57015" lon="-3.10048">
        <ele>5.4</ele>
        <time>2018-03-31T14:23:37.000Z</time>
      </trkpt>
      <trkpt lat="47.57015" lon="-3.10048">
        <ele>5.4</ele>
        <time>2018-03-31T14:23:38.000Z</time>
      </trkpt>
      <trkpt lat="47.57015" lon="-3.10048">
        <ele>5.4</ele>
        <time>2018-03-31T14:23:39.000Z</time>
      </trkpt>
      <trkpt lat="47.57015" lon="-3.10048">
        <ele>5.4</ele>
        <time>2018-03-31T14:23:40.000Z</time>
      </trkpt>
      <trkpt lat="47.57015" lon="-3.10048">
        <ele>5.4</ele>
        <time>2018-03-31T14:23:41.000Z</time>
      </trkpt>
      <trkpt lat="47.57015" lon="-3.10048">
        <ele>5.4</ele>
        <time>2018-03-31T14:23:42.000Z</time>
      </trkpt>
      <trkpt lat="47.57015" lon="-3.10048">
        <ele>5.4</ele>
        <time>2018-03-31T14:23:43.000Z</time>
      </trkpt>
      <trkpt lat="47.57015" lon="-3.10048">
        <ele>5.4</ele>
        <time>2018-03-31T14:23:44.000Z</time>
      </trkpt>
      <trkpt lat="47.57015" lon="-3.10048">
        <ele>5.4</ele>
        <time>2018-03-31T14:23:45.000Z</time>
      </trkpt>
      <trkpt lat="47.57015" lon="-3.10048">
        <ele>5.4</ele>
        <time>2018-03-31T14:23:46.000Z</time>
      </trkpt>
      <trkpt lat="47.57015" lon="-3.10048">
        <ele>5.4</ele>
        <time>2018-03-31T14:23:47.000Z</time>
      </trkpt>
      <trkpt lat="47.57015" lon="-3.10048">
        <ele>5.4</ele>
        <time>2018-03-31T14:23:48.000Z</time>
      </trkpt>
      <trkpt lat="47.57015" lon="-3.10048">
        <ele>5.4</ele>
        <time>2018-03-31T14:23:49.000Z</time>
      </trkpt>
      <trkpt lat="47.57015" lon="-3.10048">
        <ele>5.4</ele>
        <time>2018-03-31T14:23:50.000Z</time>
      </trkpt>
      <trkpt lat="47.57015" lon="-3.10048">
        <ele>5.4</ele>
        <time>2018-03-31T14:23:51.000Z</time>
      </trkpt>
      <trkpt lat="47.57015" lon="-3.10048">
        <ele>5.4</ele>
        <time>2018-03-31T14:23:52.000Z</time>
      </trkpt>
      <trkpt lat="47.57015" lon="-3.10048">
        <ele>5.4</ele>
        <time>2018-03-31T14:23:53.000Z</time>
      </trkpt>
      <trkpt lat="47.57015" lon="-3.10048">
        <ele>5.4</ele>
        <time>2018-03-31T14:23:54.000Z</time>
      </trkpt>
      <trkpt lat="47.57015" lon="-3.10048">
        <ele>5.4</ele>
        <time>2018-03-31T14:23:55.000Z</time>
      </trkpt>
      <trkpt lat="47.57015" lon="-3.10048">
        <ele>5.4</ele>
        <time>2018-03-31T14:23:56.000Z</time>
      </trkpt>
      <trkpt lat="47.57015" lon="-3.10048">
        <ele>5.4</ele>
        <time>2018-03-31T14:23:57.000Z</time>
      </trkpt>
      <trkpt lat="47.57015" lon="-3.10048">
        <ele>5.4</ele>
        <time>2018-03-31T14:23:58.000Z</time>
      </trkpt>
      <trkpt lat="47.57015" lon="-3.10048">
        <ele>5.4</ele>
        <time>2018-03-31T14:23:59.000Z</time>
      </trkpt>
      <trkpt lat="47.57015" lon="-3.10048">
        <ele>5.4</ele>
        <time>2018-03-31T14:24:00.000Z</time>
      </trkpt>
      <trkpt lat="47.57015" lon="-3.10048">
        <ele>5.4</ele>
        <time>2018-03-31T14:24:01.000Z</time>
      </trkpt>
      <trkpt lat="47.57015" lon="-3.10048">
        <ele>5.4</ele>
        <time>2018-03-31T14:24:02.000Z</time>
      </trkpt>
      <trkpt lat="47.57015" lon="-3.10048">
        <ele>5.4</ele>
        <time>2018-03-31T14:24:03.000Z</time>
      </trkpt>
      <trkpt lat="47.57015" lon="-3.10048">
        <ele>5.4</ele>
        <time>2018-03-31T14:24:04.000Z</time>
      </trkpt>
      <trkpt lat="47.57015" lon="-3.10048">
        <ele>5.4</ele>
        <time>2018-03-31T14:24:05.000Z</time>
      </trkpt>
      <trkpt lat="47.57015" lon="-3.10048">
        <ele>5.4</ele>
        <time>2018-03-31T14:24:06.000Z</time>
      </trkpt>
      <trkpt lat="47.57015" lon="-3.10048">
        <ele>5.4</ele>
        <time>2018-03-31T14:24:07.000Z</time>
      </trkpt>
      <trkpt lat="47.57015" lon="-3.10048">
        <ele>5.4</ele>
        <time>2018-03-31T14:24:08.000Z</time>
      </trkpt>
      <trkpt lat="47.57015" lon="-3.10048">
        <ele>5.4</ele>
        <time>2018-03-31T14:24:09.000Z</time>
      </trkpt>
      <trkpt lat="47.57015" lon="-3.10048">
        <ele>5.4</ele>
        <time>2018-03-31T14:24:10.000Z</time>
      </trkpt>
      <trkpt lat="47.57015" lon="-3.10048">
        <ele>5.4</ele>
        <time>2018-03-31T14:24:11.000Z</time>
      </trkpt>
      <trkpt lat="47.57015" lon="-3.10048">
        <ele>5.4</ele>
        <time>2018-03-31T14:24:12.000Z</time>
      </trkpt>
      <trkpt lat="47.57015" lon="-3.10048">
        <ele>5.4</ele>
        <time>2018-03-31T14:24:13.000Z</time>
      </trkpt>
      <trkpt lat="47.57015" lon="-3.10048">
        <ele>5.4</ele>
        <time>2018-03-31T14:24:14.000Z</time>
      </trkpt>
      <trkpt lat="47.57015" lon="-3.10048">
        <ele>5.4</ele>
        <time>2018-03-31T14:24:15.000Z</time>
      </trkpt>
      <trkpt lat="47.57015" lon="-3.10048">
        <ele>5.4</ele>
        <time>2018-03-31T14:24:16.000Z</time>
      </trkpt>
      <trkpt lat="47.57015" lon="-3.10048">
        <ele>5.4</ele>
        <time>2018-03-31T14:24:17.000Z</time>
      </trkpt>
      <trkpt lat="47.57015" lon="-3.10048">
        <ele>5.4</ele>
        <time>2018-03-31T14:24:18.000Z</time>
      </trkpt>
      <trkpt lat="47.57015" lon="-3.10048">
        <ele>5.4</ele>
        <time>2018-03-31T14:24:19.000Z</time>
      </trkpt>
      <trkpt lat="47.57015" lon="-3.10048">
        <ele>5.4</ele>
        <time>2018-03-31T14:24:20.000Z</time>
      </trkpt>
      <trkpt lat="47.57015" lon="-3.10048">
        <ele>5.4</ele>
        <time>2018-03-31T14:24:21.000Z</time>
      </trkpt>
      <trkpt lat="47.57015" lon="-3.10048">
        <ele>5.4</ele>
        <time>2018-03-31T14:24:22.000Z</time>
      </trkpt>
      <trkpt lat="47.57015" lon="-3.10048">
        <ele>5.4</ele>
        <time>2018-03-31T14:24:23.000Z</time>
      </trkpt>
      <trkpt lat="47.57015" lon="-3.10048">
        <ele>5.4</ele>
        <time>2018-03-31T14:24:24.000Z</time>
      </trkpt>
      <trkpt lat="47.57015" lon="-3.10048">
        <ele>5.4</ele>
        <time>2018-03-31T14:24:25.000Z</time>
      </trkpt>
      <trkpt lat="47.57015" lon="-3.10048">
        <ele>5.4</ele>
        <time>2018-03-31T14:24:26.000Z</time>
      </trkpt>
      <trkpt lat="47.57015" lon="-3.10048">
        <ele>5.4</ele>
        <time>2018-03-31T14:24:27.000Z</time>
      </trkpt>
      <trkpt lat="47.57015" lon="-3.10048">
        <ele>5.4</ele>
        <time>2018-03-31T14:24:28.000Z</time>
      </trkpt>
      <trkpt lat="47.57015" lon="-3.10048">
        <ele>5.4</ele>
        <time>2018-03-31T14:24:29.000Z</time>
      </trkpt>
      <trkpt lat="47.57015" lon="-3.10048">
        <ele>5.4</ele>
        <time>2018-03-31T14:24:30.000Z</time>
      </trkpt>
      <trkpt lat="47.57015" lon="-3.10048">
        <ele>5.4</ele>
        <time>2018-03-31T14:24:31.000Z</time>
      </trkpt>
      <trkpt lat="47.57015" lon="-3.10048">
        <ele>5.4</ele>
        <time>2018-03-31T14:24:32.000Z</time>
      </trkpt>
      <trkpt lat="47.57015" lon="-3.10048">
        <ele>5.4</ele>
        <time>2018-03-31T14:24:33.000Z</time>
      </trkpt>
      <trkpt lat="47.57015" lon="-3.10048">
        <ele>5.4</ele>
        <time>2018-03-31T14:24:34.000Z</time>
      </trkpt>
      <trkpt lat="47.57015" lon="-3.10048">
        <ele>5.4</ele>
        <time>2018-03-31T14:24:35.000Z</time>
      </trkpt>
      <trkpt lat="47.57015" lon="-3.10048">
        <ele>5.4</ele>
        <time>2018-03-31T14:24:36.000Z</time>
      </trkpt>
      <trkpt lat="47.57015" lon="-3.10048">
        <ele>5.4</ele>
        <time>2018-03-31T14:24:37.000Z</time>
      </trkpt>
      <trkpt lat="47.57015" lon="-3.10048">
        <ele>5.4</ele>
        <time>2018-03-31T14:24:38.000Z</time>
      </trkpt>
      <trkpt lat="47.57015" lon="-3.10048">
        <ele>5.4</ele>
        <time>2018-03-31T14:24:39.000Z</time>
      </trkpt>
      <trkpt lat="47.57015" lon="-3.10048">
        <ele>5.4</ele>
        <time>2018-03-31T14:24:40.000Z</time>
      </trkpt>
      <trkpt lat="47.57015" lon="-3.10048">
        <ele>5.4</ele>
        <time>2018-03-31T14:24:41.000Z</time>
      </trkpt>
      <trkpt lat="47.57012" lon="-3.10038">
        <ele>4.6</ele>
        <time>2018-03-31T14:24:42.000Z</time>
      </trkpt>
      <trkpt lat="47.5701" lon="-3.10035">
        <ele>4.3</ele>
        <time>2018-03-31T14:24:43.000Z</time>
      </trkpt>
      <trkpt lat="47.57009" lon="-3.10033">
        <ele>4</ele>
        <time>2018-03-31T14:24:44.000Z</time>
      </trkpt>
      <trkpt lat="47.57007" lon="-3.10031">
        <ele>3.9</ele>
        <time>2018-03-31T14:24:45.000Z</time>
      </trkpt>
      <trkpt lat="47.57007" lon="-3.10031">
        <ele>3.8</ele>
        <time>2018-03-31T14:24:46.000Z</time>
      </trkpt>
      <trkpt lat="47.57006" lon="-3.1003">
        <ele>3.7</ele>
        <time>2018-03-31T14:24:47.000Z</time>
      </trkpt>
      <trkpt lat="47.57005" lon="-3.10028">
        <ele>3.6</ele>
        <time>2018-03-31T14:24:48.000Z</time>
      </trkpt>
      <trkpt lat="47.57005" lon="-3.10026">
        <ele>3.6</ele>
        <time>2018-03-31T14:24:49.000Z</time>
      </trkpt>
      <trkpt lat="47.57004" lon="-3.10024">
        <ele>3.5</ele>
        <time>2018-03-31T14:24:50.000Z</time>
      </trkpt>
      <trkpt lat="47.57002" lon="-3.10023">
        <ele>3.4</ele>
        <time>2018-03-31T14:24:51.000Z</time>
      </trkpt>
      <trkpt lat="47.57001" lon="-3.10022">
        <ele>3.3</ele>
        <time>2018-03-31T14:24:52.000Z</time>
      </trkpt>
      <trkpt lat="47.57001" lon="-3.10021">
        <ele>3.3</ele>
        <time>2018-03-31T14:24:53.000Z</time>
      </trkpt>
      <trkpt lat="47.57" lon="-3.1002">
        <ele>3.3</ele>
        <time>2018-03-31T14:24:54.000Z</time>
      </trkpt>
      <trkpt lat="47.57" lon="-3.10019">
        <ele>3.3</ele>
        <time>2018-03-31T14:24:55.000Z</time>
      </trkpt>
      <trkpt lat="47.57" lon="-3.10018">
        <ele>3.3</ele>
        <time>2018-03-31T14:24:56.000Z</time>
      </trkpt>
      <trkpt lat="47.57" lon="-3.10017">
        <ele>3.4</ele>
        <time>2018-03-31T14:24:57.000Z</time>
      </trkpt>
      <trkpt lat="47.57" lon="-3.10017">
        <ele>3.4</ele>
        <time>2018-03-31T14:24:58.000Z</time>
      </trkpt>
      <trkpt lat="47.57" lon="-3.10017">
        <ele>3.4</ele>
        <time>2018-03-31T14:24:59.000Z</time>
      </trkpt>
      <trkpt lat="47.57" lon="-3.10017">
        <ele>3.4</ele>
        <time>2018-03-31T14:25:00.000Z</time>
      </trkpt>
      <trkpt lat="47.57" lon="-3.10017">
        <ele>3.4</ele>
        <time>2018-03-31T14:25:01.000Z</time>
      </trkpt>
      <trkpt lat="47.57" lon="-3.10017">
        <ele>3.4</ele>
        <time>2018-03-31T14:25:02.000Z</time>
      </trkpt>
      <trkpt lat="47.57" lon="-3.10017">
        <ele>3.4</ele>
        <time>2018-03-31T14:25:03.000Z</time>
      </trkpt>
      <trkpt lat="47.57" lon="-3.10017">
        <ele>3.4</ele>
        <time>2018-03-31T14:25:04.000Z</time>
      </trkpt>
      <trkpt lat="47.57" lon="-3.10017">
        <ele>3.4</ele>
        <time>2018-03-31T14:25:05.000Z</time>
      </trkpt>
      <trkpt lat="47.57" lon="-3.10017">
        <ele>3.4</ele>
        <time>2018-03-31T14:25:06.000Z</time>
      </trkpt>
      <trkpt lat="47.57" lon="-3.10017">
        <ele>3.4</ele>
        <time>2018-03-31T14:25:07.000Z</time>
      </trkpt>
      <trkpt lat="47.57" lon="-3.10017">
        <ele>3.4</ele>
        <time>2018-03-31T14:25:08.000Z</time>
      </trkpt>
      <trkpt lat="47.57" lon="-3.10017">
        <ele>3.4</ele>
        <time>2018-03-31T14:25:09.000Z</time>
      </trkpt>
      <trkpt lat="47.57" lon="-3.10017">
        <ele>3.4</ele>
        <time>2018-03-31T14:25:10.000Z</time>
      </trkpt>
      <trkpt lat="47.57" lon="-3.10017">
        <ele>3.4</ele>
        <time>2018-03-31T14:25:11.000Z</time>
      </trkpt>
      <trkpt lat="47.57" lon="-3.10017">
        <ele>3.4</ele>
        <time>2018-03-31T14:25:12.000Z</time>
      </trkpt>
      <trkpt lat="47.57" lon="-3.10017">
        <ele>3.4</ele>
        <time>2018-03-31T14:25:13.000Z</time>
      </trkpt>
      <trkpt lat="47.57" lon="-3.10017">
        <ele>3.4</ele>
        <time>2018-03-31T14:25:14.000Z</time>
      </trkpt>
      <trkpt lat="47.56996" lon="-3.10011">
        <ele>3.2</ele>
        <time>2018-03-31T14:25:15.000Z</time>
      </trkpt>
      <trkpt lat="47.56995" lon="-3.10011">
        <ele>3.1</ele>
        <time>2018-03-31T14:25:16.000Z</time>
      </trkpt>
      <trkpt lat="47.56994" lon="-3.10011">
        <ele>3</ele>
        <time>2018-03-31T14:25:17.000Z</time>
      </trkpt>
      <trkpt lat="47.56992" lon="-3.1001">
        <ele>2.9</ele>
        <time>2018-03-31T14:25:18.000Z</time>
      </trkpt>
      <trkpt lat="47.56991" lon="-3.10009">
        <ele>2.8</ele>
        <time>2018-03-31T14:25:19.000Z</time>
      </trkpt>
      <trkpt lat="47.5699" lon="-3.10008">
        <ele>2.8</ele>
        <time>2018-03-31T14:25:20.000Z</time>
      </trkpt>
      <trkpt lat="47.56989" lon="-3.10007">
        <ele>2.7</ele>
        <time>2018-03-31T14:25:21.000Z</time>
      </trkpt>
      <trkpt lat="47.56988" lon="-3.10007">
        <ele>2.6</ele>
        <time>2018-03-31T14:25:22.000Z</time>
      </trkpt>
      <trkpt lat="47.56987" lon="-3.10007">
        <ele>2.5</ele>
        <time>2018-03-31T14:25:23.000Z</time>
      </trkpt>
      <trkpt lat="47.56986" lon="-3.10007">
        <ele>2.4</ele>
        <time>2018-03-31T14:25:24.000Z</time>
      </trkpt>
      <trkpt lat="47.56986" lon="-3.10007">
        <ele>2.4</ele>
        <time>2018-03-31T14:25:25.000Z</time>
      </trkpt>
      <trkpt lat="47.56986" lon="-3.10007">
        <ele>2.4</ele>
        <time>2018-03-31T14:25:26.000Z</time>
      </trkpt>
      <trkpt lat="47.56986" lon="-3.10007">
        <ele>2.4</ele>
        <time>2018-03-31T14:25:27.000Z</time>
      </trkpt>
      <trkpt lat="47.56986" lon="-3.10007">
        <ele>2.4</ele>
        <time>2018-03-31T14:25:28.000Z</time>
      </trkpt>
      <trkpt lat="47.56986" lon="-3.10007">
        <ele>2.4</ele>
        <time>2018-03-31T14:25:29.000Z</time>
      </trkpt>
      <trkpt lat="47.56986" lon="-3.10007">
        <ele>2.4</ele>
        <time>2018-03-31T14:25:30.000Z</time>
      </trkpt>
      <trkpt lat="47.56986" lon="-3.10007">
        <ele>2.4</ele>
        <time>2018-03-31T14:25:31.000Z</time>
      </trkpt>
      <trkpt lat="47.56986" lon="-3.10007">
        <ele>2.4</ele>
        <time>2018-03-31T14:25:32.000Z</time>
      </trkpt>
      <trkpt lat="47.56986" lon="-3.10007">
        <ele>2.4</ele>
        <time>2018-03-31T14:25:33.000Z</time>
      </trkpt>
      <trkpt lat="47.56986" lon="-3.10007">
        <ele>2.4</ele>
        <time>2018-03-31T14:25:34.000Z</time>
      </trkpt>
      <trkpt lat="47.56986" lon="-3.10007">
        <ele>2.4</ele>
        <time>2018-03-31T14:25:35.000Z</time>
      </trkpt>
      <trkpt lat="47.56986" lon="-3.10007">
        <ele>2.4</ele>
        <time>2018-03-31T14:25:36.000Z</time>
      </trkpt>
      <trkpt lat="47.56986" lon="-3.10007">
        <ele>2.4</ele>
        <time>2018-03-31T14:25:37.000Z</time>
      </trkpt>
      <trkpt lat="47.56986" lon="-3.10007">
        <ele>2.4</ele>
        <time>2018-03-31T14:25:38.000Z</time>
      </trkpt>
      <trkpt lat="47.56986" lon="-3.10007">
        <ele>2.4</ele>
        <time>2018-03-31T14:25:39.000Z</time>
      </trkpt>
      <trkpt lat="47.56986" lon="-3.10007">
        <ele>2.4</ele>
        <time>2018-03-31T14:25:40.000Z</time>
      </trkpt>
      <trkpt lat="47.56986" lon="-3.10007">
        <ele>2.4</ele>
        <time>2018-03-31T14:25:41.000Z</time>
      </trkpt>
      <trkpt lat="47.56986" lon="-3.10007">
        <ele>2.4</ele>
        <time>2018-03-31T14:25:42.000Z</time>
      </trkpt>
      <trkpt lat="47.56977" lon="-3.10007">
        <ele>1.5</ele>
        <time>2018-03-31T14:25:43.000Z</time>
      </trkpt>
      <trkpt lat="47.56975" lon="-3.10008">
        <ele>1.3</ele>
        <time>2018-03-31T14:25:44.000Z</time>
      </trkpt>
      <trkpt lat="47.56973" lon="-3.1001">
        <ele>1.1</ele>
        <time>2018-03-31T14:25:45.000Z</time>
      </trkpt>
      <trkpt lat="47.5697" lon="-3.10011">
        <ele>1</ele>
        <time>2018-03-31T14:25:46.000Z</time>
      </trkpt>
      <trkpt lat="47.56967" lon="-3.10014">
        <ele>1</ele>
        <time>2018-03-31T14:25:47.000Z</time>
      </trkpt>
      <trkpt lat="47.56964" lon="-3.10015">
        <ele>1</ele>
        <time>2018-03-31T14:25:48.000Z</time>
      </trkpt>
      <trkpt lat="47.5696" lon="-3.10017">
        <ele>1</ele>
        <time>2018-03-31T14:25:49.000Z</time>
      </trkpt>
      <trkpt lat="47.56956" lon="-3.10019">
        <ele>1</ele>
        <time>2018-03-31T14:25:50.000Z</time>
      </trkpt>
      <trkpt lat="47.56952" lon="-3.10021">
        <ele>1</ele>
        <time>2018-03-31T14:25:51.000Z</time>
      </trkpt>
      <trkpt lat="47.56947" lon="-3.10022">
        <ele>1</ele>
        <time>2018-03-31T14:25:52.000Z</time>
      </trkpt>
      <trkpt lat="47.56943" lon="-3.10024">
        <time>2018-03-31T14:25:53.000Z</time>
      </trkpt>
      <trkpt lat="47.56938" lon="-3.10026">
        <time>2018-03-31T14:25:54.000Z</time>
      </trkpt>
      <trkpt lat="47.56933" lon="-3.10027">
        <time>2018-03-31T14:25:55.000Z</time>
      </trkpt>
      <trkpt lat="47.56927" lon="-3.10027">
        <time>2018-03-31T14:25:56.000Z</time>
      </trkpt>
      <trkpt lat="47.56921" lon="-3.1003">
        <time>2018-03-31T14:25:57.000Z</time>
      </trkpt>
      <trkpt lat="47.56916" lon="-3.10033">
        <time>2018-03-31T14:25:58.000Z</time>
      </trkpt>
      <trkpt lat="47.5691" lon="-3.10036">
        <time>2018-03-31T14:25:59.000Z</time>
      </trkpt>
      <trkpt lat="47.56904" lon="-3.10039">
        <time>2018-03-31T14:26:00.000Z</time>
      </trkpt>
      <trkpt lat="47.56897" lon="-3.10043">
        <time>2018-03-31T14:26:01.000Z</time>
      </trkpt>
      <trkpt lat="47.56889" lon="-3.10047">
        <time>2018-03-31T14:26:02.000Z</time>
      </trkpt>
      <trkpt lat="47.56881" lon="-3.10051">
        <time>2018-03-31T14:26:03.000Z</time>
      </trkpt>
      <trkpt lat="47.56873" lon="-3.10054">
        <time>2018-03-31T14:26:04.000Z</time>
      </trkpt>
      <trkpt lat="47.56865" lon="-3.10059">
        <time>2018-03-31T14:26:05.000Z</time>
      </trkpt>
      <trkpt lat="47.56857" lon="-3.10064">
        <time>2018-03-31T14:26:06.000Z</time>
      </trkpt>
      <trkpt lat="47.5685" lon="-3.10067">
        <time>2018-03-31T14:26:07.000Z</time>
      </trkpt>
      <trkpt lat="47.56843" lon="-3.1007">
        <time>2018-03-31T14:26:08.000Z</time>
      </trkpt>
      <trkpt lat="47.56836" lon="-3.10072">
        <time>2018-03-31T14:26:09.000Z</time>
      </trkpt>
      <trkpt lat="47.5683" lon="-3.10074">
        <time>2018-03-31T14:26:10.000Z</time>
      </trkpt>
      <trkpt lat="47.56824" lon="-3.10077">
        <time>2018-03-31T14:26:11.000Z</time>
      </trkpt>
      <trkpt lat="47.56818" lon="-3.1008">
        <time>2018-03-31T14:26:12.000Z</time>
      </trkpt>
      <trkpt lat="47.56813" lon="-3.10084">
        <time>2018-03-31T14:26:13.000Z</time>
      </trkpt>
      <trkpt lat="47.56807" lon="-3.10087">
        <time>2018-03-31T14:26:14.000Z</time>
      </trkpt>
      <trkpt lat="47.56802" lon="-3.10089">
        <time>2018-03-31T14:26:15.000Z</time>
      </trkpt>
      <trkpt lat="47.56796" lon="-3.10093">
        <time>2018-03-31T14:26:16.000Z</time>
      </trkpt>
      <trkpt lat="47.56789" lon="-3.10096">
        <time>2018-03-31T14:26:17.000Z</time>
      </trkpt>
      <trkpt lat="47.56783" lon="-3.10099">
        <time>2018-03-31T14:26:18.000Z</time>
      </trkpt>
      <trkpt lat="47.56776" lon="-3.10103">
        <time>2018-03-31T14:26:19.000Z</time>
      </trkpt>
      <trkpt lat="47.5677" lon="-3.10106">
        <time>2018-03-31T14:26:20.000Z</time>
      </trkpt>
      <trkpt lat="47.56762" lon="-3.1011">
        <time>2018-03-31T14:26:21.000Z</time>
      </trkpt>
      <trkpt lat="47.56755" lon="-3.10115">
        <time>2018-03-31T14:26:22.000Z</time>
      </trkpt>
      <trkpt lat="47.56748" lon="-3.10121">
        <time>2018-03-31T14:26:23.000Z</time>
      </trkpt>
      <trkpt lat="47.56741" lon="-3.10127">
        <time>2018-03-31T14:26:24.000Z</time>
      </trkpt>
      <trkpt lat="47.56734" lon="-3.10132">
        <time>2018-03-31T14:26:25.000Z</time>
      </trkpt>
      <trkpt lat="47.56726" lon="-3.10137">
        <time>2018-03-31T14:26:26.000Z</time>
      </trkpt>
      <trkpt lat="47.56719" lon="-3.10142">
        <time>2018-03-31T14:26:27.000Z</time>
      </trkpt>
      <trkpt lat="47.56711" lon="-3.10147">
        <time>2018-03-31T14:26:28.000Z</time>
      </trkpt>
      <trkpt lat="47.56704" lon="-3.10151">
        <time>2018-03-31T14:26:29.000Z</time>
      </trkpt>
      <trkpt lat="47.56696" lon="-3.10155">
        <time>2018-03-31T14:26:30.000Z</time>
      </trkpt>
      <trkpt lat="47.56688" lon="-3.10161">
        <time>2018-03-31T14:26:31.000Z</time>
      </trkpt>
      <trkpt lat="47.5668" lon="-3.10166">
        <time>2018-03-31T14:26:32.000Z</time>
      </trkpt>
      <trkpt lat="47.56673" lon="-3.10172">
        <time>2018-03-31T14:26:33.000Z</time>
      </trkpt>
      <trkpt lat="47.56666" lon="-3.10177">
        <time>2018-03-31T14:26:34.000Z</time>
      </trkpt>
      <trkpt lat="47.56659" lon="-3.10181">
        <time>2018-03-31T14:26:35.000Z</time>
      </trkpt>
      <trkpt lat="47.56651" lon="-3.10185">
        <time>2018-03-31T14:26:36.000Z</time>
      </trkpt>
      <trkpt lat="47.56643" lon="-3.1019">
        <time>2018-03-31T14:26:37.000Z</time>
      </trkpt>
      <trkpt lat="47.56635" lon="-3.10194">
        <time>2018-03-31T14:26:38.000Z</time>
      </trkpt>
      <trkpt lat="47.56627" lon="-3.10197">
        <time>2018-03-31T14:26:39.000Z</time>
      </trkpt>
      <trkpt lat="47.56618" lon="-3.10199">
        <time>2018-03-31T14:26:40.000Z</time>
      </trkpt>
      <trkpt lat="47.5661" lon="-3.10204">
        <time>2018-03-31T14:26:41.000Z</time>
      </trkpt>
      <trkpt lat="47.56602" lon="-3.10208">
        <time>2018-03-31T14:26:42.000Z</time>
      </trkpt>
      <trkpt lat="47.56594" lon="-3.10213">
        <time>2018-03-31T14:26:43.000Z</time>
      </trkpt>
      <trkpt lat="47.56587" lon="-3.10217">
        <time>2018-03-31T14:26:44.000Z</time>
      </trkpt>
      <trkpt lat="47.56579" lon="-3.10221">
        <time>2018-03-31T14:26:45.000Z</time>
      </trkpt>
      <trkpt lat="47.56571" lon="-3.10225">
        <time>2018-03-31T14:26:46.000Z</time>
      </trkpt>
      <trkpt lat="47.56563" lon="-3.10228">
        <time>2018-03-31T14:26:47.000Z</time>
      </trkpt>
      <trkpt lat="47.56554" lon="-3.10233">
        <time>2018-03-31T14:26:48.000Z</time>
      </trkpt>
      <trkpt lat="47.56545" lon="-3.10235">
        <time>2018-03-31T14:26:49.000Z</time>
      </trkpt>
      <trkpt lat="47.56537" lon="-3.10238">
        <time>2018-03-31T14:26:50.000Z</time>
      </trkpt>
      <trkpt lat="47.56528" lon="-3.10241">
        <time>2018-03-31T14:26:51.000Z</time>
      </trkpt>
      <trkpt lat="47.5652" lon="-3.10244">
        <time>2018-03-31T14:26:52.000Z</time>
      </trkpt>
      <trkpt lat="47.56512" lon="-3.10247">
        <time>2018-03-31T14:26:53.000Z</time>
      </trkpt>
      <trkpt lat="47.56504" lon="-3.1025">
        <time>2018-03-31T14:26:54.000Z</time>
      </trkpt>
      <trkpt lat="47.56495" lon="-3.10253">
        <time>2018-03-31T14:26:55.000Z</time>
      </trkpt>
      <trkpt lat="47.56487" lon="-3.10257">
        <time>2018-03-31T14:26:56.000Z</time>
      </trkpt>
      <trkpt lat="47.56479" lon="-3.1026">
        <time>2018-03-31T14:26:57.000Z</time>
      </trkpt>
      <trkpt lat="47.5647" lon="-3.10263">
        <time>2018-03-31T14:26:58.000Z</time>
      </trkpt>
      <trkpt lat="47.56461" lon="-3.10267">
        <time>2018-03-31T14:26:59.000Z</time>
      </trkpt>
      <trkpt lat="47.56451" lon="-3.10271">
        <time>2018-03-31T14:27:00.000Z</time>
      </trkpt>
      <trkpt lat="47.56441" lon="-3.10276">
        <time>2018-03-31T14:27:01.000Z</time>
      </trkpt>
      <trkpt lat="47.56432" lon="-3.10281">
        <time>2018-03-31T14:27:02.000Z</time>
      </trkpt>
      <trkpt lat="47.56423" lon="-3.10286">
        <time>2018-03-31T14:27:03.000Z</time>
      </trkpt>
      <trkpt lat="47.56415" lon="-3.10291">
        <time>2018-03-31T14:27:04.000Z</time>
      </trkpt>
      <trkpt lat="47.56407" lon="-3.10296">
        <time>2018-03-31T14:27:05.000Z</time>
      </trkpt>
      <trkpt lat="47.56398" lon="-3.103">
        <time>2018-03-31T14:27:06.000Z</time>
      </trkpt>
      <trkpt lat="47.5639" lon="-3.10306">
        <time>2018-03-31T14:27:07.000Z</time>
      </trkpt>
      <trkpt lat="47.56382" lon="-3.10311">
        <time>2018-03-31T14:27:08.000Z</time>
      </trkpt>
      <trkpt lat="47.56372" lon="-3.10317">
        <time>2018-03-31T14:27:09.000Z</time>
      </trkpt>
      <trkpt lat="47.56362" lon="-3.10321">
        <time>2018-03-31T14:27:10.000Z</time>
      </trkpt>
      <trkpt lat="47.56352" lon="-3.10326">
        <time>2018-03-31T14:27:11.000Z</time>
      </trkpt>
      <trkpt lat="47.5634" lon="-3.1033">
        <time>2018-03-31T14:27:12.000Z</time>
      </trkpt>
      <trkpt lat="47.56329" lon="-3.10336">
        <time>2018-03-31T14:27:13.000Z</time>
      </trkpt>
      <trkpt lat="47.5632" lon="-3.10339">
        <time>2018-03-31T14:27:14.000Z</time>
      </trkpt>
      <trkpt lat="47.56311" lon="-3.10341">
        <time>2018-03-31T14:27:15.000Z</time>
      </trkpt>
      <trkpt lat="47.56304" lon="-3.10343">
        <time>2018-03-31T14:27:16.000Z</time>
      </trkpt>
      <trkpt lat="47.56296" lon="-3.10347">
        <time>2018-03-31T14:27:17.000Z</time>
      </trkpt>
      <trkpt lat="47.56288" lon="-3.10351">
        <time>2018-03-31T14:27:18.000Z</time>
      </trkpt>
      <trkpt lat="47.5628" lon="-3.10354">
        <time>2018-03-31T14:27:19.000Z</time>
      </trkpt>
      <trkpt lat="47.56272" lon="-3.10355">
        <time>2018-03-31T14:27:20.000Z</time>
      </trkpt>
      <trkpt lat="47.56264" lon="-3.10358">
        <time>2018-03-31T14:27:21.000Z</time>
      </trkpt>
      <trkpt lat="47.56256" lon="-3.10361">
        <time>2018-03-31T14:27:22.000Z</time>
      </trkpt>
      <trkpt lat="47.56248" lon="-3.10365">
        <time>2018-03-31T14:27:23.000Z</time>
      </trkpt>
      <trkpt lat="47.56239" lon="-3.1037">
        <time>2018-03-31T14:27:24.000Z</time>
      </trkpt>
      <trkpt lat="47.56231" lon="-3.10374">
        <time>2018-03-31T14:27:25.000Z</time>
      </trkpt>
      <trkpt lat="47.56222" lon="-3.10379">
        <time>2018-03-31T14:27:26.000Z</time>
      </trkpt>
      <trkpt lat="47.56214" lon="-3.10383">
        <time>2018-03-31T14:27:27.000Z</time>
      </trkpt>
      <trkpt lat="47.56206" lon="-3.10387">
        <time>2018-03-31T14:27:28.000Z</time>
      </trkpt>
      <trkpt lat="47.56198" lon="-3.1039">
        <time>2018-03-31T14:27:29.000Z</time>
      </trkpt>
      <trkpt lat="47.5619" lon="-3.10395">
        <time>2018-03-31T14:27:30.000Z</time>
      </trkpt>
      <trkpt lat="47.56182" lon="-3.10399">
        <time>2018-03-31T14:27:31.000Z</time>
      </trkpt>
      <trkpt lat="47.56173" lon="-3.10402">
        <time>2018-03-31T14:27:32.000Z</time>
      </trkpt>
      <trkpt lat="47.56165" lon="-3.10406">
        <time>2018-03-31T14:27:33.000Z</time>
      </trkpt>
      <trkpt lat="47.56157" lon="-3.10409">
        <time>2018-03-31T14:27:34.000Z</time>
      </trkpt>
      <trkpt lat="47.56148" lon="-3.10413">
        <time>2018-03-31T14:27:35.000Z</time>
      </trkpt>
      <trkpt lat="47.5614" lon="-3.10416">
        <time>2018-03-31T14:27:36.000Z</time>
      </trkpt>
      <trkpt lat="47.56131" lon="-3.10419">
        <time>2018-03-31T14:27:37.000Z</time>
      </trkpt>
      <trkpt lat="47.56123" lon="-3.10424">
        <time>2018-03-31T14:27:38.000Z</time>
      </trkpt>
      <trkpt lat="47.56115" lon="-3.1043">
        <time>2018-03-31T14:27:39.000Z</time>
      </trkpt>
      <trkpt lat="47.56104" lon="-3.10431">
        <time>2018-03-31T14:27:40.000Z</time>
      </trkpt>
      <trkpt lat="47.56094" lon="-3.10433">
        <time>2018-03-31T14:27:41.000Z</time>
      </trkpt>
      <trkpt lat="47.56083" lon="-3.10436">
        <time>2018-03-31T14:27:42.000Z</time>
      </trkpt>
      <trkpt lat="47.56074" lon="-3.10441">
        <time>2018-03-31T14:27:43.000Z</time>
      </trkpt>
      <trkpt lat="47.56067" lon="-3.1045">
        <time>2018-03-31T14:27:44.000Z</time>
      </trkpt>
      <trkpt lat="47.56061" lon="-3.10455">
        <time>2018-03-31T14:27:45.000Z</time>
      </trkpt>
      <trkpt lat="47.56055" lon="-3.1046">
        <time>2018-03-31T14:27:46.000Z</time>
      </trkpt>
      <trkpt lat="47.5605" lon="-3.10465">
        <time>2018-03-31T14:27:47.000Z</time>
      </trkpt>
      <trkpt lat="47.56045" lon="-3.10469">
        <time>2018-03-31T14:27:48.000Z</time>
      </trkpt>
      <trkpt lat="47.56039" lon="-3.10473">
        <time>2018-03-31T14:27:49.000Z</time>
      </trkpt>
      <trkpt lat="47.56032" lon="-3.10476">
        <time>2018-03-31T14:27:50.000Z</time>
      </trkpt>
      <trkpt lat="47.56026" lon="-3.10479">
        <time>2018-03-31T14:27:51.000Z</time>
      </trkpt>
      <trkpt lat="47.56019" lon="-3.10483">
        <time>2018-03-31T14:27:52.000Z</time>
      </trkpt>
      <trkpt lat="47.56011" lon="-3.10486">
        <time>2018-03-31T14:27:53.000Z</time>
      </trkpt>
      <trkpt lat="47.56003" lon="-3.10491">
        <time>2018-03-31T14:27:54.000Z</time>
      </trkpt>
      <trkpt lat="47.55995" lon="-3.10495">
        <time>2018-03-31T14:27:55.000Z</time>
      </trkpt>
      <trkpt lat="47.55987" lon="-3.10499">
        <time>2018-03-31T14:27:56.000Z</time>
      </trkpt>
      <trkpt lat="47.55978" lon="-3.10502">
        <time>2018-03-31T14:27:57.000Z</time>
      </trkpt>
      <trkpt lat="47.55969" lon="-3.10506">
        <time>2018-03-31T14:27:58.000Z</time>
      </trkpt>
      <trkpt lat="47.5596" lon="-3.10509">
        <time>2018-03-31T14:27:59.000Z</time>
      </trkpt>
      <trkpt lat="47.5595" lon="-3.10513">
        <time>2018-03-31T14:28:00.000Z</time>
      </trkpt>
      <trkpt lat="47.5594" lon="-3.10516">
        <time>2018-03-31T14:28:01.000Z</time>
      </trkpt>
      <trkpt lat="47.55928" lon="-3.10517">
        <time>2018-03-31T14:28:02.000Z</time>
      </trkpt>
      <trkpt lat="47.55919" lon="-3.10521">
        <time>2018-03-31T14:28:03.000Z</time>
      </trkpt>
      <trkpt lat="47.5591" lon="-3.10522">
        <time>2018-03-31T14:28:04.000Z</time>
      </trkpt>
      <trkpt lat="47.559" lon="-3.10524">
        <time>2018-03-31T14:28:05.000Z</time>
      </trkpt>
      <trkpt lat="47.5589" lon="-3.10526">
        <time>2018-03-31T14:28:06.000Z</time>
      </trkpt>
      <trkpt lat="47.55879" lon="-3.10528">
        <time>2018-03-31T14:28:07.000Z</time>
      </trkpt>
      <trkpt lat="47.55869" lon="-3.10532">
        <time>2018-03-31T14:28:08.000Z</time>
      </trkpt>
      <trkpt lat="47.55859" lon="-3.10535">
        <time>2018-03-31T14:28:09.000Z</time>
      </trkpt>
      <trkpt lat="47.55849" lon="-3.10537">
        <time>2018-03-31T14:28:10.000Z</time>
      </trkpt>
      <trkpt lat="47.55838" lon="-3.10538">
        <time>2018-03-31T14:28:11.000Z</time>
      </trkpt>
      <trkpt lat="47.55826" lon="-3.10537">
        <time>2018-03-31T14:28:12.000Z</time>
      </trkpt>
      <trkpt lat="47.55816" lon="-3.10539">
        <time>2018-03-31T14:28:13.000Z</time>
      </trkpt>
      <trkpt lat="47.55806" lon="-3.1054">
        <time>2018-03-31T14:28:14.000Z</time>
      </trkpt>
      <trkpt lat="47.55794" lon="-3.10543">
        <time>2018-03-31T14:28:15.000Z</time>
      </trkpt>
      <trkpt lat="47.55785" lon="-3.10547">
        <time>2018-03-31T14:28:16.000Z</time>
      </trkpt>
      <trkpt lat="47.55775" lon="-3.10549">
        <time>2018-03-31T14:28:17.000Z</time>
      </trkpt>
      <trkpt lat="47.55765" lon="-3.10552">
        <time>2018-03-31T14:28:18.000Z</time>
      </trkpt>
      <trkpt lat="47.55755" lon="-3.10556">
        <time>2018-03-31T14:28:19.000Z</time>
      </trkpt>
      <trkpt lat="47.55744" lon="-3.10562">
        <time>2018-03-31T14:28:20.000Z</time>
      </trkpt>
      <trkpt lat="47.55735" lon="-3.10567">
        <time>2018-03-31T14:28:21.000Z</time>
      </trkpt>
      <trkpt lat="47.55726" lon="-3.10572">
        <time>2018-03-31T14:28:22.000Z</time>
      </trkpt>
      <trkpt lat="47.55717" lon="-3.10575">
        <time>2018-03-31T14:28:23.000Z</time>
      </trkpt>
      <trkpt lat="47.55707" lon="-3.10578">
        <time>2018-03-31T14:28:24.000Z</time>
      </trkpt>
      <trkpt lat="47.55696" lon="-3.10578">
        <time>2018-03-31T14:28:25.000Z</time>
      </trkpt>
      <trkpt lat="47.55687" lon="-3.10579">
        <time>2018-03-31T14:28:26.000Z</time>
      </trkpt>
      <trkpt lat="47.55677" lon="-3.10582">
        <time>2018-03-31T14:28:27.000Z</time>
      </trkpt>
      <trkpt lat="47.55668" lon="-3.10587">
        <time>2018-03-31T14:28:28.000Z</time>
      </trkpt>
      <trkpt lat="47.55659" lon="-3.10591">
        <time>2018-03-31T14:28:29.000Z</time>
      </trkpt>
      <trkpt lat="47.55649" lon="-3.10594">
        <time>2018-03-31T14:28:30.000Z</time>
      </trkpt>
      <trkpt lat="47.55638" lon="-3.10595">
        <time>2018-03-31T14:28:31.000Z</time>
      </trkpt>
      <trkpt lat="47.55627" lon="-3.10599">
        <time>2018-03-31T14:28:32.000Z</time>
      </trkpt>
      <trkpt lat="47.55617" lon="-3.10601">
        <time>2018-03-31T14:28:33.000Z</time>
      </trkpt>
      <trkpt lat="47.55606" lon="-3.10604">
        <time>2018-03-31T14:28:34.000Z</time>
      </trkpt>
      <trkpt lat="47.55595" lon="-3.10607">
        <time>2018-03-31T14:28:35.000Z</time>
      </trkpt>
      <trkpt lat="47.55585" lon="-3.10612">
        <time>2018-03-31T14:28:36.000Z</time>
      </trkpt>
      <trkpt lat="47.55575" lon="-3.10617">
        <time>2018-03-31T14:28:37.000Z</time>
      </trkpt>
      <trkpt lat="47.55565" lon="-3.1062">
        <time>2018-03-31T14:28:38.000Z</time>
      </trkpt>
      <trkpt lat="47.55555" lon="-3.10622">
        <time>2018-03-31T14:28:39.000Z</time>
      </trkpt>
      <trkpt lat="47.55545" lon="-3.10626">
        <time>2018-03-31T14:28:40.000Z</time>
      </trkpt>
      <trkpt lat="47.55534" lon="-3.10629">
        <time>2018-03-31T14:28:41.000Z</time>
      </trkpt>
      <trkpt lat="47.55523" lon="-3.10632">
        <time>2018-03-31T14:28:42.000Z</time>
      </trkpt>
      <trkpt lat="47.55513" lon="-3.10635">
        <time>2018-03-31T14:28:43.000Z</time>
      </trkpt>
      <trkpt lat="47.55503" lon="-3.1064">
        <time>2018-03-31T14:28:44.000Z</time>
      </trkpt>
      <trkpt lat="47.55493" lon="-3.10641">
        <time>2018-03-31T14:28:45.000Z</time>
      </trkpt>
      <trkpt lat="47.55483" lon="-3.10641">
        <time>2018-03-31T14:28:46.000Z</time>
      </trkpt>
      <trkpt lat="47.5547" lon="-3.1064">
        <time>2018-03-31T14:28:47.000Z</time>
      </trkpt>
      <trkpt lat="47.55459" lon="-3.10643">
        <time>2018-03-31T14:28:48.000Z</time>
      </trkpt>
      <trkpt lat="47.55449" lon="-3.10645">
        <time>2018-03-31T14:28:49.000Z</time>
      </trkpt>
      <trkpt lat="47.55439" lon="-3.10649">
        <time>2018-03-31T14:28:50.000Z</time>
      </trkpt>
      <trkpt lat="47.55429" lon="-3.10651">
        <time>2018-03-31T14:28:51.000Z</time>
      </trkpt>
      <trkpt lat="47.5542" lon="-3.10656">
        <time>2018-03-31T14:28:52.000Z</time>
      </trkpt>
      <trkpt lat="47.55411" lon="-3.10661">
        <time>2018-03-31T14:28:53.000Z</time>
      </trkpt>
      <trkpt lat="47.55401" lon="-3.10666">
        <time>2018-03-31T14:28:54.000Z</time>
      </trkpt>
      <trkpt lat="47.55393" lon="-3.10673">
        <time>2018-03-31T14:28:55.000Z</time>
      </trkpt>
      <trkpt lat="47.55384" lon="-3.1068">
        <time>2018-03-31T14:28:56.000Z</time>
      </trkpt>
      <trkpt lat="47.55374" lon="-3.10683">
        <time>2018-03-31T14:28:57.000Z</time>
      </trkpt>
      <trkpt lat="47.55364" lon="-3.10687">
        <time>2018-03-31T14:28:58.000Z</time>
      </trkpt>
      <trkpt lat="47.55355" lon="-3.10691">
        <time>2018-03-31T14:28:59.000Z</time>
      </trkpt>
      <trkpt lat="47.55347" lon="-3.10695">
        <time>2018-03-31T14:29:00.000Z</time>
      </trkpt>
      <trkpt lat="47.55337" lon="-3.10699">
        <time>2018-03-31T14:29:01.000Z</time>
      </trkpt>
      <trkpt lat="47.55327" lon="-3.10706">
        <time>2018-03-31T14:29:02.000Z</time>
      </trkpt>
      <trkpt lat="47.55318" lon="-3.10711">
        <time>2018-03-31T14:29:03.000Z</time>
      </trkpt>
      <trkpt lat="47.55308" lon="-3.10716">
        <time>2018-03-31T14:29:04.000Z</time>
      </trkpt>
      <trkpt lat="47.55298" lon="-3.1072">
        <time>2018-03-31T14:29:05.000Z</time>
      </trkpt>
      <trkpt lat="47.55288" lon="-3.10724">
        <time>2018-03-31T14:29:06.000Z</time>
      </trkpt>
      <trkpt lat="47.5528" lon="-3.10729">
        <time>2018-03-31T14:29:07.000Z</time>
      </trkpt>
      <trkpt lat="47.55272" lon="-3.10731">
        <time>2018-03-31T14:29:08.000Z</time>
      </trkpt>
      <trkpt lat="47.55262" lon="-3.10735">
        <time>2018-03-31T14:29:09.000Z</time>
      </trkpt>
      <trkpt lat="47.55252" lon="-3.10737">
        <time>2018-03-31T14:29:10.000Z</time>
      </trkpt>
      <trkpt lat="47.55244" lon="-3.10739">
        <time>2018-03-31T14:29:11.000Z</time>
      </trkpt>
      <trkpt lat="47.55235" lon="-3.10742">
        <time>2018-03-31T14:29:12.000Z</time>
      </trkpt>
      <trkpt lat="47.55226" lon="-3.10745">
        <time>2018-03-31T14:29:13.000Z</time>
      </trkpt>
      <trkpt lat="47.55217" lon="-3.10747">
        <time>2018-03-31T14:29:14.000Z</time>
      </trkpt>
      <trkpt lat="47.55211" lon="-3.1075">
        <time>2018-03-31T14:29:15.000Z</time>
      </trkpt>
      <trkpt lat="47.55202" lon="-3.1075">
        <time>2018-03-31T14:29:16.000Z</time>
      </trkpt>
      <trkpt lat="47.55194" lon="-3.10751">
        <time>2018-03-31T14:29:17.000Z</time>
      </trkpt>
      <trkpt lat="47.55184" lon="-3.10753">
        <time>2018-03-31T14:29:18.000Z</time>
      </trkpt>
      <trkpt lat="47.55174" lon="-3.10758">
        <time>2018-03-31T14:29:19.000Z</time>
      </trkpt>
      <trkpt lat="47.55164" lon="-3.10763">
        <time>2018-03-31T14:29:20.000Z</time>
      </trkpt>
      <trkpt lat="47.55155" lon="-3.10768">
        <time>2018-03-31T14:29:21.000Z</time>
      </trkpt>
      <trkpt lat="47.55145" lon="-3.10772">
        <time>2018-03-31T14:29:22.000Z</time>
      </trkpt>
      <trkpt lat="47.55137" lon="-3.10776">
        <time>2018-03-31T14:29:23.000Z</time>
      </trkpt>
      <trkpt lat="47.55128" lon="-3.10782">
        <time>2018-03-31T14:29:24.000Z</time>
      </trkpt>
      <trkpt lat="47.5512" lon="-3.10784">
        <time>2018-03-31T14:29:25.000Z</time>
      </trkpt>
      <trkpt lat="47.55112" lon="-3.10788">
        <time>2018-03-31T14:29:26.000Z</time>
      </trkpt>
      <trkpt lat="47.55103" lon="-3.10794">
        <time>2018-03-31T14:29:27.000Z</time>
      </trkpt>
      <trkpt lat="47.55096" lon="-3.10798">
        <time>2018-03-31T14:29:28.000Z</time>
      </trkpt>
      <trkpt lat="47.5509" lon="-3.10801">
        <time>2018-03-31T14:29:29.000Z</time>
      </trkpt>
      <trkpt lat="47.55084" lon="-3.10804">
        <time>2018-03-31T14:29:30.000Z</time>
      </trkpt>
      <trkpt lat="47.55077" lon="-3.10807">
        <time>2018-03-31T14:29:31.000Z</time>
      </trkpt>
      <trkpt lat="47.55069" lon="-3.10811">
        <time>2018-03-31T14:29:32.000Z</time>
      </trkpt>
      <trkpt lat="47.55061" lon="-3.10814">
        <time>2018-03-31T14:29:33.000Z</time>
      </trkpt>
      <trkpt lat="47.55053" lon="-3.10817">
        <time>2018-03-31T14:29:34.000Z</time>
      </trkpt>
      <trkpt lat="47.55045" lon="-3.10819">
        <time>2018-03-31T14:29:35.000Z</time>
      </trkpt>
      <trkpt lat="47.55038" lon="-3.1082">
        <time>2018-03-31T14:29:36.000Z</time>
      </trkpt>
      <trkpt lat="47.5503" lon="-3.10819">
        <time>2018-03-31T14:29:37.000Z</time>
      </trkpt>
      <trkpt lat="47.55024" lon="-3.10816">
        <time>2018-03-31T14:29:38.000Z</time>
      </trkpt>
      <trkpt lat="47.55019" lon="-3.10809">
        <time>2018-03-31T14:29:39.000Z</time>
      </trkpt>
      <trkpt lat="47.55015" lon="-3.108">
        <time>2018-03-31T14:29:40.000Z</time>
      </trkpt>
      <trkpt lat="47.55013" lon="-3.10791">
        <time>2018-03-31T14:29:41.000Z</time>
      </trkpt>
      <trkpt lat="47.55011" lon="-3.10783">
        <time>2018-03-31T14:29:42.000Z</time>
      </trkpt>
      <trkpt lat="47.5501" lon="-3.10774">
        <time>2018-03-31T14:29:43.000Z</time>
      </trkpt>
      <trkpt lat="47.55008" lon="-3.10765">
        <time>2018-03-31T14:29:44.000Z</time>
      </trkpt>
      <trkpt lat="47.55007" lon="-3.10756">
        <time>2018-03-31T14:29:45.000Z</time>
      </trkpt>
      <trkpt lat="47.55005" lon="-3.10748">
        <time>2018-03-31T14:29:46.000Z</time>
      </trkpt>
      <trkpt lat="47.55004" lon="-3.10739">
        <time>2018-03-31T14:29:47.000Z</time>
      </trkpt>
      <trkpt lat="47.55002" lon="-3.1073">
        <time>2018-03-31T14:29:48.000Z</time>
      </trkpt>
      <trkpt lat="47.55001" lon="-3.10721">
        <time>2018-03-31T14:29:49.000Z</time>
      </trkpt>
      <trkpt lat="47.55" lon="-3.10713">
        <time>2018-03-31T14:29:50.000Z</time>
      </trkpt>
      <trkpt lat="47.54998" lon="-3.10704">
        <time>2018-03-31T14:29:51.000Z</time>
      </trkpt>
      <trkpt lat="47.54996" lon="-3.10697">
        <time>2018-03-31T14:29:52.000Z</time>
      </trkpt>
      <trkpt lat="47.54997" lon="-3.10703">
        <time>2018-03-31T14:29:53.000Z</time>
      </trkpt>
      <trkpt lat="47.54998" lon="-3.10705">
        <time>2018-03-31T14:29:54.000Z</time>
      </trkpt>
      <trkpt lat="47.55034" lon="-3.10758">
        <time>2018-03-31T14:30:38.000Z</time>
      </trkpt>
      <trkpt lat="47.55037" lon="-3.10752">
        <time>2018-03-31T14:30:39.000Z</time>
      </trkpt>
      <trkpt lat="47.55036" lon="-3.10774">
        <time>2018-03-31T14:30:40.000Z</time>
      </trkpt>
      <trkpt lat="47.55043" lon="-3.10778">
        <time>2018-03-31T14:30:41.000Z</time>
      </trkpt>
      <trkpt lat="47.55045" lon="-3.10772">
        <time>2018-03-31T14:30:42.000Z</time>
      </trkpt>
      <trkpt lat="47.55047" lon="-3.1077">
        <time>2018-03-31T14:30:43.000Z</time>
      </trkpt>
      <trkpt lat="47.55047" lon="-3.10764">
        <time>2018-03-31T14:30:44.000Z</time>
      </trkpt>
      <trkpt lat="47.55051" lon="-3.10763">
        <time>2018-03-31T14:30:45.000Z</time>
      </trkpt>
      <trkpt lat="47.55055" lon="-3.10764">
        <time>2018-03-31T14:30:46.000Z</time>
      </trkpt>
      <trkpt lat="47.5506" lon="-3.10763">
        <time>2018-03-31T14:30:47.000Z</time>
      </trkpt>
      <trkpt lat="47.55065" lon="-3.10762">
        <time>2018-03-31T14:30:48.000Z</time>
      </trkpt>
      <trkpt lat="47.55069" lon="-3.10764">
        <time>2018-03-31T14:30:49.000Z</time>
      </trkpt>
      <trkpt lat="47.55074" lon="-3.10763">
        <time>2018-03-31T14:30:50.000Z</time>
      </trkpt>
      <trkpt lat="47.55078" lon="-3.10763">
        <time>2018-03-31T14:30:51.000Z</time>
      </trkpt>
      <trkpt lat="47.55084" lon="-3.10762">
        <time>2018-03-31T14:30:52.000Z</time>
      </trkpt>
      <trkpt lat="47.55089" lon="-3.10761">
        <time>2018-03-31T14:30:53.000Z</time>
      </trkpt>
      <trkpt lat="47.55095" lon="-3.10759">
        <time>2018-03-31T14:30:54.000Z</time>
      </trkpt>
      <trkpt lat="47.55103" lon="-3.10757">
        <time>2018-03-31T14:30:55.000Z</time>
      </trkpt>
      <trkpt lat="47.5511" lon="-3.10753">
        <time>2018-03-31T14:30:56.000Z</time>
      </trkpt>
      <trkpt lat="47.55117" lon="-3.10749">
        <time>2018-03-31T14:30:57.000Z</time>
      </trkpt>
      <trkpt lat="47.55125" lon="-3.10744">
        <time>2018-03-31T14:30:58.000Z</time>
      </trkpt>
      <trkpt lat="47.55134" lon="-3.1074">
        <time>2018-03-31T14:30:59.000Z</time>
      </trkpt>
      <trkpt lat="47.55143" lon="-3.10736">
        <time>2018-03-31T14:31:00.000Z</time>
      </trkpt>
      <trkpt lat="47.55152" lon="-3.10732">
        <time>2018-03-31T14:31:01.000Z</time>
      </trkpt>
      <trkpt lat="47.55162" lon="-3.10729">
        <time>2018-03-31T14:31:02.000Z</time>
      </trkpt>
      <trkpt lat="47.55171" lon="-3.10729">
        <time>2018-03-31T14:31:03.000Z</time>
      </trkpt>
      <trkpt lat="47.5518" lon="-3.10727">
        <time>2018-03-31T14:31:04.000Z</time>
      </trkpt>
      <trkpt lat="47.5519" lon="-3.10725">
        <time>2018-03-31T14:31:05.000Z</time>
      </trkpt>
      <trkpt lat="47.55199" lon="-3.10723">
        <time>2018-03-31T14:31:06.000Z</time>
      </trkpt>
      <trkpt lat="47.55209" lon="-3.10722">
        <time>2018-03-31T14:31:07.000Z</time>
      </trkpt>
      <trkpt lat="47.5522" lon="-3.10721">
        <time>2018-03-31T14:31:08.000Z</time>
      </trkpt>
      <trkpt lat="47.5523" lon="-3.1072">
        <time>2018-03-31T14:31:09.000Z</time>
      </trkpt>
      <trkpt lat="47.55239" lon="-3.10718">
        <time>2018-03-31T14:31:10.000Z</time>
      </trkpt>
      <trkpt lat="47.55249" lon="-3.10714">
        <time>2018-03-31T14:31:11.000Z</time>
      </trkpt>
      <trkpt lat="47.55259" lon="-3.1071">
        <time>2018-03-31T14:31:12.000Z</time>
      </trkpt>
      <trkpt lat="47.55268" lon="-3.10706">
        <time>2018-03-31T14:31:13.000Z</time>
      </trkpt>
      <trkpt lat="47.55276" lon="-3.10704">
        <time>2018-03-31T14:31:14.000Z</time>
      </trkpt>
      <trkpt lat="47.55284" lon="-3.10702">
        <time>2018-03-31T14:31:15.000Z</time>
      </trkpt>
      <trkpt lat="47.55292" lon="-3.107">
        <time>2018-03-31T14:31:16.000Z</time>
      </trkpt>
      <trkpt lat="47.55301" lon="-3.10697">
        <time>2018-03-31T14:31:17.000Z</time>
      </trkpt>
      <trkpt lat="47.55309" lon="-3.10693">
        <time>2018-03-31T14:31:18.000Z</time>
      </trkpt>
      <trkpt lat="47.55317" lon="-3.10689">
        <time>2018-03-31T14:31:19.000Z</time>
      </trkpt>
      <trkpt lat="47.55325" lon="-3.10686">
        <time>2018-03-31T14:31:20.000Z</time>
      </trkpt>
      <trkpt lat="47.55333" lon="-3.10683">
        <time>2018-03-31T14:31:21.000Z</time>
      </trkpt>
      <trkpt lat="47.55341" lon="-3.10681">
        <time>2018-03-31T14:31:22.000Z</time>
      </trkpt>
      <trkpt lat="47.55349" lon="-3.10678">
        <time>2018-03-31T14:31:23.000Z</time>
      </trkpt>
      <trkpt lat="47.55356" lon="-3.10677">
        <time>2018-03-31T14:31:24.000Z</time>
      </trkpt>
      <trkpt lat="47.55364" lon="-3.10674">
        <time>2018-03-31T14:31:25.000Z</time>
      </trkpt>
      <trkpt lat="47.55372" lon="-3.1067">
        <time>2018-03-31T14:31:26.000Z</time>
      </trkpt>
      <trkpt lat="47.5538" lon="-3.10667">
        <time>2018-03-31T14:31:27.000Z</time>
      </trkpt>
      <trkpt lat="47.55388" lon="-3.10663">
        <time>2018-03-31T14:31:28.000Z</time>
      </trkpt>
      <trkpt lat="47.55397" lon="-3.10659">
        <time>2018-03-31T14:31:29.000Z</time>
      </trkpt>
      <trkpt lat="47.55406" lon="-3.10655">
        <time>2018-03-31T14:31:30.000Z</time>
      </trkpt>
      <trkpt lat="47.55415" lon="-3.10651">
        <time>2018-03-31T14:31:31.000Z</time>
      </trkpt>
      <trkpt lat="47.55424" lon="-3.10646">
        <time>2018-03-31T14:31:32.000Z</time>
      </trkpt>
      <trkpt lat="47.55432" lon="-3.10644">
        <time>2018-03-31T14:31:33.000Z</time>
      </trkpt>
      <trkpt lat="47.5544" lon="-3.10642">
        <time>2018-03-31T14:31:34.000Z</time>
      </trkpt>
      <trkpt lat="47.55449" lon="-3.10642">
        <time>2018-03-31T14:31:35.000Z</time>
      </trkpt>
      <trkpt lat="47.55458" lon="-3.1064">
        <time>2018-03-31T14:31:36.000Z</time>
      </trkpt>
      <trkpt lat="47.55467" lon="-3.10638">
        <time>2018-03-31T14:31:37.000Z</time>
      </trkpt>
      <trkpt lat="47.55474" lon="-3.10637">
        <time>2018-03-31T14:31:38.000Z</time>
      </trkpt>
      <trkpt lat="47.55483" lon="-3.10637">
        <time>2018-03-31T14:31:39.000Z</time>
      </trkpt>
      <trkpt lat="47.55492" lon="-3.10636">
        <time>2018-03-31T14:31:40.000Z</time>
      </trkpt>
      <trkpt lat="47.555" lon="-3.10634">
        <time>2018-03-31T14:31:41.000Z</time>
      </trkpt>
      <trkpt lat="47.55508" lon="-3.10632">
        <time>2018-03-31T14:31:42.000Z</time>
      </trkpt>
      <trkpt lat="47.55518" lon="-3.1063">
        <time>2018-03-31T14:31:43.000Z</time>
      </trkpt>
      <trkpt lat="47.55526" lon="-3.10626">
        <time>2018-03-31T14:31:44.000Z</time>
      </trkpt>
      <trkpt lat="47.55535" lon="-3.10622">
        <time>2018-03-31T14:31:45.000Z</time>
      </trkpt>
      <trkpt lat="47.55543" lon="-3.10619">
        <time>2018-03-31T14:31:46.000Z</time>
      </trkpt>
      <trkpt lat="47.55552" lon="-3.10616">
        <time>2018-03-31T14:31:47.000Z</time>
      </trkpt>
      <trkpt lat="47.5556" lon="-3.10609">
        <time>2018-03-31T14:31:48.000Z</time>
      </trkpt>
      <trkpt lat="47.5557" lon="-3.10605">
        <time>2018-03-31T14:31:49.000Z</time>
      </trkpt>
      <trkpt lat="47.5558" lon="-3.10598">
        <time>2018-03-31T14:31:50.000Z</time>
      </trkpt>
      <trkpt lat="47.55588" lon="-3.10593">
        <time>2018-03-31T14:31:51.000Z</time>
      </trkpt>
      <trkpt lat="47.55598" lon="-3.10586">
        <time>2018-03-31T14:31:52.000Z</time>
      </trkpt>
      <trkpt lat="47.55608" lon="-3.10579">
        <time>2018-03-31T14:31:53.000Z</time>
      </trkpt>
      <trkpt lat="47.55619" lon="-3.10573">
        <time>2018-03-31T14:31:54.000Z</time>
      </trkpt>
      <trkpt lat="47.55629" lon="-3.10565">
        <time>2018-03-31T14:31:55.000Z</time>
      </trkpt>
      <trkpt lat="47.55638" lon="-3.10559">
        <time>2018-03-31T14:31:56.000Z</time>
      </trkpt>
      <trkpt lat="47.55647" lon="-3.10553">
        <time>2018-03-31T14:31:57.000Z</time>
      </trkpt>
      <trkpt lat="47.55656" lon="-3.10549">
        <time>2018-03-31T14:31:58.000Z</time>
      </trkpt>
      <trkpt lat="47.55665" lon="-3.10547">
        <time>2018-03-31T14:31:59.000Z</time>
      </trkpt>
      <trkpt lat="47.55673" lon="-3.10546">
        <time>2018-03-31T14:32:00.000Z</time>
      </trkpt>
      <trkpt lat="47.55682" lon="-3.10544">
        <time>2018-03-31T14:32:01.000Z</time>
      </trkpt>
      <trkpt lat="47.55691" lon="-3.1054">
        <time>2018-03-31T14:32:02.000Z</time>
      </trkpt>
      <trkpt lat="47.55701" lon="-3.10538">
        <time>2018-03-31T14:32:03.000Z</time>
      </trkpt>
      <trkpt lat="47.55711" lon="-3.10541">
        <time>2018-03-31T14:32:04.000Z</time>
      </trkpt>
      <trkpt lat="47.5572" lon="-3.1054">
        <time>2018-03-31T14:32:05.000Z</time>
      </trkpt>
      <trkpt lat="47.55729" lon="-3.10539">
        <time>2018-03-31T14:32:06.000Z</time>
      </trkpt>
      <trkpt lat="47.55739" lon="-3.10539">
        <time>2018-03-31T14:32:07.000Z</time>
      </trkpt>
      <trkpt lat="47.55748" lon="-3.10538">
        <time>2018-03-31T14:32:08.000Z</time>
      </trkpt>
      <trkpt lat="47.55758" lon="-3.10535">
        <time>2018-03-31T14:32:09.000Z</time>
      </trkpt>
      <trkpt lat="47.55767" lon="-3.10533">
        <time>2018-03-31T14:32:10.000Z</time>
      </trkpt>
      <trkpt lat="47.55776" lon="-3.10529">
        <time>2018-03-31T14:32:11.000Z</time>
      </trkpt>
      <trkpt lat="47.55786" lon="-3.10527">
        <time>2018-03-31T14:32:12.000Z</time>
      </trkpt>
      <trkpt lat="47.55796" lon="-3.10522">
        <time>2018-03-31T14:32:13.000Z</time>
      </trkpt>
      <trkpt lat="47.55805" lon="-3.10519">
        <time>2018-03-31T14:32:14.000Z</time>
      </trkpt>
      <trkpt lat="47.55815" lon="-3.10516">
        <time>2018-03-31T14:32:15.000Z</time>
      </trkpt>
      <trkpt lat="47.55825" lon="-3.10513">
        <time>2018-03-31T14:32:16.000Z</time>
      </trkpt>
      <trkpt lat="47.55835" lon="-3.10509">
        <time>2018-03-31T14:32:17.000Z</time>
      </trkpt>
      <trkpt lat="47.55844" lon="-3.10503">
        <time>2018-03-31T14:32:18.000Z</time>
      </trkpt>
      <trkpt lat="47.55853" lon="-3.10494">
        <time>2018-03-31T14:32:19.000Z</time>
      </trkpt>
      <trkpt lat="47.55862" lon="-3.10488">
        <time>2018-03-31T14:32:20.000Z</time>
      </trkpt>
      <trkpt lat="47.55872" lon="-3.1048">
        <time>2018-03-31T14:32:21.000Z</time>
      </trkpt>
      <trkpt lat="47.5588" lon="-3.10474">
        <time>2018-03-31T14:32:22.000Z</time>
      </trkpt>
      <trkpt lat="47.55889" lon="-3.10471">
        <time>2018-03-31T14:32:23.000Z</time>
      </trkpt>
      <trkpt lat="47.55899" lon="-3.10466">
        <time>2018-03-31T14:32:24.000Z</time>
      </trkpt>
      <trkpt lat="47.55909" lon="-3.10463">
        <time>2018-03-31T14:32:25.000Z</time>
      </trkpt>
      <trkpt lat="47.55919" lon="-3.10462">
        <time>2018-03-31T14:32:26.000Z</time>
      </trkpt>
      <trkpt lat="47.5593" lon="-3.10462">
        <time>2018-03-31T14:32:27.000Z</time>
      </trkpt>
      <trkpt lat="47.55939" lon="-3.10462">
        <time>2018-03-31T14:32:28.000Z</time>
      </trkpt>
      <trkpt lat="47.55948" lon="-3.10462">
        <time>2018-03-31T14:32:29.000Z</time>
      </trkpt>
      <trkpt lat="47.55957" lon="-3.10461">
        <time>2018-03-31T14:32:30.000Z</time>
      </trkpt>
      <trkpt lat="47.55966" lon="-3.1046">
        <time>2018-03-31T14:32:31.000Z</time>
      </trkpt>
      <trkpt lat="47.55975" lon="-3.10455">
        <time>2018-03-31T14:32:32.000Z</time>
      </trkpt>
      <trkpt lat="47.55986" lon="-3.10452">
        <time>2018-03-31T14:32:33.000Z</time>
      </trkpt>
      <trkpt lat="47.55996" lon="-3.10447">
        <time>2018-03-31T14:32:34.000Z</time>
      </trkpt>
      <trkpt lat="47.56006" lon="-3.10442">
        <time>2018-03-31T14:32:35.000Z</time>
      </trkpt>
      <trkpt lat="47.56015" lon="-3.10438">
        <time>2018-03-31T14:32:36.000Z</time>
      </trkpt>
      <trkpt lat="47.56024" lon="-3.10433">
        <time>2018-03-31T14:32:37.000Z</time>
      </trkpt>
      <trkpt lat="47.56033" lon="-3.10428">
        <time>2018-03-31T14:32:38.000Z</time>
      </trkpt>
      <trkpt lat="47.56043" lon="-3.10423">
        <time>2018-03-31T14:32:39.000Z</time>
      </trkpt>
      <trkpt lat="47.56052" lon="-3.10417">
        <time>2018-03-31T14:32:40.000Z</time>
      </trkpt>
      <trkpt lat="47.56061" lon="-3.10412">
        <time>2018-03-31T14:32:41.000Z</time>
      </trkpt>
      <trkpt lat="47.5607" lon="-3.10408">
        <time>2018-03-31T14:32:42.000Z</time>
      </trkpt>
      <trkpt lat="47.5608" lon="-3.10402">
        <time>2018-03-31T14:32:43.000Z</time>
      </trkpt>
      <trkpt lat="47.5609" lon="-3.10395">
        <time>2018-03-31T14:32:44.000Z</time>
      </trkpt>
      <trkpt lat="47.56099" lon="-3.10388">
        <time>2018-03-31T14:32:45.000Z</time>
      </trkpt>
      <trkpt lat="47.56109" lon="-3.10381">
        <time>2018-03-31T14:32:46.000Z</time>
      </trkpt>
      <trkpt lat="47.56118" lon="-3.10374">
        <time>2018-03-31T14:32:47.000Z</time>
      </trkpt>
      <trkpt lat="47.56128" lon="-3.1037">
        <time>2018-03-31T14:32:48.000Z</time>
      </trkpt>
      <trkpt lat="47.56138" lon="-3.10366">
        <time>2018-03-31T14:32:49.000Z</time>
      </trkpt>
      <trkpt lat="47.56148" lon="-3.10361">
        <time>2018-03-31T14:32:50.000Z</time>
      </trkpt>
      <trkpt lat="47.56158" lon="-3.10354">
        <time>2018-03-31T14:32:51.000Z</time>
      </trkpt>
      <trkpt lat="47.56168" lon="-3.1035">
        <time>2018-03-31T14:32:52.000Z</time>
      </trkpt>
      <trkpt lat="47.56178" lon="-3.10346">
        <time>2018-03-31T14:32:53.000Z</time>
      </trkpt>
      <trkpt lat="47.56188" lon="-3.10341">
        <time>2018-03-31T14:32:54.000Z</time>
      </trkpt>
      <trkpt lat="47.56198" lon="-3.10335">
        <time>2018-03-31T14:32:55.000Z</time>
      </trkpt>
      <trkpt lat="47.56207" lon="-3.1033">
        <time>2018-03-31T14:32:56.000Z</time>
      </trkpt>
      <trkpt lat="47.56217" lon="-3.10326">
        <time>2018-03-31T14:32:57.000Z</time>
      </trkpt>
      <trkpt lat="47.56228" lon="-3.10316">
        <time>2018-03-31T14:32:58.000Z</time>
      </trkpt>
      <trkpt lat="47.56239" lon="-3.1031">
        <time>2018-03-31T14:32:59.000Z</time>
      </trkpt>
      <trkpt lat="47.56248" lon="-3.10303">
        <time>2018-03-31T14:33:00.000Z</time>
      </trkpt>
      <trkpt lat="47.56257" lon="-3.10299">
        <time>2018-03-31T14:33:01.000Z</time>
      </trkpt>
      <trkpt lat="47.56267" lon="-3.10294">
        <time>2018-03-31T14:33:02.000Z</time>
      </trkpt>
      <trkpt lat="47.56276" lon="-3.1029">
        <time>2018-03-31T14:33:03.000Z</time>
      </trkpt>
      <trkpt lat="47.56287" lon="-3.10288">
        <time>2018-03-31T14:33:04.000Z</time>
      </trkpt>
      <trkpt lat="47.56297" lon="-3.10285">
        <time>2018-03-31T14:33:05.000Z</time>
      </trkpt>
      <trkpt lat="47.56306" lon="-3.10282">
        <time>2018-03-31T14:33:06.000Z</time>
      </trkpt>
      <trkpt lat="47.56316" lon="-3.10278">
        <time>2018-03-31T14:33:07.000Z</time>
      </trkpt>
      <trkpt lat="47.56325" lon="-3.10274">
        <time>2018-03-31T14:33:08.000Z</time>
      </trkpt>
      <trkpt lat="47.56336" lon="-3.10267">
        <time>2018-03-31T14:33:09.000Z</time>
      </trkpt>
      <trkpt lat="47.56345" lon="-3.10264">
        <time>2018-03-31T14:33:10.000Z</time>
      </trkpt>
      <trkpt lat="47.56354" lon="-3.10262">
        <time>2018-03-31T14:33:11.000Z</time>
      </trkpt>
      <trkpt lat="47.56364" lon="-3.10263">
        <time>2018-03-31T14:33:12.000Z</time>
      </trkpt>
      <trkpt lat="47.56373" lon="-3.10265">
        <time>2018-03-31T14:33:13.000Z</time>
      </trkpt>
      <trkpt lat="47.56381" lon="-3.10263">
        <time>2018-03-31T14:33:14.000Z</time>
      </trkpt>
      <trkpt lat="47.5639" lon="-3.1026">
        <time>2018-03-31T14:33:15.000Z</time>
      </trkpt>
      <trkpt lat="47.56399" lon="-3.10258">
        <time>2018-03-31T14:33:16.000Z</time>
      </trkpt>
      <trkpt lat="47.56407" lon="-3.10256">
        <time>2018-03-31T14:33:17.000Z</time>
      </trkpt>
      <trkpt lat="47.56416" lon="-3.10251">
        <time>2018-03-31T14:33:18.000Z</time>
      </trkpt>
      <trkpt lat="47.56426" lon="-3.10245">
        <time>2018-03-31T14:33:19.000Z</time>
      </trkpt>
      <trkpt lat="47.56435" lon="-3.10241">
        <time>2018-03-31T14:33:20.000Z</time>
      </trkpt>
      <trkpt lat="47.56444" lon="-3.10235">
        <time>2018-03-31T14:33:21.000Z</time>
      </trkpt>
      <trkpt lat="47.56454" lon="-3.10231">
        <time>2018-03-31T14:33:22.000Z</time>
      </trkpt>
      <trkpt lat="47.56463" lon="-3.10226">
        <time>2018-03-31T14:33:23.000Z</time>
      </trkpt>
      <trkpt lat="47.56473" lon="-3.1022">
        <time>2018-03-31T14:33:24.000Z</time>
      </trkpt>
      <trkpt lat="47.56482" lon="-3.10218">
        <time>2018-03-31T14:33:25.000Z</time>
      </trkpt>
      <trkpt lat="47.56492" lon="-3.10215">
        <time>2018-03-31T14:33:26.000Z</time>
      </trkpt>
      <trkpt lat="47.56501" lon="-3.10212">
        <time>2018-03-31T14:33:27.000Z</time>
      </trkpt>
      <trkpt lat="47.56511" lon="-3.10208">
        <time>2018-03-31T14:33:28.000Z</time>
      </trkpt>
      <trkpt lat="47.5652" lon="-3.10204">
        <time>2018-03-31T14:33:29.000Z</time>
      </trkpt>
      <trkpt lat="47.56528" lon="-3.10195">
        <time>2018-03-31T14:33:30.000Z</time>
      </trkpt>
      <trkpt lat="47.56537" lon="-3.1019">
        <time>2018-03-31T14:33:31.000Z</time>
      </trkpt>
      <trkpt lat="47.56546" lon="-3.10183">
        <time>2018-03-31T14:33:32.000Z</time>
      </trkpt>
      <trkpt lat="47.56555" lon="-3.10177">
        <time>2018-03-31T14:33:33.000Z</time>
      </trkpt>
      <trkpt lat="47.56565" lon="-3.1017">
        <time>2018-03-31T14:33:34.000Z</time>
      </trkpt>
      <trkpt lat="47.56574" lon="-3.10164">
        <time>2018-03-31T14:33:35.000Z</time>
      </trkpt>
      <trkpt lat="47.56583" lon="-3.10161">
        <time>2018-03-31T14:33:36.000Z</time>
      </trkpt>
      <trkpt lat="47.56592" lon="-3.10156">
        <time>2018-03-31T14:33:37.000Z</time>
      </trkpt>
      <trkpt lat="47.56601" lon="-3.10153">
        <time>2018-03-31T14:33:38.000Z</time>
      </trkpt>
      <trkpt lat="47.56611" lon="-3.10148">
        <time>2018-03-31T14:33:39.000Z</time>
      </trkpt>
      <trkpt lat="47.56621" lon="-3.10144">
        <time>2018-03-31T14:33:40.000Z</time>
      </trkpt>
      <trkpt lat="47.56629" lon="-3.10141">
        <time>2018-03-31T14:33:41.000Z</time>
      </trkpt>
      <trkpt lat="47.56638" lon="-3.10138">
        <time>2018-03-31T14:33:42.000Z</time>
      </trkpt>
      <trkpt lat="47.56647" lon="-3.10136">
        <time>2018-03-31T14:33:43.000Z</time>
      </trkpt>
      <trkpt lat="47.56655" lon="-3.10133">
        <time>2018-03-31T14:33:44.000Z</time>
      </trkpt>
      <trkpt lat="47.56663" lon="-3.10128">
        <time>2018-03-31T14:33:45.000Z</time>
      </trkpt>
      <trkpt lat="47.56672" lon="-3.10125">
        <time>2018-03-31T14:33:46.000Z</time>
      </trkpt>
      <trkpt lat="47.5668" lon="-3.10123">
        <time>2018-03-31T14:33:47.000Z</time>
      </trkpt>
      <trkpt lat="47.56688" lon="-3.10123">
        <time>2018-03-31T14:33:48.000Z</time>
      </trkpt>
      <trkpt lat="47.56696" lon="-3.10122">
        <time>2018-03-31T14:33:49.000Z</time>
      </trkpt>
      <trkpt lat="47.56703" lon="-3.1012">
        <time>2018-03-31T14:33:50.000Z</time>
      </trkpt>
      <trkpt lat="47.56711" lon="-3.10117">
        <time>2018-03-31T14:33:51.000Z</time>
      </trkpt>
      <trkpt lat="47.56719" lon="-3.10114">
        <time>2018-03-31T14:33:52.000Z</time>
      </trkpt>
      <trkpt lat="47.56727" lon="-3.10111">
        <time>2018-03-31T14:33:53.000Z</time>
      </trkpt>
      <trkpt lat="47.56735" lon="-3.10109">
        <time>2018-03-31T14:33:54.000Z</time>
      </trkpt>
      <trkpt lat="47.56744" lon="-3.10106">
        <time>2018-03-31T14:33:55.000Z</time>
      </trkpt>
      <trkpt lat="47.56752" lon="-3.10104">
        <time>2018-03-31T14:33:56.000Z</time>
      </trkpt>
      <trkpt lat="47.5676" lon="-3.101">
        <time>2018-03-31T14:33:57.000Z</time>
      </trkpt>
      <trkpt lat="47.56767" lon="-3.10096">
        <time>2018-03-31T14:33:58.000Z</time>
      </trkpt>
      <trkpt lat="47.56775" lon="-3.1009">
        <time>2018-03-31T14:33:59.000Z</time>
      </trkpt>
      <trkpt lat="47.56784" lon="-3.10083">
        <time>2018-03-31T14:34:00.000Z</time>
      </trkpt>
      <trkpt lat="47.56793" lon="-3.10076">
        <time>2018-03-31T14:34:01.000Z</time>
      </trkpt>
      <trkpt lat="47.56801" lon="-3.10069">
        <time>2018-03-31T14:34:02.000Z</time>
      </trkpt>
      <trkpt lat="47.5681" lon="-3.10062">
        <time>2018-03-31T14:34:03.000Z</time>
      </trkpt>
      <trkpt lat="47.5682" lon="-3.10058">
        <time>2018-03-31T14:34:04.000Z</time>
      </trkpt>
      <trkpt lat="47.56829" lon="-3.10054">
        <time>2018-03-31T14:34:05.000Z</time>
      </trkpt>
      <trkpt lat="47.56838" lon="-3.10052">
        <time>2018-03-31T14:34:06.000Z</time>
      </trkpt>
      <trkpt lat="47.56847" lon="-3.10053">
        <time>2018-03-31T14:34:07.000Z</time>
      </trkpt>
      <trkpt lat="47.56856" lon="-3.10053">
        <time>2018-03-31T14:34:08.000Z</time>
      </trkpt>
      <trkpt lat="47.56866" lon="-3.10052">
        <time>2018-03-31T14:34:09.000Z</time>
      </trkpt>
      <trkpt lat="47.56875" lon="-3.10049">
        <time>2018-03-31T14:34:10.000Z</time>
      </trkpt>
      <trkpt lat="47.56884" lon="-3.10045">
        <time>2018-03-31T14:34:11.000Z</time>
      </trkpt>
      <trkpt lat="47.56892" lon="-3.1004">
        <time>2018-03-31T14:34:12.000Z</time>
      </trkpt>
      <trkpt lat="47.56901" lon="-3.10035">
        <time>2018-03-31T14:34:13.000Z</time>
      </trkpt>
      <trkpt lat="47.56909" lon="-3.1003">
        <time>2018-03-31T14:34:14.000Z</time>
      </trkpt>
      <trkpt lat="47.56917" lon="-3.10026">
        <time>2018-03-31T14:34:15.000Z</time>
      </trkpt>
      <trkpt lat="47.56925" lon="-3.10023">
        <time>2018-03-31T14:34:16.000Z</time>
      </trkpt>
      <trkpt lat="47.56933" lon="-3.1002">
        <time>2018-03-31T14:34:17.000Z</time>
      </trkpt>
      <trkpt lat="47.5694" lon="-3.10017">
        <time>2018-03-31T14:34:18.000Z</time>
      </trkpt>
      <trkpt lat="47.56946" lon="-3.10014">
        <ele>1</ele>
        <time>2018-03-31T14:34:19.000Z</time>
      </trkpt>
      <trkpt lat="47.56952" lon="-3.10012">
        <ele>1</ele>
        <time>2018-03-31T14:34:20.000Z</time>
      </trkpt>
      <trkpt lat="47.56958" lon="-3.10011">
        <ele>1</ele>
        <time>2018-03-31T14:34:21.000Z</time>
      </trkpt>
      <trkpt lat="47.56963" lon="-3.10009">
        <ele>1</ele>
        <time>2018-03-31T14:34:22.000Z</time>
      </trkpt>
      <trkpt lat="47.56967" lon="-3.10008">
        <ele>1</ele>
        <time>2018-03-31T14:34:23.000Z</time>
      </trkpt>
      <trkpt lat="47.56971" lon="-3.10008">
        <ele>1</ele>
        <time>2018-03-31T14:34:24.000Z</time>
      </trkpt>
      <trkpt lat="47.56974" lon="-3.10009">
        <ele>1.2</ele>
        <time>2018-03-31T14:34:25.000Z</time>
      </trkpt>
      <trkpt lat="47.56977" lon="-3.1001">
        <ele>1.5</ele>
        <time>2018-03-31T14:34:26.000Z</time>
      </trkpt>
      <trkpt lat="47.56978" lon="-3.10012">
        <ele>1.5</ele>
        <time>2018-03-31T14:34:27.000Z</time>
      </trkpt>
      <trkpt lat="47.56978" lon="-3.10014">
        <ele>1.6</ele>
        <time>2018-03-31T14:34:28.000Z</time>
      </trkpt>
      <trkpt lat="47.56979" lon="-3.10014">
        <ele>1.6</ele>
        <time>2018-03-31T14:34:29.000Z</time>
      </trkpt>
      <trkpt lat="47.56979" lon="-3.10014">
        <ele>1.6</ele>
        <time>2018-03-31T14:34:30.000Z</time>
      </trkpt>
      <trkpt lat="47.56979" lon="-3.10014">
        <ele>1.6</ele>
        <time>2018-03-31T14:34:31.000Z</time>
      </trkpt>
      <trkpt lat="47.56979" lon="-3.10014">
        <ele>1.6</ele>
        <time>2018-03-31T14:34:32.000Z</time>
      </trkpt>
      <trkpt lat="47.56979" lon="-3.10014">
        <ele>1.6</ele>
        <time>2018-03-31T14:34:33.000Z</time>
      </trkpt>
      <trkpt lat="47.56979" lon="-3.10014">
        <ele>1.6</ele>
        <time>2018-03-31T14:34:34.000Z</time>
      </trkpt>
      <trkpt lat="47.56979" lon="-3.10014">
        <ele>1.6</ele>
        <time>2018-03-31T14:34:35.000Z</time>
      </trkpt>
      <trkpt lat="47.56979" lon="-3.10014">
        <ele>1.6</ele>
        <time>2018-03-31T14:34:36.000Z</time>
      </trkpt>
      <trkpt lat="47.56979" lon="-3.10014">
        <ele>1.6</ele>
        <time>2018-03-31T14:34:37.000Z</time>
      </trkpt>
      <trkpt lat="47.56979" lon="-3.10014">
        <ele>1.6</ele>
        <time>2018-03-31T14:34:38.000Z</time>
      </trkpt>
      <trkpt lat="47.56979" lon="-3.10014">
        <ele>1.6</ele>
        <time>2018-03-31T14:34:39.000Z</time>
      </trkpt>
      <trkpt lat="47.56979" lon="-3.10014">
        <ele>1.6</ele>
        <time>2018-03-31T14:34:40.000Z</time>
      </trkpt>
      <trkpt lat="47.56979" lon="-3.10014">
        <ele>1.6</ele>
        <time>2018-03-31T14:34:41.000Z</time>
      </trkpt>
      <trkpt lat="47.56979" lon="-3.10014">
        <ele>1.6</ele>
        <time>2018-03-31T14:34:42.000Z</time>
      </trkpt>
      <trkpt lat="47.56979" lon="-3.10014">
        <ele>1.6</ele>
        <time>2018-03-31T14:34:43.000Z</time>
      </trkpt>
      <trkpt lat="47.56979" lon="-3.10014">
        <ele>1.6</ele>
        <time>2018-03-31T14:34:44.000Z</time>
      </trkpt>
      <trkpt lat="47.56979" lon="-3.10014">
        <ele>1.6</ele>
        <time>2018-03-31T14:34:45.000Z</time>
      </trkpt>
      <trkpt lat="47.56979" lon="-3.10014">
        <ele>1.6</ele>
        <time>2018-03-31T14:34:46.000Z</time>
      </trkpt>
      <trkpt lat="47.56979" lon="-3.10014">
        <ele>1.6</ele>
        <time>2018-03-31T14:34:47.000Z</time>
      </trkpt>
      <trkpt lat="47.56979" lon="-3.10014">
        <ele>1.6</ele>
        <time>2018-03-31T14:34:48.000Z</time>
      </trkpt>
      <trkpt lat="47.56979" lon="-3.10014">
        <ele>1.6</ele>
        <time>2018-03-31T14:34:49.000Z</time>
      </trkpt>
      <trkpt lat="47.56979" lon="-3.10014">
        <ele>1.6</ele>
        <time>2018-03-31T14:34:50.000Z</time>
      </trkpt>
      <trkpt lat="47.56979" lon="-3.10014">
        <ele>1.6</ele>
        <time>2018-03-31T14:34:51.000Z</time>
      </trkpt>
      <trkpt lat="47.56979" lon="-3.10014">
        <ele>1.6</ele>
        <time>2018-03-31T14:34:52.000Z</time>
      </trkpt>
      <trkpt lat="47.56979" lon="-3.10014">
        <ele>1.6</ele>
        <time>2018-03-31T14:34:53.000Z</time>
      </trkpt>
      <trkpt lat="47.56979" lon="-3.10014">
        <ele>1.6</ele>
        <time>2018-03-31T14:34:54.000Z</time>
      </trkpt>
      <trkpt lat="47.56979" lon="-3.10014">
        <ele>1.6</ele>
        <time>2018-03-31T14:34:55.000Z</time>
      </trkpt>
      <trkpt lat="47.56979" lon="-3.10014">
        <ele>1.6</ele>
        <time>2018-03-31T14:34:56.000Z</time>
      </trkpt>
      <trkpt lat="47.56979" lon="-3.10014">
        <ele>1.6</ele>
        <time>2018-03-31T14:34:57.000Z</time>
      </trkpt>
      <trkpt lat="47.56979" lon="-3.10014">
        <ele>1.6</ele>
        <time>2018-03-31T14:34:58.000Z</time>
      </trkpt>
      <trkpt lat="47.56979" lon="-3.10014">
        <ele>1.6</ele>
        <time>2018-03-31T14:34:59.000Z</time>
      </trkpt>
      <trkpt lat="47.56979" lon="-3.10014">
        <ele>1.6</ele>
        <time>2018-03-31T14:35:00.000Z</time>
      </trkpt>
      <trkpt lat="47.56979" lon="-3.10014">
        <ele>1.6</ele>
        <time>2018-03-31T14:35:01.000Z</time>
      </trkpt>
      <trkpt lat="47.56987" lon="-3.10011">
        <ele>2.4</ele>
        <time>2018-03-31T14:35:02.000Z</time>
      </trkpt>
      <trkpt lat="47.56988" lon="-3.10009">
        <ele>2.5</ele>
        <time>2018-03-31T14:35:03.000Z</time>
      </trkpt>
      <trkpt lat="47.56989" lon="-3.10008">
        <ele>2.7</ele>
        <time>2018-03-31T14:35:04.000Z</time>
      </trkpt>
      <trkpt lat="47.5699" lon="-3.10007">
        <ele>2.8</ele>
        <time>2018-03-31T14:35:05.000Z</time>
      </trkpt>
      <trkpt lat="47.56991" lon="-3.10006">
        <ele>2.9</ele>
        <time>2018-03-31T14:35:06.000Z</time>
      </trkpt>
      <trkpt lat="47.56992" lon="-3.10005">
        <ele>3</ele>
        <time>2018-03-31T14:35:07.000Z</time>
      </trkpt>
      <trkpt lat="47.56993" lon="-3.10004">
        <ele>3.2</ele>
        <time>2018-03-31T14:35:08.000Z</time>
      </trkpt>
      <trkpt lat="47.56994" lon="-3.10003">
        <ele>3.3</ele>
        <time>2018-03-31T14:35:09.000Z</time>
      </trkpt>
      <trkpt lat="47.56995" lon="-3.10002">
        <ele>3.4</ele>
        <time>2018-03-31T14:35:10.000Z</time>
      </trkpt>
      <trkpt lat="47.56996" lon="-3.10002">
        <ele>3.5</ele>
        <time>2018-03-31T14:35:11.000Z</time>
      </trkpt>
      <trkpt lat="47.56996" lon="-3.10002">
        <ele>3.5</ele>
        <time>2018-03-31T14:35:12.000Z</time>
      </trkpt>
      <trkpt lat="47.56996" lon="-3.10002">
        <ele>3.5</ele>
        <time>2018-03-31T14:35:13.000Z</time>
      </trkpt>
      <trkpt lat="47.56996" lon="-3.10002">
        <ele>3.5</ele>
        <time>2018-03-31T14:35:14.000Z</time>
      </trkpt>
      <trkpt lat="47.56996" lon="-3.10002">
        <ele>3.5</ele>
        <time>2018-03-31T14:35:15.000Z</time>
      </trkpt>
      <trkpt lat="47.56996" lon="-3.10002">
        <ele>3.5</ele>
        <time>2018-03-31T14:35:16.000Z</time>
      </trkpt>
      <trkpt lat="47.56996" lon="-3.10002">
        <ele>3.5</ele>
        <time>2018-03-31T14:35:17.000Z</time>
      </trkpt>
      <trkpt lat="47.56996" lon="-3.10002">
        <ele>3.5</ele>
        <time>2018-03-31T14:35:18.000Z</time>
      </trkpt>
      <trkpt lat="47.56996" lon="-3.10002">
        <ele>3.5</ele>
        <time>2018-03-31T14:35:19.000Z</time>
      </trkpt>
      <trkpt lat="47.56996" lon="-3.10002">
        <ele>3.5</ele>
        <time>2018-03-31T14:35:20.000Z</time>
      </trkpt>
      <trkpt lat="47.56996" lon="-3.10002">
        <ele>3.5</ele>
        <time>2018-03-31T14:35:21.000Z</time>
      </trkpt>
      <trkpt lat="47.56996" lon="-3.10002">
        <ele>3.5</ele>
        <time>2018-03-31T14:35:22.000Z</time>
      </trkpt>
      <trkpt lat="47.56996" lon="-3.10002">
        <ele>3.5</ele>
        <time>2018-03-31T14:35:23.000Z</time>
      </trkpt>
      <trkpt lat="47.56996" lon="-3.10002">
        <ele>3.5</ele>
        <time>2018-03-31T14:35:24.000Z</time>
      </trkpt>
      <trkpt lat="47.57" lon="-3.10012">
        <ele>3.5</ele>
        <time>2018-03-31T14:35:25.000Z</time>
      </trkpt>
      <trkpt lat="47.57001" lon="-3.10013">
        <ele>3.6</ele>
        <time>2018-03-31T14:35:26.000Z</time>
      </trkpt>
      <trkpt lat="47.57002" lon="-3.10015">
        <ele>3.7</ele>
        <time>2018-03-31T14:35:27.000Z</time>
      </trkpt>
      <trkpt lat="47.57002" lon="-3.10018">
        <ele>3.5</ele>
        <time>2018-03-31T14:35:28.000Z</time>
      </trkpt>
      <trkpt lat="47.57002" lon="-3.1002">
        <ele>3.5</ele>
        <time>2018-03-31T14:35:29.000Z</time>
      </trkpt>
      <trkpt lat="47.57002" lon="-3.1002">
        <ele>3.5</ele>
        <time>2018-03-31T14:35:30.000Z</time>
      </trkpt>
      <trkpt lat="47.57002" lon="-3.1002">
        <ele>3.5</ele>
        <time>2018-03-31T14:35:31.000Z</time>
      </trkpt>
      <trkpt lat="47.57002" lon="-3.1002">
        <ele>3.5</ele>
        <time>2018-03-31T14:35:32.000Z</time>
      </trkpt>
      <trkpt lat="47.57002" lon="-3.1002">
        <ele>3.5</ele>
        <time>2018-03-31T14:35:33.000Z</time>
      </trkpt>
      <trkpt lat="47.56992" lon="-3.10022">
        <ele>2.6</ele>
        <time>2018-03-31T14:35:34.000Z</time>
      </trkpt>
      <trkpt lat="47.5699" lon="-3.10021">
        <ele>2.4</ele>
        <time>2018-03-31T14:35:35.000Z</time>
      </trkpt>
      <trkpt lat="47.56991" lon="-3.10022">
        <ele>2.5</ele>
        <time>2018-03-31T14:35:36.000Z</time>
      </trkpt>
      <trkpt lat="47.56991" lon="-3.10022">
        <ele>2.5</ele>
        <time>2018-03-31T14:35:37.000Z</time>
      </trkpt>
      <trkpt lat="47.56991" lon="-3.10022">
        <ele>2.5</ele>
        <time>2018-03-31T14:35:38.000Z</time>
      </trkpt>
      <trkpt lat="47.56991" lon="-3.10022">
        <ele>2.5</ele>
        <time>2018-03-31T14:35:39.000Z</time>
      </trkpt>
      <trkpt lat="47.56991" lon="-3.10022">
        <ele>2.5</ele>
        <time>2018-03-31T14:35:40.000Z</time>
      </trkpt>
      <trkpt lat="47.56991" lon="-3.10022">
        <ele>2.5</ele>
        <time>2018-03-31T14:35:41.000Z</time>
      </trkpt>
      <trkpt lat="47.56991" lon="-3.10022">
        <ele>2.5</ele>
        <time>2018-03-31T14:35:42.000Z</time>
      </trkpt>
      <trkpt lat="47.56991" lon="-3.10022">
        <ele>2.5</ele>
        <time>2018-03-31T14:35:43.000Z</time>
      </trkpt>
      <trkpt lat="47.56991" lon="-3.10022">
        <ele>2.5</ele>
        <time>2018-03-31T14:35:44.000Z</time>
      </trkpt>
      <trkpt lat="47.56991" lon="-3.10022">
        <ele>2.5</ele>
        <time>2018-03-31T14:35:45.000Z</time>
      </trkpt>
      <trkpt lat="47.56991" lon="-3.10022">
        <ele>2.5</ele>
        <time>2018-03-31T14:35:46.000Z</time>
      </trkpt>
      <trkpt lat="47.56991" lon="-3.10022">
        <ele>2.5</ele>
        <time>2018-03-31T14:35:47.000Z</time>
      </trkpt>
      <trkpt lat="47.56991" lon="-3.10022">
        <ele>2.5</ele>
        <time>2018-03-31T14:35:48.000Z</time>
      </trkpt>
      <trkpt lat="47.56991" lon="-3.10022">
        <ele>2.5</ele>
        <time>2018-03-31T14:35:49.000Z</time>
      </trkpt>
      <trkpt lat="47.56991" lon="-3.10022">
        <ele>2.5</ele>
        <time>2018-03-31T14:35:50.000Z</time>
      </trkpt>
      <trkpt lat="47.56991" lon="-3.10022">
        <ele>2.5</ele>
        <time>2018-03-31T14:35:51.000Z</time>
      </trkpt>
      <trkpt lat="47.56991" lon="-3.10022">
        <ele>2.5</ele>
        <time>2018-03-31T14:35:52.000Z</time>
      </trkpt>
      <trkpt lat="47.56991" lon="-3.10022">
        <ele>2.5</ele>
        <time>2018-03-31T14:35:53.000Z</time>
      </trkpt>
      <trkpt lat="47.56991" lon="-3.10022">
        <ele>2.5</ele>
        <time>2018-03-31T14:35:54.000Z</time>
      </trkpt>
      <trkpt lat="47.56991" lon="-3.10022">
        <ele>2.5</ele>
        <time>2018-03-31T14:35:55.000Z</time>
      </trkpt>
      <trkpt lat="47.56991" lon="-3.10022">
        <ele>2.5</ele>
        <time>2018-03-31T14:35:56.000Z</time>
      </trkpt>
      <trkpt lat="47.56991" lon="-3.10022">
        <ele>2.5</ele>
        <time>2018-03-31T14:35:57.000Z</time>
      </trkpt>
      <trkpt lat="47.56991" lon="-3.10022">
        <ele>2.5</ele>
        <time>2018-03-31T14:35:58.000Z</time>
      </trkpt>
      <trkpt lat="47.56991" lon="-3.10022">
        <ele>2.5</ele>
        <time>2018-03-31T14:35:59.000Z</time>
      </trkpt>
      <trkpt lat="47.56991" lon="-3.10022">
        <ele>2.5</ele>
        <time>2018-03-31T14:36:00.000Z</time>
      </trkpt>
      <trkpt lat="47.56991" lon="-3.10022">
        <ele>2.5</ele>
        <time>2018-03-31T14:36:01.000Z</time>
      </trkpt>
      <trkpt lat="47.56991" lon="-3.10022">
        <ele>2.5</ele>
        <time>2018-03-31T14:36:02.000Z</time>
      </trkpt>
      <trkpt lat="47.56991" lon="-3.10022">
        <ele>2.5</ele>
        <time>2018-03-31T14:36:03.000Z</time>
      </trkpt>
      <trkpt lat="47.56991" lon="-3.10022">
        <ele>2.5</ele>
        <time>2018-03-31T14:36:04.000Z</time>
      </trkpt>
      <trkpt lat="47.56991" lon="-3.10022">
        <ele>2.5</ele>
        <time>2018-03-31T14:36:05.000Z</time>
      </trkpt>
      <trkpt lat="47.56991" lon="-3.10022">
        <ele>2.5</ele>
        <time>2018-03-31T14:36:06.000Z</time>
      </trkpt>
      <trkpt lat="47.56991" lon="-3.10022">
        <ele>2.5</ele>
        <time>2018-03-31T14:36:07.000Z</time>
      </trkpt>
      <trkpt lat="47.56991" lon="-3.10022">
        <ele>2.5</ele>
        <time>2018-03-31T14:36:08.000Z</time>
      </trkpt>
      <trkpt lat="47.56991" lon="-3.10022">
        <ele>2.5</ele>
        <time>2018-03-31T14:36:09.000Z</time>
      </trkpt>
      <trkpt lat="47.56991" lon="-3.10022">
        <ele>2.5</ele>
        <time>2018-03-31T14:36:10.000Z</time>
      </trkpt>
      <trkpt lat="47.56991" lon="-3.10022">
        <ele>2.5</ele>
        <time>2018-03-31T14:36:11.000Z</time>
      </trkpt>
      <trkpt lat="47.56991" lon="-3.10022">
        <ele>2.5</ele>
        <time>2018-03-31T14:36:12.000Z</time>
      </trkpt>
      <trkpt lat="47.56991" lon="-3.10022">
        <ele>2.5</ele>
        <time>2018-03-31T14:36:13.000Z</time>
      </trkpt>
      <trkpt lat="47.56991" lon="-3.10022">
        <ele>2.5</ele>
        <time>2018-03-31T14:36:14.000Z</time>
      </trkpt>
      <trkpt lat="47.56991" lon="-3.10022">
        <ele>2.5</ele>
        <time>2018-03-31T14:36:15.000Z</time>
      </trkpt>
      <trkpt lat="47.56991" lon="-3.10022">
        <ele>2.5</ele>
        <time>2018-03-31T14:36:16.000Z</time>
      </trkpt>
      <trkpt lat="47.56991" lon="-3.10022">
        <ele>2.5</ele>
        <time>2018-03-31T14:36:17.000Z</time>
      </trkpt>
      <trkpt lat="47.56991" lon="-3.10022">
        <ele>2.5</ele>
        <time>2018-03-31T14:36:18.000Z</time>
      </trkpt>
      <trkpt lat="47.56991" lon="-3.10022">
        <ele>2.5</ele>
        <time>2018-03-31T14:36:19.000Z</time>
      </trkpt>
      <trkpt lat="47.56991" lon="-3.10022">
        <ele>2.5</ele>
        <time>2018-03-31T14:36:20.000Z</time>
      </trkpt>
      <trkpt lat="47.57" lon="-3.10024">
        <ele>3.2</ele>
        <time>2018-03-31T14:36:21.000Z</time>
      </trkpt>
      <trkpt lat="47.57" lon="-3.10023">
        <ele>3.2</ele>
        <time>2018-03-31T14:36:22.000Z</time>
      </trkpt>
      <trkpt lat="47.57001" lon="-3.10023">
        <ele>3.2</ele>
        <time>2018-03-31T14:36:23.000Z</time>
      </trkpt>
      <trkpt lat="47.57001" lon="-3.10023">
        <ele>3.3</ele>
        <time>2018-03-31T14:36:24.000Z</time>
      </trkpt>
      <trkpt lat="47.57001" lon="-3.10023">
        <ele>3.3</ele>
        <time>2018-03-31T14:36:25.000Z</time>
      </trkpt>
      <trkpt lat="47.57001" lon="-3.10023">
        <ele>3.3</ele>
        <time>2018-03-31T14:36:26.000Z</time>
      </trkpt>
      <trkpt lat="47.57001" lon="-3.10023">
        <ele>3.3</ele>
        <time>2018-03-31T14:36:27.000Z</time>
      </trkpt>
      <trkpt lat="47.57001" lon="-3.10023">
        <ele>3.3</ele>
        <time>2018-03-31T14:36:28.000Z</time>
      </trkpt>
      <trkpt lat="47.57001" lon="-3.10023">
        <ele>3.3</ele>
        <time>2018-03-31T14:36:29.000Z</time>
      </trkpt>
      <trkpt lat="47.57001" lon="-3.10023">
        <ele>3.3</ele>
        <time>2018-03-31T14:36:30.000Z</time>
      </trkpt>
      <trkpt lat="47.57001" lon="-3.10023">
        <ele>3.3</ele>
        <time>2018-03-31T14:36:31.000Z</time>
      </trkpt>
      <trkpt lat="47.57001" lon="-3.10023">
        <ele>3.3</ele>
        <time>2018-03-31T14:36:32.000Z</time>
      </trkpt>
      <trkpt lat="47.57001" lon="-3.10023">
        <ele>3.3</ele>
        <time>2018-03-31T14:36:33.000Z</time>
      </trkpt>
      <trkpt lat="47.57001" lon="-3.10023">
        <ele>3.3</ele>
        <time>2018-03-31T14:36:34.000Z</time>
      </trkpt>
      <trkpt lat="47.57001" lon="-3.10023">
        <ele>3.3</ele>
        <time>2018-03-31T14:36:35.000Z</time>
      </trkpt>
      <trkpt lat="47.57001" lon="-3.10023">
        <ele>3.3</ele>
        <time>2018-03-31T14:36:36.000Z</time>
      </trkpt>
      <trkpt lat="47.57001" lon="-3.10023">
        <ele>3.3</ele>
        <time>2018-03-31T14:36:37.000Z</time>
      </trkpt>
      <trkpt lat="47.57001" lon="-3.10023">
        <ele>3.3</ele>
        <time>2018-03-31T14:36:38.000Z</time>
      </trkpt>
      <trkpt lat="47.57001" lon="-3.10023">
        <ele>3.3</ele>
        <time>2018-03-31T14:36:39.000Z</time>
      </trkpt>
      <trkpt lat="47.57001" lon="-3.10023">
        <ele>3.3</ele>
        <time>2018-03-31T14:36:40.000Z</time>
      </trkpt>
      <trkpt lat="47.57001" lon="-3.10023">
        <ele>3.3</ele>
        <time>2018-03-31T14:36:41.000Z</time>
      </trkpt>
      <trkpt lat="47.57001" lon="-3.10023">
        <ele>3.3</ele>
        <time>2018-03-31T14:36:42.000Z</time>
      </trkpt>
      <trkpt lat="47.57001" lon="-3.10023">
        <ele>3.3</ele>
        <time>2018-03-31T14:36:43.000Z</time>
      </trkpt>
      <trkpt lat="47.57001" lon="-3.10023">
        <ele>3.3</ele>
        <time>2018-03-31T14:36:44.000Z</time>
      </trkpt>
      <trkpt lat="47.57001" lon="-3.10023">
        <ele>3.3</ele>
        <time>2018-03-31T14:36:45.000Z</time>
      </trkpt>
      <trkpt lat="47.57001" lon="-3.10023">
        <ele>3.3</ele>
        <time>2018-03-31T14:36:46.000Z</time>
      </trkpt>
      <trkpt lat="47.57001" lon="-3.10023">
        <ele>3.3</ele>
        <time>2018-03-31T14:36:47.000Z</time>
      </trkpt>
      <trkpt lat="47.57001" lon="-3.10023">
        <ele>3.3</ele>
        <time>2018-03-31T14:36:48.000Z</time>
      </trkpt>
      <trkpt lat="47.57001" lon="-3.10023">
        <ele>3.3</ele>
        <time>2018-03-31T14:36:49.000Z</time>
      </trkpt>
      <trkpt lat="47.57001" lon="-3.10023">
        <ele>3.3</ele>
        <time>2018-03-31T14:36:50.000Z</time>
      </trkpt>
      <trkpt lat="47.57001" lon="-3.10023">
        <ele>3.3</ele>
        <time>2018-03-31T14:36:51.000Z</time>
      </trkpt>
      <trkpt lat="47.57001" lon="-3.10023">
        <ele>3.3</ele>
        <time>2018-03-31T14:36:52.000Z</time>
      </trkpt>
      <trkpt lat="47.57001" lon="-3.10023">
        <ele>3.3</ele>
        <time>2018-03-31T14:36:53.000Z</time>
      </trkpt>
      <trkpt lat="47.57001" lon="-3.10023">
        <ele>3.3</ele>
        <time>2018-03-31T14:36:54.000Z</time>
      </trkpt>
      <trkpt lat="47.57001" lon="-3.10023">
        <ele>3.3</ele>
        <time>2018-03-31T14:36:55.000Z</time>
      </trkpt>
      <trkpt lat="47.57001" lon="-3.10023">
        <ele>3.3</ele>
        <time>2018-03-31T14:36:56.000Z</time>
      </trkpt>
      <trkpt lat="47.57001" lon="-3.10023">
        <ele>3.3</ele>
        <time>2018-03-31T14:36:57.000Z</time>
      </trkpt>
      <trkpt lat="47.57001" lon="-3.10023">
        <ele>3.3</ele>
        <time>2018-03-31T14:36:58.000Z</time>
      </trkpt>
      <trkpt lat="47.57001" lon="-3.10023">
        <ele>3.3</ele>
        <time>2018-03-31T14:36:59.000Z</time>
      </trkpt>
      <trkpt lat="47.57001" lon="-3.10023">
        <ele>3.3</ele>
        <time>2018-03-31T14:37:00.000Z</time>
      </trkpt>
      <trkpt lat="47.57009" lon="-3.10015">
        <ele>4.2</ele>
        <time>2018-03-31T14:37:01.000Z</time>
      </trkpt>
      <trkpt lat="47.57009" lon="-3.10015">
        <ele>4.3</ele>
        <time>2018-03-31T14:37:02.000Z</time>
      </trkpt>
      <trkpt lat="47.57009" lon="-3.10015">
        <ele>4.3</ele>
        <time>2018-03-31T14:37:03.000Z</time>
      </trkpt>
      <trkpt lat="47.57009" lon="-3.10016">
        <ele>4.3</ele>
        <time>2018-03-31T14:37:04.000Z</time>
      </trkpt>
      <trkpt lat="47.57009" lon="-3.10016">
        <ele>4.3</ele>
        <time>2018-03-31T14:37:05.000Z</time>
      </trkpt>
      <trkpt lat="47.57009" lon="-3.10016">
        <ele>4.3</ele>
        <time>2018-03-31T14:37:06.000Z</time>
      </trkpt>
      <trkpt lat="47.57009" lon="-3.10016">
        <ele>4.3</ele>
        <time>2018-03-31T14:37:07.000Z</time>
      </trkpt>
      <trkpt lat="47.57009" lon="-3.10016">
        <ele>4.3</ele>
        <time>2018-03-31T14:37:08.000Z</time>
      </trkpt>
      <trkpt lat="47.57009" lon="-3.10016">
        <ele>4.3</ele>
        <time>2018-03-31T14:37:09.000Z</time>
      </trkpt>
      <trkpt lat="47.57009" lon="-3.10016">
        <ele>4.3</ele>
        <time>2018-03-31T14:37:10.000Z</time>
      </trkpt>
      <trkpt lat="47.57009" lon="-3.10016">
        <ele>4.3</ele>
        <time>2018-03-31T14:37:11.000Z</time>
      </trkpt>
      <trkpt lat="47.57009" lon="-3.10016">
        <ele>4.3</ele>
        <time>2018-03-31T14:37:12.000Z</time>
      </trkpt>
      <trkpt lat="47.57009" lon="-3.10016">
        <ele>4.3</ele>
        <time>2018-03-31T14:37:13.000Z</time>
      </trkpt>
      <trkpt lat="47.57009" lon="-3.10016">
        <ele>4.3</ele>
        <time>2018-03-31T14:37:14.000Z</time>
      </trkpt>
      <trkpt lat="47.57009" lon="-3.10016">
        <ele>4.3</ele>
        <time>2018-03-31T14:37:15.000Z</time>
      </trkpt>
      <trkpt lat="47.57009" lon="-3.10016">
        <ele>4.3</ele>
        <time>2018-03-31T14:37:16.000Z</time>
      </trkpt>
      <trkpt lat="47.57009" lon="-3.10016">
        <ele>4.3</ele>
        <time>2018-03-31T14:37:17.000Z</time>
      </trkpt>
      <trkpt lat="47.57009" lon="-3.10016">
        <ele>4.3</ele>
        <time>2018-03-31T14:37:18.000Z</time>
      </trkpt>
      <trkpt lat="47.57009" lon="-3.10016">
        <ele>4.3</ele>
        <time>2018-03-31T14:37:19.000Z</time>
      </trkpt>
      <trkpt lat="47.57009" lon="-3.10016">
        <ele>4.3</ele>
        <time>2018-03-31T14:37:20.000Z</time>
      </trkpt>
      <trkpt lat="47.57009" lon="-3.10016">
        <ele>4.3</ele>
        <time>2018-03-31T14:37:21.000Z</time>
      </trkpt>
      <trkpt lat="47.57009" lon="-3.10016">
        <ele>4.3</ele>
        <time>2018-03-31T14:37:22.000Z</time>
      </trkpt>
      <trkpt lat="47.57009" lon="-3.10016">
        <ele>4.3</ele>
        <time>2018-03-31T14:37:23.000Z</time>
      </trkpt>
      <trkpt lat="47.57009" lon="-3.10016">
        <ele>4.3</ele>
        <time>2018-03-31T14:37:24.000Z</time>
      </trkpt>
      <trkpt lat="47.57009" lon="-3.10016">
        <ele>4.3</ele>
        <time>2018-03-31T14:37:25.000Z</time>
      </trkpt>
      <trkpt lat="47.57009" lon="-3.10016">
        <ele>4.3</ele>
        <time>2018-03-31T14:37:26.000Z</time>
      </trkpt>
      <trkpt lat="47.57009" lon="-3.10016">
        <ele>4.3</ele>
        <time>2018-03-31T14:37:27.000Z</time>
      </trkpt>
      <trkpt lat="47.57009" lon="-3.10016">
        <ele>4.3</ele>
        <time>2018-03-31T14:37:28.000Z</time>
      </trkpt>
      <trkpt lat="47.57009" lon="-3.10016">
        <ele>4.3</ele>
        <time>2018-03-31T14:37:29.000Z</time>
      </trkpt>
      <trkpt lat="47.57009" lon="-3.10016">
        <ele>4.3</ele>
        <time>2018-03-31T14:37:30.000Z</time>
      </trkpt>
      <trkpt lat="47.57009" lon="-3.10016">
        <ele>4.3</ele>
        <time>2018-03-31T14:37:31.000Z</time>
      </trkpt>
      <trkpt lat="47.57003" lon="-3.1002">
        <ele>3.6</ele>
        <time>2018-03-31T14:37:32.000Z</time>
      </trkpt>
      <trkpt lat="47.57003" lon="-3.1002">
        <ele>3.6</ele>
        <time>2018-03-31T14:37:33.000Z</time>
      </trkpt>
      <trkpt lat="47.57003" lon="-3.10021">
        <ele>3.5</ele>
        <time>2018-03-31T14:37:34.000Z</time>
      </trkpt>
      <trkpt lat="47.57002" lon="-3.10022">
        <ele>3.4</ele>
        <time>2018-03-31T14:37:35.000Z</time>
      </trkpt>
      <trkpt lat="47.57001" lon="-3.10022">
        <ele>3.3</ele>
        <time>2018-03-31T14:37:36.000Z</time>
      </trkpt>
      <trkpt lat="47.57001" lon="-3.10022">
        <ele>3.3</ele>
        <time>2018-03-31T14:37:37.000Z</time>
      </trkpt>
      <trkpt lat="47.57001" lon="-3.10022">
        <ele>3.3</ele>
        <time>2018-03-31T14:37:38.000Z</time>
      </trkpt>
      <trkpt lat="47.57" lon="-3.10023">
        <ele>3.2</ele>
        <time>2018-03-31T14:37:39.000Z</time>
      </trkpt>
      <trkpt lat="47.57" lon="-3.10023">
        <ele>3.1</ele>
        <time>2018-03-31T14:37:40.000Z</time>
      </trkpt>
      <trkpt lat="47.57" lon="-3.10023">
        <ele>3.1</ele>
        <time>2018-03-31T14:37:41.000Z</time>
      </trkpt>
      <trkpt lat="47.57" lon="-3.10023">
        <ele>3.1</ele>
        <time>2018-03-31T14:37:42.000Z</time>
      </trkpt>
      <trkpt lat="47.57" lon="-3.10023">
        <ele>3.1</ele>
        <time>2018-03-31T14:37:43.000Z</time>
      </trkpt>
      <trkpt lat="47.57" lon="-3.10023">
        <ele>3.1</ele>
        <time>2018-03-31T14:37:44.000Z</time>
      </trkpt>
      <trkpt lat="47.56996" lon="-3.10025">
        <ele>2.8</ele>
        <time>2018-03-31T14:37:45.000Z</time>
      </trkpt>
      <trkpt lat="47.56996" lon="-3.10024">
        <ele>2.8</ele>
        <time>2018-03-31T14:37:46.000Z</time>
      </trkpt>
      <trkpt lat="47.56994" lon="-3.10023">
        <ele>2.7</ele>
        <time>2018-03-31T14:37:47.000Z</time>
      </trkpt>
      <trkpt lat="47.56994" lon="-3.10023">
        <ele>2.7</ele>
        <time>2018-03-31T14:37:48.000Z</time>
      </trkpt>
      <trkpt lat="47.56994" lon="-3.10023">
        <ele>2.7</ele>
        <time>2018-03-31T14:37:49.000Z</time>
      </trkpt>
      <trkpt lat="47.56994" lon="-3.10023">
        <ele>2.7</ele>
        <time>2018-03-31T14:37:50.000Z</time>
      </trkpt>
      <trkpt lat="47.56994" lon="-3.10023">
        <ele>2.7</ele>
        <time>2018-03-31T14:37:51.000Z</time>
      </trkpt>
      <trkpt lat="47.56994" lon="-3.10023">
        <ele>2.7</ele>
        <time>2018-03-31T14:37:52.000Z</time>
      </trkpt>
      <trkpt lat="47.56994" lon="-3.10023">
        <ele>2.7</ele>
        <time>2018-03-31T14:37:53.000Z</time>
      </trkpt>
      <trkpt lat="47.56994" lon="-3.10023">
        <ele>2.7</ele>
        <time>2018-03-31T14:37:54.000Z</time>
      </trkpt>
      <trkpt lat="47.56991" lon="-3.10017">
        <ele>2.6</ele>
        <time>2018-03-31T14:37:55.000Z</time>
      </trkpt>
      <trkpt lat="47.5699" lon="-3.10016">
        <ele>2.6</ele>
        <time>2018-03-31T14:37:56.000Z</time>
      </trkpt>
      <trkpt lat="47.5699" lon="-3.10015">
        <ele>2.6</ele>
        <time>2018-03-31T14:37:57.000Z</time>
      </trkpt>
      <trkpt lat="47.56989" lon="-3.10016">
        <ele>2.5</ele>
        <time>2018-03-31T14:37:58.000Z</time>
      </trkpt>
      <trkpt lat="47.56989" lon="-3.10015">
        <ele>2.5</ele>
        <time>2018-03-31T14:37:59.000Z</time>
      </trkpt>
      <trkpt lat="47.56989" lon="-3.10014">
        <ele>2.5</ele>
        <time>2018-03-31T14:38:00.000Z</time>
      </trkpt>
      <trkpt lat="47.56989" lon="-3.10013">
        <ele>2.6</ele>
        <time>2018-03-31T14:38:01.000Z</time>
      </trkpt>
      <trkpt lat="47.56989" lon="-3.10013">
        <ele>2.6</ele>
        <time>2018-03-31T14:38:02.000Z</time>
      </trkpt>
      <trkpt lat="47.56989" lon="-3.10013">
        <ele>2.6</ele>
        <time>2018-03-31T14:38:03.000Z</time>
      </trkpt>
      <trkpt lat="47.56989" lon="-3.10013">
        <ele>2.6</ele>
        <time>2018-03-31T14:38:04.000Z</time>
      </trkpt>
      <trkpt lat="47.56989" lon="-3.10013">
        <ele>2.6</ele>
        <time>2018-03-31T14:38:05.000Z</time>
      </trkpt>
      <trkpt lat="47.56989" lon="-3.10013">
        <ele>2.6</ele>
        <time>2018-03-31T14:38:06.000Z</time>
      </trkpt>
      <trkpt lat="47.56989" lon="-3.10013">
        <ele>2.6</ele>
        <time>2018-03-31T14:38:07.000Z</time>
      </trkpt>
      <trkpt lat="47.56989" lon="-3.10013">
        <ele>2.6</ele>
        <time>2018-03-31T14:38:08.000Z</time>
      </trkpt>
      <trkpt lat="47.56989" lon="-3.10013">
        <ele>2.6</ele>
        <time>2018-03-31T14:38:09.000Z</time>
      </trkpt>
      <trkpt lat="47.56989" lon="-3.10013">
        <ele>2.6</ele>
        <time>2018-03-31T14:38:10.000Z</time>
      </trkpt>
      <trkpt lat="47.56989" lon="-3.10013">
        <ele>2.6</ele>
        <time>2018-03-31T14:38:11.000Z</time>
      </trkpt>
      <trkpt lat="47.56998" lon="-3.10017">
        <ele>3.2</ele>
        <time>2018-03-31T14:38:12.000Z</time>
      </trkpt>
      <trkpt lat="47.56999" lon="-3.10017">
        <ele>3.3</ele>
        <time>2018-03-31T14:38:13.000Z</time>
      </trkpt>
      <trkpt lat="47.57" lon="-3.10018">
        <ele>3.4</ele>
        <time>2018-03-31T14:38:14.000Z</time>
      </trkpt>
      <trkpt lat="47.57001" lon="-3.10018">
        <ele>3.4</ele>
        <time>2018-03-31T14:38:15.000Z</time>
      </trkpt>
      <trkpt lat="47.57001" lon="-3.10018">
        <ele>3.4</ele>
        <time>2018-03-31T14:38:16.000Z</time>
      </trkpt>
      <trkpt lat="47.57001" lon="-3.10018">
        <ele>3.4</ele>
        <time>2018-03-31T14:38:17.000Z</time>
      </trkpt>
      <trkpt lat="47.57001" lon="-3.10018">
        <ele>3.4</ele>
        <time>2018-03-31T14:38:18.000Z</time>
      </trkpt>
      <trkpt lat="47.57001" lon="-3.10018">
        <ele>3.4</ele>
        <time>2018-03-31T14:38:19.000Z</time>
      </trkpt>
      <trkpt lat="47.57001" lon="-3.10018">
        <ele>3.4</ele>
        <time>2018-03-31T14:38:20.000Z</time>
      </trkpt>
      <trkpt lat="47.57001" lon="-3.10018">
        <ele>3.4</ele>
        <time>2018-03-31T14:38:21.000Z</time>
      </trkpt>
      <trkpt lat="47.57001" lon="-3.10018">
        <ele>3.4</ele>
        <time>2018-03-31T14:38:22.000Z</time>
      </trkpt>
      <trkpt lat="47.57001" lon="-3.10018">
        <ele>3.4</ele>
        <time>2018-03-31T14:38:23.000Z</time>
      </trkpt>
      <trkpt lat="47.57001" lon="-3.10018">
        <ele>3.4</ele>
        <time>2018-03-31T14:38:24.000Z</time>
      </trkpt>
      <trkpt lat="47.57001" lon="-3.10018">
        <ele>3.4</ele>
        <time>2018-03-31T14:38:25.000Z</time>
      </trkpt>
      <trkpt lat="47.57001" lon="-3.10018">
        <ele>3.4</ele>
        <time>2018-03-31T14:38:26.000Z</time>
      </trkpt>
      <trkpt lat="47.57001" lon="-3.10018">
        <ele>3.4</ele>
        <time>2018-03-31T14:38:27.000Z</time>
      </trkpt>
      <trkpt lat="47.57001" lon="-3.10018">
        <ele>3.4</ele>
        <time>2018-03-31T14:38:28.000Z</time>
      </trkpt>
      <trkpt lat="47.57001" lon="-3.10018">
        <ele>3.4</ele>
        <time>2018-03-31T14:38:29.000Z</time>
      </trkpt>
      <trkpt lat="47.57001" lon="-3.10018">
        <ele>3.4</ele>
        <time>2018-03-31T14:38:30.000Z</time>
      </trkpt>
      <trkpt lat="47.57001" lon="-3.10018">
        <ele>3.4</ele>
        <time>2018-03-31T14:38:31.000Z</time>
      </trkpt>
      <trkpt lat="47.57001" lon="-3.10018">
        <ele>3.4</ele>
        <time>2018-03-31T14:38:32.000Z</time>
      </trkpt>
      <trkpt lat="47.57001" lon="-3.10018">
        <ele>3.4</ele>
        <time>2018-03-31T14:38:33.000Z</time>
      </trkpt>
      <trkpt lat="47.57001" lon="-3.10018">
        <ele>3.4</ele>
        <time>2018-03-31T14:38:34.000Z</time>
      </trkpt>
      <trkpt lat="47.57001" lon="-3.10018">
        <ele>3.4</ele>
        <time>2018-03-31T14:38:35.000Z</time>
      </trkpt>
      <trkpt lat="47.57001" lon="-3.10018">
        <ele>3.4</ele>
        <time>2018-03-31T14:38:36.000Z</time>
      </trkpt>
      <trkpt lat="47.57001" lon="-3.10018">
        <ele>3.4</ele>
        <time>2018-03-31T14:38:37.000Z</time>
      </trkpt>
      <trkpt lat="47.57001" lon="-3.10018">
        <ele>3.4</ele>
        <time>2018-03-31T14:38:38.000Z</time>
      </trkpt>
      <trkpt lat="47.57001" lon="-3.10018">
        <ele>3.4</ele>
        <time>2018-03-31T14:38:39.000Z</time>
      </trkpt>
      <trkpt lat="47.57001" lon="-3.10018">
        <ele>3.4</ele>
        <time>2018-03-31T14:38:40.000Z</time>
      </trkpt>
      <trkpt lat="47.57001" lon="-3.10018">
        <ele>3.4</ele>
        <time>2018-03-31T14:38:41.000Z</time>
      </trkpt>
      <trkpt lat="47.57001" lon="-3.10018">
        <ele>3.4</ele>
        <time>2018-03-31T14:38:42.000Z</time>
      </trkpt>
      <trkpt lat="47.57001" lon="-3.10018">
        <ele>3.4</ele>
        <time>2018-03-31T14:38:43.000Z</time>
      </trkpt>
      <trkpt lat="47.57001" lon="-3.10018">
        <ele>3.4</ele>
        <time>2018-03-31T14:38:44.000Z</time>
      </trkpt>
      <trkpt lat="47.57001" lon="-3.10018">
        <ele>3.4</ele>
        <time>2018-03-31T14:38:45.000Z</time>
      </trkpt>
      <trkpt lat="47.57001" lon="-3.10018">
        <ele>3.4</ele>
        <time>2018-03-31T14:38:46.000Z</time>
      </trkpt>
      <trkpt lat="47.57001" lon="-3.10018">
        <ele>3.4</ele>
        <time>2018-03-31T14:38:47.000Z</time>
      </trkpt>
      <trkpt lat="47.57001" lon="-3.10018">
        <ele>3.4</ele>
        <time>2018-03-31T14:38:48.000Z</time>
      </trkpt>
      <trkpt lat="47.57001" lon="-3.10018">
        <ele>3.4</ele>
        <time>2018-03-31T14:38:49.000Z</time>
      </trkpt>
      <trkpt lat="47.57001" lon="-3.10018">
        <ele>3.4</ele>
        <time>2018-03-31T14:38:50.000Z</time>
      </trkpt>
      <trkpt lat="47.57001" lon="-3.10018">
        <ele>3.4</ele>
        <time>2018-03-31T14:38:51.000Z</time>
      </trkpt>
      <trkpt lat="47.57001" lon="-3.10018">
        <ele>3.4</ele>
        <time>2018-03-31T14:38:52.000Z</time>
      </trkpt>
      <trkpt lat="47.57001" lon="-3.10018">
        <ele>3.4</ele>
        <time>2018-03-31T14:38:53.000Z</time>
      </trkpt>
      <trkpt lat="47.57001" lon="-3.10018">
        <ele>3.4</ele>
        <time>2018-03-31T14:38:54.000Z</time>
      </trkpt>
      <trkpt lat="47.57001" lon="-3.10018">
        <ele>3.4</ele>
        <time>2018-03-31T14:38:55.000Z</time>
      </trkpt>
      <trkpt lat="47.57001" lon="-3.10018">
        <ele>3.4</ele>
        <time>2018-03-31T14:38:56.000Z</time>
      </trkpt>
      <trkpt lat="47.57001" lon="-3.10018">
        <ele>3.4</ele>
        <time>2018-03-31T14:38:57.000Z</time>
      </trkpt>
      <trkpt lat="47.57001" lon="-3.10018">
        <ele>3.4</ele>
        <time>2018-03-31T14:38:58.000Z</time>
      </trkpt>
      <trkpt lat="47.57008" lon="-3.1001">
        <ele>4.3</ele>
        <time>2018-03-31T14:38:59.000Z</time>
      </trkpt>
      <trkpt lat="47.57009" lon="-3.1001">
        <ele>4.4</ele>
        <time>2018-03-31T14:39:00.000Z</time>
      </trkpt>
      <trkpt lat="47.5701" lon="-3.1001">
        <ele>4.5</ele>
        <time>2018-03-31T14:39:01.000Z</time>
      </trkpt>
      <trkpt lat="47.5701" lon="-3.1001">
        <ele>4.5</ele>
        <time>2018-03-31T14:39:02.000Z</time>
      </trkpt>
      <trkpt lat="47.57011" lon="-3.1001">
        <ele>4.5</ele>
        <time>2018-03-31T14:39:03.000Z</time>
      </trkpt>
      <trkpt lat="47.57011" lon="-3.1001">
        <ele>4.5</ele>
        <time>2018-03-31T14:39:04.000Z</time>
      </trkpt>
      <trkpt lat="47.57012" lon="-3.1001">
        <ele>4.6</ele>
        <time>2018-03-31T14:39:05.000Z</time>
      </trkpt>
      <trkpt lat="47.57012" lon="-3.1001">
        <ele>4.6</ele>
        <time>2018-03-31T14:39:06.000Z</time>
      </trkpt>
      <trkpt lat="47.57012" lon="-3.1001">
        <ele>4.6</ele>
        <time>2018-03-31T14:39:07.000Z</time>
      </trkpt>
      <trkpt lat="47.57012" lon="-3.1001">
        <ele>4.6</ele>
        <time>2018-03-31T14:39:08.000Z</time>
      </trkpt>
      <trkpt lat="47.57012" lon="-3.1001">
        <ele>4.6</ele>
        <time>2018-03-31T14:39:09.000Z</time>
      </trkpt>
      <trkpt lat="47.57012" lon="-3.1001">
        <ele>4.6</ele>
        <time>2018-03-31T14:39:10.000Z</time>
      </trkpt>
      <trkpt lat="47.57012" lon="-3.1001">
        <ele>4.6</ele>
        <time>2018-03-31T14:39:11.000Z</time>
      </trkpt>
      <trkpt lat="47.57012" lon="-3.1001">
        <ele>4.6</ele>
        <time>2018-03-31T14:39:12.000Z</time>
      </trkpt>
      <trkpt lat="47.57012" lon="-3.1001">
        <ele>4.6</ele>
        <time>2018-03-31T14:39:13.000Z</time>
      </trkpt>
      <trkpt lat="47.57012" lon="-3.1001">
        <ele>4.6</ele>
        <time>2018-03-31T14:39:14.000Z</time>
      </trkpt>
      <trkpt lat="47.57012" lon="-3.1001">
        <ele>4.6</ele>
        <time>2018-03-31T14:39:15.000Z</time>
      </trkpt>
      <trkpt lat="47.57012" lon="-3.1001">
        <ele>4.6</ele>
        <time>2018-03-31T14:39:16.000Z</time>
      </trkpt>
      <trkpt lat="47.57012" lon="-3.1001">
        <ele>4.6</ele>
        <time>2018-03-31T14:39:17.000Z</time>
      </trkpt>
      <trkpt lat="47.57012" lon="-3.1001">
        <ele>4.6</ele>
        <time>2018-03-31T14:39:18.000Z</time>
      </trkpt>
      <trkpt lat="47.57012" lon="-3.1001">
        <ele>4.6</ele>
        <time>2018-03-31T14:39:19.000Z</time>
      </trkpt>
      <trkpt lat="47.57012" lon="-3.1001">
        <ele>4.6</ele>
        <time>2018-03-31T14:39:20.000Z</time>
      </trkpt>
      <trkpt lat="47.57012" lon="-3.1001">
        <ele>4.6</ele>
        <time>2018-03-31T14:39:21.000Z</time>
      </trkpt>
      <trkpt lat="47.57012" lon="-3.1001">
        <ele>4.6</ele>
        <time>2018-03-31T14:39:22.000Z</time>
      </trkpt>
      <trkpt lat="47.57012" lon="-3.1001">
        <ele>4.6</ele>
        <time>2018-03-31T14:39:23.000Z</time>
      </trkpt>
      <trkpt lat="47.57012" lon="-3.1001">
        <ele>4.6</ele>
        <time>2018-03-31T14:39:24.000Z</time>
      </trkpt>
      <trkpt lat="47.57012" lon="-3.1001">
        <ele>4.6</ele>
        <time>2018-03-31T14:39:25.000Z</time>
      </trkpt>
      <trkpt lat="47.57012" lon="-3.1001">
        <ele>4.6</ele>
        <time>2018-03-31T14:39:26.000Z</time>
      </trkpt>
      <trkpt lat="47.57012" lon="-3.1001">
        <ele>4.6</ele>
        <time>2018-03-31T14:39:27.000Z</time>
      </trkpt>
      <trkpt lat="47.57012" lon="-3.1001">
        <ele>4.6</ele>
        <time>2018-03-31T14:39:28.000Z</time>
      </trkpt>
      <trkpt lat="47.57012" lon="-3.1001">
        <ele>4.6</ele>
        <time>2018-03-31T14:39:29.000Z</time>
      </trkpt>
      <trkpt lat="47.57012" lon="-3.1001">
        <ele>4.6</ele>
        <time>2018-03-31T14:39:30.000Z</time>
      </trkpt>
      <trkpt lat="47.57012" lon="-3.1001">
        <ele>4.6</ele>
        <time>2018-03-31T14:39:31.000Z</time>
      </trkpt>
      <trkpt lat="47.57012" lon="-3.1001">
        <ele>4.6</ele>
        <time>2018-03-31T14:39:32.000Z</time>
      </trkpt>
      <trkpt lat="47.57012" lon="-3.1001">
        <ele>4.6</ele>
        <time>2018-03-31T14:39:33.000Z</time>
      </trkpt>
      <trkpt lat="47.57012" lon="-3.1001">
        <ele>4.6</ele>
        <time>2018-03-31T14:39:34.000Z</time>
      </trkpt>
      <trkpt lat="47.57012" lon="-3.1001">
        <ele>4.6</ele>
        <time>2018-03-31T14:39:35.000Z</time>
      </trkpt>
      <trkpt lat="47.57012" lon="-3.1001">
        <ele>4.6</ele>
        <time>2018-03-31T14:39:36.000Z</time>
      </trkpt>
      <trkpt lat="47.57012" lon="-3.1001">
        <ele>4.6</ele>
        <time>2018-03-31T14:39:37.000Z</time>
      </trkpt>
      <trkpt lat="47.57012" lon="-3.1001">
        <ele>4.6</ele>
        <time>2018-03-31T14:39:38.000Z</time>
      </trkpt>
      <trkpt lat="47.57012" lon="-3.1001">
        <ele>4.6</ele>
        <time>2018-03-31T14:39:39.000Z</time>
      </trkpt>
      <trkpt lat="47.57012" lon="-3.1001">
        <ele>4.6</ele>
        <time>2018-03-31T14:39:40.000Z</time>
      </trkpt>
      <trkpt lat="47.57012" lon="-3.1001">
        <ele>4.6</ele>
        <time>2018-03-31T14:39:41.000Z</time>
      </trkpt>
      <trkpt lat="47.57012" lon="-3.1001">
        <ele>4.6</ele>
        <time>2018-03-31T14:39:42.000Z</time>
      </trkpt>
      <trkpt lat="47.57012" lon="-3.1001">
        <ele>4.6</ele>
        <time>2018-03-31T14:39:43.000Z</time>
      </trkpt>
      <trkpt lat="47.57012" lon="-3.1001">
        <ele>4.6</ele>
        <time>2018-03-31T14:39:44.000Z</time>
      </trkpt>
      <trkpt lat="47.57012" lon="-3.1001">
        <ele>4.6</ele>
        <time>2018-03-31T14:39:45.000Z</time>
      </trkpt>
      <trkpt lat="47.57012" lon="-3.1001">
        <ele>4.6</ele>
        <time>2018-03-31T14:39:46.000Z</time>
      </trkpt>
      <trkpt lat="47.57012" lon="-3.1001">
        <ele>4.6</ele>
        <time>2018-03-31T14:39:47.000Z</time>
      </trkpt>
      <trkpt lat="47.5701" lon="-3.10023">
        <ele>4.2</ele>
        <time>2018-03-31T14:39:48.000Z</time>
      </trkpt>
      <trkpt lat="47.57009" lon="-3.10023">
        <ele>4.1</ele>
        <time>2018-03-31T14:39:49.000Z</time>
      </trkpt>
      <trkpt lat="47.57009" lon="-3.10023">
        <ele>4.1</ele>
        <time>2018-03-31T14:39:50.000Z</time>
      </trkpt>
      <trkpt lat="47.57009" lon="-3.10024">
        <ele>4.1</ele>
        <time>2018-03-31T14:39:51.000Z</time>
      </trkpt>
      <trkpt lat="47.57009" lon="-3.10024">
        <ele>4.1</ele>
        <time>2018-03-31T14:39:52.000Z</time>
      </trkpt>
      <trkpt lat="47.57009" lon="-3.10024">
        <ele>4.1</ele>
        <time>2018-03-31T14:39:53.000Z</time>
      </trkpt>
      <trkpt lat="47.57009" lon="-3.10024">
        <ele>4.1</ele>
        <time>2018-03-31T14:39:54.000Z</time>
      </trkpt>
      <trkpt lat="47.57009" lon="-3.10024">
        <ele>4.1</ele>
        <time>2018-03-31T14:39:55.000Z</time>
      </trkpt>
      <trkpt lat="47.57009" lon="-3.10024">
        <ele>4.1</ele>
        <time>2018-03-31T14:39:56.000Z</time>
      </trkpt>
      <trkpt lat="47.57009" lon="-3.10024">
        <ele>4.1</ele>
        <time>2018-03-31T14:39:57.000Z</time>
      </trkpt>
      <trkpt lat="47.57009" lon="-3.10024">
        <ele>4.1</ele>
        <time>2018-03-31T14:39:58.000Z</time>
      </trkpt>
      <trkpt lat="47.57009" lon="-3.10024">
        <ele>4.1</ele>
        <time>2018-03-31T14:39:59.000Z</time>
      </trkpt>
      <trkpt lat="47.57009" lon="-3.10024">
        <ele>4.1</ele>
        <time>2018-03-31T14:40:00.000Z</time>
      </trkpt>
      <trkpt lat="47.57009" lon="-3.10024">
        <ele>4.1</ele>
        <time>2018-03-31T14:40:01.000Z</time>
      </trkpt>
      <trkpt lat="47.57009" lon="-3.10024">
        <ele>4.1</ele>
        <time>2018-03-31T14:40:02.000Z</time>
      </trkpt>
      <trkpt lat="47.57009" lon="-3.10024">
        <ele>4.1</ele>
        <time>2018-03-31T14:40:03.000Z</time>
      </trkpt>
      <trkpt lat="47.57009" lon="-3.10024">
        <ele>4.1</ele>
        <time>2018-03-31T14:40:04.000Z</time>
      </trkpt>
      <trkpt lat="47.57009" lon="-3.10024">
        <ele>4.1</ele>
        <time>2018-03-31T14:40:05.000Z</time>
      </trkpt>
      <trkpt lat="47.57009" lon="-3.10024">
        <ele>4.1</ele>
        <time>2018-03-31T14:40:06.000Z</time>
      </trkpt>
      <trkpt lat="47.57009" lon="-3.10024">
        <ele>4.1</ele>
        <time>2018-03-31T14:40:07.000Z</time>
      </trkpt>
      <trkpt lat="47.57009" lon="-3.10024">
        <ele>4.1</ele>
        <time>2018-03-31T14:40:08.000Z</time>
      </trkpt>
      <trkpt lat="47.57009" lon="-3.10024">
        <ele>4.1</ele>
        <time>2018-03-31T14:40:09.000Z</time>
      </trkpt>
      <trkpt lat="47.57009" lon="-3.10024">
        <ele>4.1</ele>
        <time>2018-03-31T14:40:10.000Z</time>
      </trkpt>
      <trkpt lat="47.57009" lon="-3.10024">
        <ele>4.1</ele>
        <time>2018-03-31T14:40:11.000Z</time>
      </trkpt>
      <trkpt lat="47.57009" lon="-3.10024">
        <ele>4.1</ele>
        <time>2018-03-31T14:40:12.000Z</time>
      </trkpt>
      <trkpt lat="47.57009" lon="-3.10024">
        <ele>4.1</ele>
        <time>2018-03-31T14:40:13.000Z</time>
      </trkpt>
      <trkpt lat="47.57009" lon="-3.10024">
        <ele>4.1</ele>
        <time>2018-03-31T14:40:14.000Z</time>
      </trkpt>
      <trkpt lat="47.57009" lon="-3.10024">
        <ele>4.1</ele>
        <time>2018-03-31T14:40:15.000Z</time>
      </trkpt>
      <trkpt lat="47.57009" lon="-3.10024">
        <ele>4.1</ele>
        <time>2018-03-31T14:40:16.000Z</time>
      </trkpt>
      <trkpt lat="47.57009" lon="-3.10024">
        <ele>4.1</ele>
        <time>2018-03-31T14:40:17.000Z</time>
      </trkpt>
      <trkpt lat="47.57009" lon="-3.10024">
        <ele>4.1</ele>
        <time>2018-03-31T14:40:18.000Z</time>
      </trkpt>
      <trkpt lat="47.57009" lon="-3.10024">
        <ele>4.1</ele>
        <time>2018-03-31T14:40:19.000Z</time>
      </trkpt>
      <trkpt lat="47.57009" lon="-3.10024">
        <ele>4.1</ele>
        <time>2018-03-31T14:40:20.000Z</time>
      </trkpt>
      <trkpt lat="47.57009" lon="-3.10024">
        <ele>4.1</ele>
        <time>2018-03-31T14:40:21.000Z</time>
      </trkpt>
      <trkpt lat="47.57009" lon="-3.10024">
        <ele>4.1</ele>
        <time>2018-03-31T14:40:22.000Z</time>
      </trkpt>
      <trkpt lat="47.57009" lon="-3.10024">
        <ele>4.1</ele>
        <time>2018-03-31T14:40:23.000Z</time>
      </trkpt>
      <trkpt lat="47.57009" lon="-3.10024">
        <ele>4.1</ele>
        <time>2018-03-31T14:40:24.000Z</time>
      </trkpt>
      <trkpt lat="47.57009" lon="-3.10024">
        <ele>4.1</ele>
        <time>2018-03-31T14:40:25.000Z</time>
      </trkpt>
      <trkpt lat="47.5701" lon="-3.1001">
        <ele>4.5</ele>
        <time>2018-03-31T14:40:26.000Z</time>
      </trkpt>
      <trkpt lat="47.5701" lon="-3.10011">
        <ele>4.5</ele>
        <time>2018-03-31T14:40:27.000Z</time>
      </trkpt>
      <trkpt lat="47.57011" lon="-3.10011">
        <ele>4.5</ele>
        <time>2018-03-31T14:40:28.000Z</time>
      </trkpt>
      <trkpt lat="47.57011" lon="-3.10011">
        <ele>4.5</ele>
        <time>2018-03-31T14:40:29.000Z</time>
      </trkpt>
      <trkpt lat="47.57011" lon="-3.10011">
        <ele>4.5</ele>
        <time>2018-03-31T14:40:30.000Z</time>
      </trkpt>
      <trkpt lat="47.57011" lon="-3.10011">
        <ele>4.5</ele>
        <time>2018-03-31T14:40:31.000Z</time>
      </trkpt>
      <trkpt lat="47.57011" lon="-3.10011">
        <ele>4.5</ele>
        <time>2018-03-31T14:40:32.000Z</time>
      </trkpt>
      <trkpt lat="47.57011" lon="-3.10011">
        <ele>4.5</ele>
        <time>2018-03-31T14:40:33.000Z</time>
      </trkpt>
      <trkpt lat="47.57011" lon="-3.10011">
        <ele>4.5</ele>
        <time>2018-03-31T14:40:34.000Z</time>
      </trkpt>
      <trkpt lat="47.57011" lon="-3.10011">
        <ele>4.5</ele>
        <time>2018-03-31T14:40:35.000Z</time>
      </trkpt>
      <trkpt lat="47.57011" lon="-3.10011">
        <ele>4.5</ele>
        <time>2018-03-31T14:40:36.000Z</time>
      </trkpt>
      <trkpt lat="47.57011" lon="-3.10011">
        <ele>4.5</ele>
        <time>2018-03-31T14:40:37.000Z</time>
      </trkpt>
      <trkpt lat="47.57011" lon="-3.10011">
        <ele>4.5</ele>
        <time>2018-03-31T14:40:38.000Z</time>
      </trkpt>
      <trkpt lat="47.57011" lon="-3.10011">
        <ele>4.5</ele>
        <time>2018-03-31T14:40:39.000Z</time>
      </trkpt>
      <trkpt lat="47.57011" lon="-3.10011">
        <ele>4.5</ele>
        <time>2018-03-31T14:40:40.000Z</time>
      </trkpt>
      <trkpt lat="47.57011" lon="-3.10011">
        <ele>4.5</ele>
        <time>2018-03-31T14:40:41.000Z</time>
      </trkpt>
      <trkpt lat="47.57011" lon="-3.10011">
        <ele>4.5</ele>
        <time>2018-03-31T14:40:42.000Z</time>
      </trkpt>
      <trkpt lat="47.57011" lon="-3.10011">
        <ele>4.5</ele>
        <time>2018-03-31T14:40:43.000Z</time>
      </trkpt>
      <trkpt lat="47.57011" lon="-3.10011">
        <ele>4.5</ele>
        <time>2018-03-31T14:40:44.000Z</time>
      </trkpt>
      <trkpt lat="47.57011" lon="-3.10011">
        <ele>4.5</ele>
        <time>2018-03-31T14:40:45.000Z</time>
      </trkpt>
      <trkpt lat="47.57011" lon="-3.10011">
        <ele>4.5</ele>
        <time>2018-03-31T14:40:46.000Z</time>
      </trkpt>
      <trkpt lat="47.57011" lon="-3.10011">
        <ele>4.5</ele>
        <time>2018-03-31T14:40:47.000Z</time>
      </trkpt>
      <trkpt lat="47.57011" lon="-3.10011">
        <ele>4.5</ele>
        <time>2018-03-31T14:40:48.000Z</time>
      </trkpt>
      <trkpt lat="47.57011" lon="-3.10011">
        <ele>4.5</ele>
        <time>2018-03-31T14:40:49.000Z</time>
      </trkpt>
      <trkpt lat="47.57011" lon="-3.10011">
        <ele>4.5</ele>
        <time>2018-03-31T14:40:50.000Z</time>
      </trkpt>
      <trkpt lat="47.57011" lon="-3.10011">
        <ele>4.5</ele>
        <time>2018-03-31T14:40:51.000Z</time>
      </trkpt>
      <trkpt lat="47.57011" lon="-3.10011">
        <ele>4.5</ele>
        <time>2018-03-31T14:40:52.000Z</time>
      </trkpt>
      <trkpt lat="47.57011" lon="-3.10011">
        <ele>4.5</ele>
        <time>2018-03-31T14:40:53.000Z</time>
      </trkpt>
      <trkpt lat="47.57011" lon="-3.10011">
        <ele>4.5</ele>
        <time>2018-03-31T14:40:54.000Z</time>
      </trkpt>
      <trkpt lat="47.57011" lon="-3.10011">
        <ele>4.5</ele>
        <time>2018-03-31T14:40:55.000Z</time>
      </trkpt>
      <trkpt lat="47.57011" lon="-3.10011">
        <ele>4.5</ele>
        <time>2018-03-31T14:40:56.000Z</time>
      </trkpt>
      <trkpt lat="47.57011" lon="-3.10011">
        <ele>4.5</ele>
        <time>2018-03-31T14:40:57.000Z</time>
      </trkpt>
      <trkpt lat="47.57011" lon="-3.10011">
        <ele>4.5</ele>
        <time>2018-03-31T14:40:58.000Z</time>
      </trkpt>
      <trkpt lat="47.57011" lon="-3.10011">
        <ele>4.5</ele>
        <time>2018-03-31T14:40:59.000Z</time>
      </trkpt>
      <trkpt lat="47.57011" lon="-3.10011">
        <ele>4.5</ele>
        <time>2018-03-31T14:41:00.000Z</time>
      </trkpt>
      <trkpt lat="47.57011" lon="-3.10011">
        <ele>4.5</ele>
        <time>2018-03-31T14:41:01.000Z</time>
      </trkpt>
      <trkpt lat="47.57011" lon="-3.10011">
        <ele>4.5</ele>
        <time>2018-03-31T14:41:02.000Z</time>
      </trkpt>
      <trkpt lat="47.57011" lon="-3.10011">
        <ele>4.5</ele>
        <time>2018-03-31T14:41:03.000Z</time>
      </trkpt>
      <trkpt lat="47.57011" lon="-3.10011">
        <ele>4.5</ele>
        <time>2018-03-31T14:41:04.000Z</time>
      </trkpt>
      <trkpt lat="47.57011" lon="-3.10011">
        <ele>4.5</ele>
        <time>2018-03-31T14:41:05.000Z</time>
      </trkpt>
      <trkpt lat="47.57011" lon="-3.10011">
        <ele>4.5</ele>
        <time>2018-03-31T14:41:06.000Z</time>
      </trkpt>
      <trkpt lat="47.57011" lon="-3.10011">
        <ele>4.5</ele>
        <time>2018-03-31T14:41:07.000Z</time>
      </trkpt>
      <trkpt lat="47.57011" lon="-3.10011">
        <ele>4.5</ele>
        <time>2018-03-31T14:41:08.000Z</time>
      </trkpt>
      <trkpt lat="47.57011" lon="-3.10011">
        <ele>4.5</ele>
        <time>2018-03-31T14:41:09.000Z</time>
      </trkpt>
      <trkpt lat="47.57011" lon="-3.10011">
        <ele>4.5</ele>
        <time>2018-03-31T14:41:10.000Z</time>
      </trkpt>
      <trkpt lat="47.57011" lon="-3.10011">
        <ele>4.5</ele>
        <time>2018-03-31T14:41:11.000Z</time>
      </trkpt>
      <trkpt lat="47.57012" lon="-3.10019">
        <ele>4.5</ele>
        <time>2018-03-31T14:41:12.000Z</time>
      </trkpt>
      <trkpt lat="47.57013" lon="-3.1002">
        <ele>4.5</ele>
        <time>2018-03-31T14:41:13.000Z</time>
      </trkpt>
      <trkpt lat="47.57013" lon="-3.1002">
        <ele>4.5</ele>
        <time>2018-03-31T14:41:14.000Z</time>
      </trkpt>
      <trkpt lat="47.57013" lon="-3.1002">
        <ele>4.5</ele>
        <time>2018-03-31T14:41:15.000Z</time>
      </trkpt>
      <trkpt lat="47.57012" lon="-3.10019">
        <ele>4.5</ele>
        <time>2018-03-31T14:41:16.000Z</time>
      </trkpt>
      <trkpt lat="47.57012" lon="-3.10019">
        <ele>4.5</ele>
        <time>2018-03-31T14:41:17.000Z</time>
      </trkpt>
      <trkpt lat="47.57012" lon="-3.10019">
        <ele>4.5</ele>
        <time>2018-03-31T14:41:18.000Z</time>
      </trkpt>
      <trkpt lat="47.57012" lon="-3.10019">
        <ele>4.5</ele>
        <time>2018-03-31T14:41:19.000Z</time>
      </trkpt>
      <trkpt lat="47.57012" lon="-3.10019">
        <ele>4.5</ele>
        <time>2018-03-31T14:41:20.000Z</time>
      </trkpt>
      <trkpt lat="47.57012" lon="-3.10019">
        <ele>4.5</ele>
        <time>2018-03-31T14:41:21.000Z</time>
      </trkpt>
      <trkpt lat="47.57012" lon="-3.10019">
        <ele>4.5</ele>
        <time>2018-03-31T14:41:22.000Z</time>
      </trkpt>
      <trkpt lat="47.57012" lon="-3.10019">
        <ele>4.5</ele>
        <time>2018-03-31T14:41:23.000Z</time>
      </trkpt>
      <trkpt lat="47.57012" lon="-3.10019">
        <ele>4.5</ele>
        <time>2018-03-31T14:41:24.000Z</time>
      </trkpt>
      <trkpt lat="47.57012" lon="-3.10019">
        <ele>4.5</ele>
        <time>2018-03-31T14:41:25.000Z</time>
      </trkpt>
      <trkpt lat="47.57012" lon="-3.10019">
        <ele>4.5</ele>
        <time>2018-03-31T14:41:26.000Z</time>
      </trkpt>
      <trkpt lat="47.57012" lon="-3.10019">
        <ele>4.5</ele>
        <time>2018-03-31T14:41:27.000Z</time>
      </trkpt>
      <trkpt lat="47.57012" lon="-3.10019">
        <ele>4.5</ele>
        <time>2018-03-31T14:41:28.000Z</time>
      </trkpt>
      <trkpt lat="47.57012" lon="-3.10019">
        <ele>4.5</ele>
        <time>2018-03-31T14:41:29.000Z</time>
      </trkpt>
      <trkpt lat="47.57012" lon="-3.10019">
        <ele>4.5</ele>
        <time>2018-03-31T14:41:30.000Z</time>
      </trkpt>
      <trkpt lat="47.57012" lon="-3.10019">
        <ele>4.5</ele>
        <time>2018-03-31T14:41:31.000Z</time>
      </trkpt>
      <trkpt lat="47.57012" lon="-3.10019">
        <ele>4.5</ele>
        <time>2018-03-31T14:41:32.000Z</time>
      </trkpt>
      <trkpt lat="47.57012" lon="-3.10019">
        <ele>4.5</ele>
        <time>2018-03-31T14:41:33.000Z</time>
      </trkpt>
      <trkpt lat="47.57012" lon="-3.10019">
        <ele>4.5</ele>
        <time>2018-03-31T14:41:34.000Z</time>
      </trkpt>
      <trkpt lat="47.57012" lon="-3.10019">
        <ele>4.5</ele>
        <time>2018-03-31T14:41:35.000Z</time>
      </trkpt>
      <trkpt lat="47.57012" lon="-3.10019">
        <ele>4.5</ele>
        <time>2018-03-31T14:41:36.000Z</time>
      </trkpt>
      <trkpt lat="47.57012" lon="-3.10019">
        <ele>4.5</ele>
        <time>2018-03-31T14:41:37.000Z</time>
      </trkpt>
      <trkpt lat="47.57012" lon="-3.10019">
        <ele>4.5</ele>
        <time>2018-03-31T14:41:38.000Z</time>
      </trkpt>
      <trkpt lat="47.57012" lon="-3.10019">
        <ele>4.5</ele>
        <time>2018-03-31T14:41:39.000Z</time>
      </trkpt>
      <trkpt lat="47.57012" lon="-3.10019">
        <ele>4.5</ele>
        <time>2018-03-31T14:41:40.000Z</time>
      </trkpt>
      <trkpt lat="47.57012" lon="-3.10019">
        <ele>4.5</ele>
        <time>2018-03-31T14:41:41.000Z</time>
      </trkpt>
      <trkpt lat="47.57012" lon="-3.10019">
        <ele>4.5</ele>
        <time>2018-03-31T14:41:42.000Z</time>
      </trkpt>
      <trkpt lat="47.57012" lon="-3.10019">
        <ele>4.5</ele>
        <time>2018-03-31T14:41:43.000Z</time>
      </trkpt>
      <trkpt lat="47.57012" lon="-3.10019">
        <ele>4.5</ele>
        <time>2018-03-31T14:41:44.000Z</time>
      </trkpt>
      <trkpt lat="47.57012" lon="-3.10019">
        <ele>4.5</ele>
        <time>2018-03-31T14:41:45.000Z</time>
      </trkpt>
      <trkpt lat="47.57012" lon="-3.10019">
        <ele>4.5</ele>
        <time>2018-03-31T14:41:46.000Z</time>
      </trkpt>
      <trkpt lat="47.57012" lon="-3.10019">
        <ele>4.5</ele>
        <time>2018-03-31T14:41:47.000Z</time>
      </trkpt>
      <trkpt lat="47.57012" lon="-3.10019">
        <ele>4.5</ele>
        <time>2018-03-31T14:41:48.000Z</time>
      </trkpt>
      <trkpt lat="47.57012" lon="-3.10019">
        <ele>4.5</ele>
        <time>2018-03-31T14:41:49.000Z</time>
      </trkpt>
      <trkpt lat="47.57012" lon="-3.10019">
        <ele>4.5</ele>
        <time>2018-03-31T14:41:50.000Z</time>
      </trkpt>
      <trkpt lat="47.57012" lon="-3.10019">
        <ele>4.5</ele>
        <time>2018-03-31T14:41:51.000Z</time>
      </trkpt>
      <trkpt lat="47.57012" lon="-3.10019">
        <ele>4.5</ele>
        <time>2018-03-31T14:41:52.000Z</time>
      </trkpt>
      <trkpt lat="47.57012" lon="-3.10019">
        <ele>4.5</ele>
        <time>2018-03-31T14:41:53.000Z</time>
      </trkpt>
      <trkpt lat="47.57012" lon="-3.10019">
        <ele>4.5</ele>
        <time>2018-03-31T14:41:54.000Z</time>
      </trkpt>
      <trkpt lat="47.57012" lon="-3.10019">
        <ele>4.5</ele>
        <time>2018-03-31T14:41:55.000Z</time>
      </trkpt>
      <trkpt lat="47.57012" lon="-3.10019">
        <ele>4.5</ele>
        <time>2018-03-31T14:41:56.000Z</time>
      </trkpt>
      <trkpt lat="47.57012" lon="-3.10019">
        <ele>4.5</ele>
        <time>2018-03-31T14:41:57.000Z</time>
      </trkpt>
      <trkpt lat="47.57012" lon="-3.10019">
        <ele>4.5</ele>
        <time>2018-03-31T14:41:58.000Z</time>
      </trkpt>
      <trkpt lat="47.57012" lon="-3.10019">
        <ele>4.5</ele>
        <time>2018-03-31T14:41:59.000Z</time>
      </trkpt>
      <trkpt lat="47.57012" lon="-3.10019">
        <ele>4.5</ele>
        <time>2018-03-31T14:42:00.000Z</time>
      </trkpt>
      <trkpt lat="47.57012" lon="-3.10019">
        <ele>4.5</ele>
        <time>2018-03-31T14:42:01.000Z</time>
      </trkpt>
      <trkpt lat="47.57012" lon="-3.10019">
        <ele>4.5</ele>
        <time>2018-03-31T14:42:02.000Z</time>
      </trkpt>
      <trkpt lat="47.57012" lon="-3.10019">
        <ele>4.5</ele>
        <time>2018-03-31T14:42:03.000Z</time>
      </trkpt>
      <trkpt lat="47.57012" lon="-3.10019">
        <ele>4.5</ele>
        <time>2018-03-31T14:42:04.000Z</time>
      </trkpt>
      <trkpt lat="47.57012" lon="-3.10019">
        <ele>4.5</ele>
        <time>2018-03-31T14:42:05.000Z</time>
      </trkpt>
      <trkpt lat="47.57012" lon="-3.10019">
        <ele>4.5</ele>
        <time>2018-03-31T14:42:06.000Z</time>
      </trkpt>
      <trkpt lat="47.57012" lon="-3.10019">
        <ele>4.5</ele>
        <time>2018-03-31T14:42:07.000Z</time>
      </trkpt>
      <trkpt lat="47.57012" lon="-3.10019">
        <ele>4.5</ele>
        <time>2018-03-31T14:42:08.000Z</time>
      </trkpt>
      <trkpt lat="47.57012" lon="-3.10019">
        <ele>4.5</ele>
        <time>2018-03-31T14:42:09.000Z</time>
      </trkpt>
      <trkpt lat="47.57012" lon="-3.10019">
        <ele>4.5</ele>
        <time>2018-03-31T14:42:10.000Z</time>
      </trkpt>
      <trkpt lat="47.57012" lon="-3.10019">
        <ele>4.5</ele>
        <time>2018-03-31T14:42:11.000Z</time>
      </trkpt>
      <trkpt lat="47.57012" lon="-3.10019">
        <ele>4.5</ele>
        <time>2018-03-31T14:42:12.000Z</time>
      </trkpt>
      <trkpt lat="47.57012" lon="-3.10019">
        <ele>4.5</ele>
        <time>2018-03-31T14:42:13.000Z</time>
      </trkpt>
      <trkpt lat="47.57012" lon="-3.10019">
        <ele>4.5</ele>
        <time>2018-03-31T14:42:14.000Z</time>
      </trkpt>
      <trkpt lat="47.57012" lon="-3.10019">
        <ele>4.5</ele>
        <time>2018-03-31T14:42:15.000Z</time>
      </trkpt>
      <trkpt lat="47.57012" lon="-3.10019">
        <ele>4.5</ele>
        <time>2018-03-31T14:42:16.000Z</time>
      </trkpt>
      <trkpt lat="47.57012" lon="-3.10019">
        <ele>4.5</ele>
        <time>2018-03-31T14:42:17.000Z</time>
      </trkpt>
      <trkpt lat="47.57012" lon="-3.10019">
        <ele>4.5</ele>
        <time>2018-03-31T14:42:18.000Z</time>
      </trkpt>
      <trkpt lat="47.57012" lon="-3.10019">
        <ele>4.5</ele>
        <time>2018-03-31T14:42:19.000Z</time>
      </trkpt>
      <trkpt lat="47.57012" lon="-3.10019">
        <ele>4.5</ele>
        <time>2018-03-31T14:42:20.000Z</time>
      </trkpt>
      <trkpt lat="47.57012" lon="-3.10019">
        <ele>4.5</ele>
        <time>2018-03-31T14:42:21.000Z</time>
      </trkpt>
      <trkpt lat="47.57012" lon="-3.10019">
        <ele>4.5</ele>
        <time>2018-03-31T14:42:22.000Z</time>
      </trkpt>
      <trkpt lat="47.57012" lon="-3.10019">
        <ele>4.5</ele>
        <time>2018-03-31T14:42:23.000Z</time>
      </trkpt>
      <trkpt lat="47.57012" lon="-3.10019">
        <ele>4.5</ele>
        <time>2018-03-31T14:42:24.000Z</time>
      </trkpt>
      <trkpt lat="47.57012" lon="-3.10019">
        <ele>4.5</ele>
        <time>2018-03-31T14:42:25.000Z</time>
      </trkpt>
      <trkpt lat="47.57012" lon="-3.10019">
        <ele>4.5</ele>
        <time>2018-03-31T14:42:26.000Z</time>
      </trkpt>
      <trkpt lat="47.57012" lon="-3.10019">
        <ele>4.5</ele>
        <time>2018-03-31T14:42:27.000Z</time>
      </trkpt>
      <trkpt lat="47.57012" lon="-3.10019">
        <ele>4.5</ele>
        <time>2018-03-31T14:42:28.000Z</time>
      </trkpt>
      <trkpt lat="47.57012" lon="-3.10019">
        <ele>4.5</ele>
        <time>2018-03-31T14:42:29.000Z</time>
      </trkpt>
      <trkpt lat="47.57012" lon="-3.10019">
        <ele>4.5</ele>
        <time>2018-03-31T14:42:30.000Z</time>
      </trkpt>
      <trkpt lat="47.57012" lon="-3.10019">
        <ele>4.5</ele>
        <time>2018-03-31T14:42:31.000Z</time>
      </trkpt>
      <trkpt lat="47.57012" lon="-3.10019">
        <ele>4.5</ele>
        <time>2018-03-31T14:42:32.000Z</time>
      </trkpt>
      <trkpt lat="47.57012" lon="-3.10019">
        <ele>4.5</ele>
        <time>2018-03-31T14:42:33.000Z</time>
      </trkpt>
      <trkpt lat="47.57012" lon="-3.10019">
        <ele>4.5</ele>
        <time>2018-03-31T14:42:34.000Z</time>
      </trkpt>
      <trkpt lat="47.57012" lon="-3.10019">
        <ele>4.5</ele>
        <time>2018-03-31T14:42:35.000Z</time>
      </trkpt>
      <trkpt lat="47.57012" lon="-3.10019">
        <ele>4.5</ele>
        <time>2018-03-31T14:42:36.000Z</time>
      </trkpt>
      <trkpt lat="47.57012" lon="-3.10019">
        <ele>4.5</ele>
        <time>2018-03-31T14:42:37.000Z</time>
      </trkpt>
      <trkpt lat="47.57012" lon="-3.10019">
        <ele>4.5</ele>
        <time>2018-03-31T14:42:38.000Z</time>
      </trkpt>
      <trkpt lat="47.57012" lon="-3.10019">
        <ele>4.5</ele>
        <time>2018-03-31T14:42:39.000Z</time>
      </trkpt>
      <trkpt lat="47.57012" lon="-3.10019">
        <ele>4.5</ele>
        <time>2018-03-31T14:42:40.000Z</time>
      </trkpt>
      <trkpt lat="47.57012" lon="-3.10019">
        <ele>4.5</ele>
        <time>2018-03-31T14:42:41.000Z</time>
      </trkpt>
      <trkpt lat="47.57012" lon="-3.10019">
        <ele>4.5</ele>
        <time>2018-03-31T14:42:42.000Z</time>
      </trkpt>
      <trkpt lat="47.57012" lon="-3.10019">
        <ele>4.5</ele>
        <time>2018-03-31T14:42:43.000Z</time>
      </trkpt>
      <trkpt lat="47.57012" lon="-3.10019">
        <ele>4.5</ele>
        <time>2018-03-31T14:42:44.000Z</time>
      </trkpt>
      <trkpt lat="47.57012" lon="-3.10019">
        <ele>4.5</ele>
        <time>2018-03-31T14:42:45.000Z</time>
      </trkpt>
      <trkpt lat="47.57012" lon="-3.10019">
        <ele>4.5</ele>
        <time>2018-03-31T14:42:46.000Z</time>
      </trkpt>
      <trkpt lat="47.57012" lon="-3.10019">
        <ele>4.5</ele>
        <time>2018-03-31T14:42:47.000Z</time>
      </trkpt>
      <trkpt lat="47.57012" lon="-3.10019">
        <ele>4.5</ele>
        <time>2018-03-31T14:42:48.000Z</time>
      </trkpt>
      <trkpt lat="47.57012" lon="-3.10019">
        <ele>4.5</ele>
        <time>2018-03-31T14:42:49.000Z</time>
      </trkpt>
      <trkpt lat="47.57012" lon="-3.10019">
        <ele>4.5</ele>
        <time>2018-03-31T14:42:50.000Z</time>
      </trkpt>
      <trkpt lat="47.57012" lon="-3.10019">
        <ele>4.5</ele>
        <time>2018-03-31T14:42:51.000Z</time>
      </trkpt>
      <trkpt lat="47.57012" lon="-3.10019">
        <ele>4.5</ele>
        <time>2018-03-31T14:42:52.000Z</time>
      </trkpt>
      <trkpt lat="47.57012" lon="-3.10019">
        <ele>4.5</ele>
        <time>2018-03-31T14:42:53.000Z</time>
      </trkpt>
      <trkpt lat="47.57012" lon="-3.10019">
        <ele>4.5</ele>
        <time>2018-03-31T14:42:54.000Z</time>
      </trkpt>
      <trkpt lat="47.57012" lon="-3.10019">
        <ele>4.5</ele>
        <time>2018-03-31T14:42:55.000Z</time>
      </trkpt>
      <trkpt lat="47.57012" lon="-3.10019">
        <ele>4.5</ele>
        <time>2018-03-31T14:42:56.000Z</time>
      </trkpt>
      <trkpt lat="47.57012" lon="-3.10019">
        <ele>4.5</ele>
        <time>2018-03-31T14:42:57.000Z</time>
      </trkpt>
      <trkpt lat="47.57012" lon="-3.10019">
        <ele>4.5</ele>
        <time>2018-03-31T14:42:58.000Z</time>
      </trkpt>
      <trkpt lat="47.57012" lon="-3.10019">
        <ele>4.5</ele>
        <time>2018-03-31T14:42:59.000Z</time>
      </trkpt>
      <trkpt lat="47.57012" lon="-3.10019">
        <ele>4.5</ele>
        <time>2018-03-31T14:43:00.000Z</time>
      </trkpt>
      <trkpt lat="47.57012" lon="-3.10019">
        <ele>4.5</ele>
        <time>2018-03-31T14:43:01.000Z</time>
      </trkpt>
      <trkpt lat="47.57012" lon="-3.10019">
        <ele>4.5</ele>
        <time>2018-03-31T14:43:02.000Z</time>
      </trkpt>
      <trkpt lat="47.57012" lon="-3.10019">
        <ele>4.5</ele>
        <time>2018-03-31T14:43:03.000Z</time>
      </trkpt>
      <trkpt lat="47.57012" lon="-3.10019">
        <ele>4.5</ele>
        <time>2018-03-31T14:43:04.000Z</time>
      </trkpt>
      <trkpt lat="47.57012" lon="-3.10019">
        <ele>4.5</ele>
        <time>2018-03-31T14:43:05.000Z</time>
      </trkpt>
      <trkpt lat="47.57012" lon="-3.10019">
        <ele>4.5</ele>
        <time>2018-03-31T14:43:06.000Z</time>
      </trkpt>
      <trkpt lat="47.57012" lon="-3.10019">
        <ele>4.5</ele>
        <time>2018-03-31T14:43:07.000Z</time>
      </trkpt>
      <trkpt lat="47.57012" lon="-3.10019">
        <ele>4.5</ele>
        <time>2018-03-31T14:43:08.000Z</time>
      </trkpt>
      <trkpt lat="47.57012" lon="-3.10019">
        <ele>4.5</ele>
        <time>2018-03-31T14:43:09.000Z</time>
      </trkpt>
      <trkpt lat="47.57012" lon="-3.10019">
        <ele>4.5</ele>
        <time>2018-03-31T14:43:10.000Z</time>
      </trkpt>
      <trkpt lat="47.57012" lon="-3.10019">
        <ele>4.5</ele>
        <time>2018-03-31T14:43:11.000Z</time>
      </trkpt>
      <trkpt lat="47.57012" lon="-3.10019">
        <ele>4.5</ele>
        <time>2018-03-31T14:43:12.000Z</time>
      </trkpt>
      <trkpt lat="47.57012" lon="-3.10019">
        <ele>4.5</ele>
        <time>2018-03-31T14:43:13.000Z</time>
      </trkpt>
      <trkpt lat="47.57012" lon="-3.10019">
        <ele>4.5</ele>
        <time>2018-03-31T14:43:14.000Z</time>
      </trkpt>
      <trkpt lat="47.57012" lon="-3.10019">
        <ele>4.5</ele>
        <time>2018-03-31T14:43:15.000Z</time>
      </trkpt>
      <trkpt lat="47.57012" lon="-3.10019">
        <ele>4.5</ele>
        <time>2018-03-31T14:43:16.000Z</time>
      </trkpt>
      <trkpt lat="47.57012" lon="-3.10019">
        <ele>4.5</ele>
        <time>2018-03-31T14:43:17.000Z</time>
      </trkpt>
      <trkpt lat="47.57012" lon="-3.10019">
        <ele>4.5</ele>
        <time>2018-03-31T14:43:18.000Z</time>
      </trkpt>
      <trkpt lat="47.57012" lon="-3.10019">
        <ele>4.5</ele>
        <time>2018-03-31T14:43:19.000Z</time>
      </trkpt>
      <trkpt lat="47.57012" lon="-3.10019">
        <ele>4.5</ele>
        <time>2018-03-31T14:43:20.000Z</time>
      </trkpt>
      <trkpt lat="47.57012" lon="-3.10019">
        <ele>4.5</ele>
        <time>2018-03-31T14:43:21.000Z</time>
      </trkpt>
      <trkpt lat="47.57012" lon="-3.10019">
        <ele>4.5</ele>
        <time>2018-03-31T14:43:22.000Z</time>
      </trkpt>
      <trkpt lat="47.57012" lon="-3.10019">
        <ele>4.5</ele>
        <time>2018-03-31T14:43:23.000Z</time>
      </trkpt>
      <trkpt lat="47.57012" lon="-3.10019">
        <ele>4.5</ele>
        <time>2018-03-31T14:43:24.000Z</time>
      </trkpt>
      <trkpt lat="47.57012" lon="-3.10019">
        <ele>4.5</ele>
        <time>2018-03-31T14:43:25.000Z</time>
      </trkpt>
      <trkpt lat="47.57012" lon="-3.10019">
        <ele>4.5</ele>
        <time>2018-03-31T14:43:26.000Z</time>
      </trkpt>
      <trkpt lat="47.57012" lon="-3.10019">
        <ele>4.5</ele>
        <time>2018-03-31T14:43:27.000Z</time>
      </trkpt>
      <trkpt lat="47.57012" lon="-3.10019">
        <ele>4.5</ele>
        <time>2018-03-31T14:43:28.000Z</time>
      </trkpt>
      <trkpt lat="47.57012" lon="-3.10019">
        <ele>4.5</ele>
        <time>2018-03-31T14:43:29.000Z</time>
      </trkpt>
      <trkpt lat="47.57012" lon="-3.10019">
        <ele>4.5</ele>
        <time>2018-03-31T14:43:30.000Z</time>
      </trkpt>
      <trkpt lat="47.57012" lon="-3.10019">
        <ele>4.5</ele>
        <time>2018-03-31T14:43:31.000Z</time>
      </trkpt>
      <trkpt lat="47.57012" lon="-3.10019">
        <ele>4.5</ele>
        <time>2018-03-31T14:43:32.000Z</time>
      </trkpt>
      <trkpt lat="47.57012" lon="-3.10019">
        <ele>4.5</ele>
        <time>2018-03-31T14:43:33.000Z</time>
      </trkpt>
      <trkpt lat="47.57012" lon="-3.10019">
        <ele>4.5</ele>
        <time>2018-03-31T14:43:34.000Z</time>
      </trkpt>
      <trkpt lat="47.57012" lon="-3.10019">
        <ele>4.5</ele>
        <time>2018-03-31T14:43:35.000Z</time>
      </trkpt>
      <trkpt lat="47.57012" lon="-3.10019">
        <ele>4.5</ele>
        <time>2018-03-31T14:43:36.000Z</time>
      </trkpt>
      <trkpt lat="47.57012" lon="-3.10019">
        <ele>4.5</ele>
        <time>2018-03-31T14:43:37.000Z</time>
      </trkpt>
      <trkpt lat="47.57012" lon="-3.10019">
        <ele>4.5</ele>
        <time>2018-03-31T14:43:38.000Z</time>
      </trkpt>
      <trkpt lat="47.57012" lon="-3.10019">
        <ele>4.5</ele>
        <time>2018-03-31T14:43:39.000Z</time>
      </trkpt>
      <trkpt lat="47.57012" lon="-3.10019">
        <ele>4.5</ele>
        <time>2018-03-31T14:43:40.000Z</time>
      </trkpt>
      <trkpt lat="47.57012" lon="-3.10019">
        <ele>4.5</ele>
        <time>2018-03-31T14:43:41.000Z</time>
      </trkpt>
      <trkpt lat="47.57012" lon="-3.10019">
        <ele>4.5</ele>
        <time>2018-03-31T14:43:42.000Z</time>
      </trkpt>
      <trkpt lat="47.57012" lon="-3.10019">
        <ele>4.5</ele>
        <time>2018-03-31T14:43:43.000Z</time>
      </trkpt>
      <trkpt lat="47.57012" lon="-3.10019">
        <ele>4.5</ele>
        <time>2018-03-31T14:43:44.000Z</time>
      </trkpt>
      <trkpt lat="47.57012" lon="-3.10019">
        <ele>4.5</ele>
        <time>2018-03-31T14:43:45.000Z</time>
      </trkpt>
      <trkpt lat="47.57012" lon="-3.10019">
        <ele>4.5</ele>
        <time>2018-03-31T14:43:46.000Z</time>
      </trkpt>
      <trkpt lat="47.57012" lon="-3.10019">
        <ele>4.5</ele>
        <time>2018-03-31T14:43:47.000Z</time>
      </trkpt>
      <trkpt lat="47.57012" lon="-3.10019">
        <ele>4.5</ele>
        <time>2018-03-31T14:43:48.000Z</time>
      </trkpt>
      <trkpt lat="47.57012" lon="-3.10019">
        <ele>4.5</ele>
        <time>2018-03-31T14:43:49.000Z</time>
      </trkpt>
      <trkpt lat="47.57012" lon="-3.10019">
        <ele>4.5</ele>
        <time>2018-03-31T14:43:50.000Z</time>
      </trkpt>
      <trkpt lat="47.57012" lon="-3.10019">
        <ele>4.5</ele>
        <time>2018-03-31T14:43:51.000Z</time>
      </trkpt>
      <trkpt lat="47.57012" lon="-3.10019">
        <ele>4.5</ele>
        <time>2018-03-31T14:43:52.000Z</time>
      </trkpt>
      <trkpt lat="47.57012" lon="-3.10019">
        <ele>4.5</ele>
        <time>2018-03-31T14:43:53.000Z</time>
      </trkpt>
      <trkpt lat="47.57012" lon="-3.10019">
        <ele>4.5</ele>
        <time>2018-03-31T14:43:54.000Z</time>
      </trkpt>
      <trkpt lat="47.57012" lon="-3.10019">
        <ele>4.5</ele>
        <time>2018-03-31T14:43:55.000Z</time>
      </trkpt>
      <trkpt lat="47.57012" lon="-3.10019">
        <ele>4.5</ele>
        <time>2018-03-31T14:43:56.000Z</time>
      </trkpt>
      <trkpt lat="47.57012" lon="-3.10019">
        <ele>4.5</ele>
        <time>2018-03-31T14:43:57.000Z</time>
      </trkpt>
      <trkpt lat="47.57012" lon="-3.10019">
        <ele>4.5</ele>
        <time>2018-03-31T14:43:58.000Z</time>
      </trkpt>
      <trkpt lat="47.57012" lon="-3.10019">
        <ele>4.5</ele>
        <time>2018-03-31T14:43:59.000Z</time>
      </trkpt>
      <trkpt lat="47.57012" lon="-3.10019">
        <ele>4.5</ele>
        <time>2018-03-31T14:44:00.000Z</time>
      </trkpt>
      <trkpt lat="47.57012" lon="-3.10019">
        <ele>4.5</ele>
        <time>2018-03-31T14:44:01.000Z</time>
      </trkpt>
      <trkpt lat="47.57012" lon="-3.10019">
        <ele>4.5</ele>
        <time>2018-03-31T14:44:02.000Z</time>
      </trkpt>
      <trkpt lat="47.57012" lon="-3.10019">
        <ele>4.5</ele>
        <time>2018-03-31T14:44:03.000Z</time>
      </trkpt>
      <trkpt lat="47.57012" lon="-3.10019">
        <ele>4.5</ele>
        <time>2018-03-31T14:44:04.000Z</time>
      </trkpt>
      <trkpt lat="47.57012" lon="-3.1003">
        <ele>4.4</ele>
        <time>2018-03-31T14:44:05.000Z</time>
      </trkpt>
      <trkpt lat="47.57013" lon="-3.10029">
        <ele>4.4</ele>
        <time>2018-03-31T14:44:06.000Z</time>
      </trkpt>
      <trkpt lat="47.57014" lon="-3.10028">
        <ele>4.5</ele>
        <time>2018-03-31T14:44:07.000Z</time>
      </trkpt>
      <trkpt lat="47.57014" lon="-3.10028">
        <ele>4.5</ele>
        <time>2018-03-31T14:44:08.000Z</time>
      </trkpt>
      <trkpt lat="47.57014" lon="-3.10027">
        <ele>4.5</ele>
        <time>2018-03-31T14:44:09.000Z</time>
      </trkpt>
      <trkpt lat="47.57014" lon="-3.10027">
        <ele>4.6</ele>
        <time>2018-03-31T14:44:10.000Z</time>
      </trkpt>
      <trkpt lat="47.57014" lon="-3.10027">
        <ele>4.6</ele>
        <time>2018-03-31T14:44:11.000Z</time>
      </trkpt>
      <trkpt lat="47.57014" lon="-3.10027">
        <ele>4.6</ele>
        <time>2018-03-31T14:44:12.000Z</time>
      </trkpt>
      <trkpt lat="47.57014" lon="-3.10027">
        <ele>4.6</ele>
        <time>2018-03-31T14:44:13.000Z</time>
      </trkpt>
      <trkpt lat="47.57014" lon="-3.10027">
        <ele>4.6</ele>
        <time>2018-03-31T14:44:14.000Z</time>
      </trkpt>
      <trkpt lat="47.57014" lon="-3.10027">
        <ele>4.6</ele>
        <time>2018-03-31T14:44:15.000Z</time>
      </trkpt>
      <trkpt lat="47.57014" lon="-3.10027">
        <ele>4.6</ele>
        <time>2018-03-31T14:44:16.000Z</time>
      </trkpt>
      <trkpt lat="47.57014" lon="-3.10027">
        <ele>4.6</ele>
        <time>2018-03-31T14:44:17.000Z</time>
      </trkpt>
      <trkpt lat="47.57014" lon="-3.10027">
        <ele>4.6</ele>
        <time>2018-03-31T14:44:18.000Z</time>
      </trkpt>
      <trkpt lat="47.57014" lon="-3.10027">
        <ele>4.6</ele>
        <time>2018-03-31T14:44:19.000Z</time>
      </trkpt>
      <trkpt lat="47.57014" lon="-3.10027">
        <ele>4.6</ele>
        <time>2018-03-31T14:44:20.000Z</time>
      </trkpt>
      <trkpt lat="47.57014" lon="-3.10027">
        <ele>4.6</ele>
        <time>2018-03-31T14:44:21.000Z</time>
      </trkpt>
      <trkpt lat="47.57014" lon="-3.10027">
        <ele>4.6</ele>
        <time>2018-03-31T14:44:22.000Z</time>
      </trkpt>
      <trkpt lat="47.57014" lon="-3.10027">
        <ele>4.6</ele>
        <time>2018-03-31T14:44:23.000Z</time>
      </trkpt>
      <trkpt lat="47.57014" lon="-3.10027">
        <ele>4.6</ele>
        <time>2018-03-31T14:44:24.000Z</time>
      </trkpt>
      <trkpt lat="47.57014" lon="-3.10027">
        <ele>4.6</ele>
        <time>2018-03-31T14:44:25.000Z</time>
      </trkpt>
      <trkpt lat="47.57014" lon="-3.10027">
        <ele>4.6</ele>
        <time>2018-03-31T14:44:26.000Z</time>
      </trkpt>
      <trkpt lat="47.57014" lon="-3.10027">
        <ele>4.6</ele>
        <time>2018-03-31T14:44:27.000Z</time>
      </trkpt>
      <trkpt lat="47.57014" lon="-3.10027">
        <ele>4.6</ele>
        <time>2018-03-31T14:44:28.000Z</time>
      </trkpt>
      <trkpt lat="47.57014" lon="-3.10027">
        <ele>4.6</ele>
        <time>2018-03-31T14:44:29.000Z</time>
      </trkpt>
      <trkpt lat="47.57014" lon="-3.10027">
        <ele>4.6</ele>
        <time>2018-03-31T14:44:30.000Z</time>
      </trkpt>
      <trkpt lat="47.57014" lon="-3.10027">
        <ele>4.6</ele>
        <time>2018-03-31T14:44:31.000Z</time>
      </trkpt>
      <trkpt lat="47.57014" lon="-3.10027">
        <ele>4.6</ele>
        <time>2018-03-31T14:44:32.000Z</time>
      </trkpt>
      <trkpt lat="47.57014" lon="-3.10027">
        <ele>4.6</ele>
        <time>2018-03-31T14:44:33.000Z</time>
      </trkpt>
      <trkpt lat="47.57014" lon="-3.10027">
        <ele>4.6</ele>
        <time>2018-03-31T14:44:34.000Z</time>
      </trkpt>
      <trkpt lat="47.57014" lon="-3.10027">
        <ele>4.6</ele>
        <time>2018-03-31T14:44:35.000Z</time>
      </trkpt>
      <trkpt lat="47.57014" lon="-3.10027">
        <ele>4.6</ele>
        <time>2018-03-31T14:44:36.000Z</time>
      </trkpt>
      <trkpt lat="47.57014" lon="-3.10027">
        <ele>4.6</ele>
        <time>2018-03-31T14:44:37.000Z</time>
      </trkpt>
      <trkpt lat="47.57014" lon="-3.10027">
        <ele>4.6</ele>
        <time>2018-03-31T14:44:38.000Z</time>
      </trkpt>
      <trkpt lat="47.57014" lon="-3.10027">
        <ele>4.6</ele>
        <time>2018-03-31T14:44:39.000Z</time>
      </trkpt>
      <trkpt lat="47.57014" lon="-3.10027">
        <ele>4.6</ele>
        <time>2018-03-31T14:44:40.000Z</time>
      </trkpt>
      <trkpt lat="47.57014" lon="-3.10027">
        <ele>4.6</ele>
        <time>2018-03-31T14:44:41.000Z</time>
      </trkpt>
      <trkpt lat="47.57014" lon="-3.10027">
        <ele>4.6</ele>
        <time>2018-03-31T14:44:42.000Z</time>
      </trkpt>
      <trkpt lat="47.57014" lon="-3.10027">
        <ele>4.6</ele>
        <time>2018-03-31T14:44:43.000Z</time>
      </trkpt>
      <trkpt lat="47.57014" lon="-3.10027">
        <ele>4.6</ele>
        <time>2018-03-31T14:44:44.000Z</time>
      </trkpt>
      <trkpt lat="47.57014" lon="-3.10027">
        <ele>4.6</ele>
        <time>2018-03-31T14:44:45.000Z</time>
      </trkpt>
      <trkpt lat="47.57014" lon="-3.10027">
        <ele>4.6</ele>
        <time>2018-03-31T14:44:46.000Z</time>
      </trkpt>
      <trkpt lat="47.57014" lon="-3.10027">
        <ele>4.6</ele>
        <time>2018-03-31T14:44:47.000Z</time>
      </trkpt>
      <trkpt lat="47.57014" lon="-3.10027">
        <ele>4.6</ele>
        <time>2018-03-31T14:44:48.000Z</time>
      </trkpt>
      <trkpt lat="47.57014" lon="-3.10027">
        <ele>4.6</ele>
        <time>2018-03-31T14:44:49.000Z</time>
      </trkpt>
      <trkpt lat="47.57014" lon="-3.10027">
        <ele>4.6</ele>
        <time>2018-03-31T14:44:50.000Z</time>
      </trkpt>
      <trkpt lat="47.57014" lon="-3.10027">
        <ele>4.6</ele>
        <time>2018-03-31T14:44:51.000Z</time>
      </trkpt>
      <trkpt lat="47.57014" lon="-3.10027">
        <ele>4.6</ele>
        <time>2018-03-31T14:44:52.000Z</time>
      </trkpt>
      <trkpt lat="47.57014" lon="-3.10027">
        <ele>4.6</ele>
        <time>2018-03-31T14:44:53.000Z</time>
      </trkpt>
      <trkpt lat="47.57014" lon="-3.10027">
        <ele>4.6</ele>
        <time>2018-03-31T14:44:54.000Z</time>
      </trkpt>
      <trkpt lat="47.57014" lon="-3.10027">
        <ele>4.6</ele>
        <time>2018-03-31T14:44:55.000Z</time>
      </trkpt>
      <trkpt lat="47.57014" lon="-3.10027">
        <ele>4.6</ele>
        <time>2018-03-31T14:44:56.000Z</time>
      </trkpt>
      <trkpt lat="47.57014" lon="-3.10027">
        <ele>4.6</ele>
        <time>2018-03-31T14:44:57.000Z</time>
      </trkpt>
      <trkpt lat="47.57014" lon="-3.10027">
        <ele>4.6</ele>
        <time>2018-03-31T14:44:58.000Z</time>
      </trkpt>
      <trkpt lat="47.57014" lon="-3.10027">
        <ele>4.6</ele>
        <time>2018-03-31T14:44:59.000Z</time>
      </trkpt>
      <trkpt lat="47.57014" lon="-3.10027">
        <ele>4.6</ele>
        <time>2018-03-31T14:45:00.000Z</time>
      </trkpt>
      <trkpt lat="47.57014" lon="-3.10027">
        <ele>4.6</ele>
        <time>2018-03-31T14:45:01.000Z</time>
      </trkpt>
      <trkpt lat="47.57014" lon="-3.10027">
        <ele>4.6</ele>
        <time>2018-03-31T14:45:02.000Z</time>
      </trkpt>
      <trkpt lat="47.57014" lon="-3.10027">
        <ele>4.6</ele>
        <time>2018-03-31T14:45:03.000Z</time>
      </trkpt>
      <trkpt lat="47.57014" lon="-3.10027">
        <ele>4.6</ele>
        <time>2018-03-31T14:45:04.000Z</time>
      </trkpt>
      <trkpt lat="47.57014" lon="-3.10027">
        <ele>4.6</ele>
        <time>2018-03-31T14:45:05.000Z</time>
      </trkpt>
      <trkpt lat="47.57014" lon="-3.10027">
        <ele>4.6</ele>
        <time>2018-03-31T14:45:06.000Z</time>
      </trkpt>
      <trkpt lat="47.57014" lon="-3.10027">
        <ele>4.6</ele>
        <time>2018-03-31T14:45:07.000Z</time>
      </trkpt>
      <trkpt lat="47.57014" lon="-3.10027">
        <ele>4.6</ele>
        <time>2018-03-31T14:45:08.000Z</time>
      </trkpt>
      <trkpt lat="47.57014" lon="-3.10027">
        <ele>4.6</ele>
        <time>2018-03-31T14:45:09.000Z</time>
      </trkpt>
      <trkpt lat="47.57014" lon="-3.10027">
        <ele>4.6</ele>
        <time>2018-03-31T14:45:10.000Z</time>
      </trkpt>
      <trkpt lat="47.57014" lon="-3.10027">
        <ele>4.6</ele>
        <time>2018-03-31T14:45:11.000Z</time>
      </trkpt>
      <trkpt lat="47.57014" lon="-3.10027">
        <ele>4.6</ele>
        <time>2018-03-31T14:45:12.000Z</time>
      </trkpt>
      <trkpt lat="47.57014" lon="-3.10027">
        <ele>4.6</ele>
        <time>2018-03-31T14:45:13.000Z</time>
      </trkpt>
      <trkpt lat="47.57014" lon="-3.10027">
        <ele>4.6</ele>
        <time>2018-03-31T14:45:14.000Z</time>
      </trkpt>
      <trkpt lat="47.57014" lon="-3.10027">
        <ele>4.6</ele>
        <time>2018-03-31T14:45:15.000Z</time>
      </trkpt>
      <trkpt lat="47.57014" lon="-3.10027">
        <ele>4.6</ele>
        <time>2018-03-31T14:45:16.000Z</time>
      </trkpt>
      <trkpt lat="47.57014" lon="-3.10027">
        <ele>4.6</ele>
        <time>2018-03-31T14:45:17.000Z</time>
      </trkpt>
      <trkpt lat="47.57014" lon="-3.10027">
        <ele>4.6</ele>
        <time>2018-03-31T14:45:18.000Z</time>
      </trkpt>
      <trkpt lat="47.57014" lon="-3.10027">
        <ele>4.6</ele>
        <time>2018-03-31T14:45:19.000Z</time>
      </trkpt>
      <trkpt lat="47.57014" lon="-3.10027">
        <ele>4.6</ele>
        <time>2018-03-31T14:45:20.000Z</time>
      </trkpt>
      <trkpt lat="47.57014" lon="-3.10027">
        <ele>4.6</ele>
        <time>2018-03-31T14:45:21.000Z</time>
      </trkpt>
      <trkpt lat="47.57014" lon="-3.10027">
        <ele>4.6</ele>
        <time>2018-03-31T14:45:22.000Z</time>
      </trkpt>
      <trkpt lat="47.57014" lon="-3.10027">
        <ele>4.6</ele>
        <time>2018-03-31T14:45:23.000Z</time>
      </trkpt>
      <trkpt lat="47.57014" lon="-3.10027">
        <ele>4.6</ele>
        <time>2018-03-31T14:45:24.000Z</time>
      </trkpt>
      <trkpt lat="47.57014" lon="-3.10027">
        <ele>4.6</ele>
        <time>2018-03-31T14:45:25.000Z</time>
      </trkpt>
      <trkpt lat="47.57014" lon="-3.10027">
        <ele>4.6</ele>
        <time>2018-03-31T14:45:26.000Z</time>
      </trkpt>
      <trkpt lat="47.57014" lon="-3.10027">
        <ele>4.6</ele>
        <time>2018-03-31T14:45:27.000Z</time>
      </trkpt>
      <trkpt lat="47.57014" lon="-3.10027">
        <ele>4.6</ele>
        <time>2018-03-31T14:45:28.000Z</time>
      </trkpt>
      <trkpt lat="47.57014" lon="-3.10027">
        <ele>4.6</ele>
        <time>2018-03-31T14:45:29.000Z</time>
      </trkpt>
      <trkpt lat="47.57014" lon="-3.10027">
        <ele>4.6</ele>
        <time>2018-03-31T14:45:30.000Z</time>
      </trkpt>
      <trkpt lat="47.57014" lon="-3.10027">
        <ele>4.6</ele>
        <time>2018-03-31T14:45:31.000Z</time>
      </trkpt>
      <trkpt lat="47.57014" lon="-3.10027">
        <ele>4.6</ele>
        <time>2018-03-31T14:45:32.000Z</time>
      </trkpt>
      <trkpt lat="47.57014" lon="-3.10027">
        <ele>4.6</ele>
        <time>2018-03-31T14:45:33.000Z</time>
      </trkpt>
      <trkpt lat="47.57014" lon="-3.10027">
        <ele>4.6</ele>
        <time>2018-03-31T14:45:34.000Z</time>
      </trkpt>
      <trkpt lat="47.57014" lon="-3.10027">
        <ele>4.6</ele>
        <time>2018-03-31T14:45:35.000Z</time>
      </trkpt>
      <trkpt lat="47.57014" lon="-3.10027">
        <ele>4.6</ele>
        <time>2018-03-31T14:45:36.000Z</time>
      </trkpt>
      <trkpt lat="47.57014" lon="-3.10027">
        <ele>4.6</ele>
        <time>2018-03-31T14:45:37.000Z</time>
      </trkpt>
      <trkpt lat="47.57014" lon="-3.10027">
        <ele>4.6</ele>
        <time>2018-03-31T14:45:38.000Z</time>
      </trkpt>
      <trkpt lat="47.57014" lon="-3.10027">
        <ele>4.6</ele>
        <time>2018-03-31T14:45:39.000Z</time>
      </trkpt>
      <trkpt lat="47.57014" lon="-3.10027">
        <ele>4.6</ele>
        <time>2018-03-31T14:45:40.000Z</time>
      </trkpt>
      <trkpt lat="47.57014" lon="-3.10027">
        <ele>4.6</ele>
        <time>2018-03-31T14:45:41.000Z</time>
      </trkpt>
      <trkpt lat="47.57014" lon="-3.10027">
        <ele>4.6</ele>
        <time>2018-03-31T14:45:42.000Z</time>
      </trkpt>
      <trkpt lat="47.57014" lon="-3.10027">
        <ele>4.6</ele>
        <time>2018-03-31T14:45:43.000Z</time>
      </trkpt>
      <trkpt lat="47.57014" lon="-3.10027">
        <ele>4.6</ele>
        <time>2018-03-31T14:45:44.000Z</time>
      </trkpt>
      <trkpt lat="47.57014" lon="-3.10027">
        <ele>4.6</ele>
        <time>2018-03-31T14:45:45.000Z</time>
      </trkpt>
      <trkpt lat="47.57014" lon="-3.10027">
        <ele>4.6</ele>
        <time>2018-03-31T14:45:46.000Z</time>
      </trkpt>
      <trkpt lat="47.57014" lon="-3.10027">
        <ele>4.6</ele>
        <time>2018-03-31T14:45:47.000Z</time>
      </trkpt>
      <trkpt lat="47.57014" lon="-3.10027">
        <ele>4.6</ele>
        <time>2018-03-31T14:45:48.000Z</time>
      </trkpt>
      <trkpt lat="47.57014" lon="-3.10027">
        <ele>4.6</ele>
        <time>2018-03-31T14:45:49.000Z</time>
      </trkpt>
      <trkpt lat="47.57014" lon="-3.10027">
        <ele>4.6</ele>
        <time>2018-03-31T14:45:50.000Z</time>
      </trkpt>
      <trkpt lat="47.57014" lon="-3.10027">
        <ele>4.6</ele>
        <time>2018-03-31T14:45:51.000Z</time>
      </trkpt>
      <trkpt lat="47.57014" lon="-3.10027">
        <ele>4.6</ele>
        <time>2018-03-31T14:45:52.000Z</time>
      </trkpt>
      <trkpt lat="47.57014" lon="-3.10027">
        <ele>4.6</ele>
        <time>2018-03-31T14:45:53.000Z</time>
      </trkpt>
      <trkpt lat="47.57014" lon="-3.10027">
        <ele>4.6</ele>
        <time>2018-03-31T14:45:54.000Z</time>
      </trkpt>
      <trkpt lat="47.57014" lon="-3.10027">
        <ele>4.6</ele>
        <time>2018-03-31T14:45:55.000Z</time>
      </trkpt>
      <trkpt lat="47.57011" lon="-3.10039">
        <ele>4.5</ele>
        <time>2018-03-31T14:45:56.000Z</time>
      </trkpt>
      <trkpt lat="47.5701" lon="-3.10039">
        <ele>4.3</ele>
        <time>2018-03-31T14:45:57.000Z</time>
      </trkpt>
      <trkpt lat="47.57009" lon="-3.10038">
        <ele>4.2</ele>
        <time>2018-03-31T14:45:58.000Z</time>
      </trkpt>
      <trkpt lat="47.5701" lon="-3.10038">
        <ele>4.3</ele>
        <time>2018-03-31T14:45:59.000Z</time>
      </trkpt>
      <trkpt lat="47.5701" lon="-3.10038">
        <ele>4.3</ele>
        <time>2018-03-31T14:46:00.000Z</time>
      </trkpt>
      <trkpt lat="47.5701" lon="-3.10038">
        <ele>4.3</ele>
        <time>2018-03-31T14:46:01.000Z</time>
      </trkpt>
      <trkpt lat="47.5701" lon="-3.10038">
        <ele>4.3</ele>
        <time>2018-03-31T14:46:02.000Z</time>
      </trkpt>
      <trkpt lat="47.5701" lon="-3.10038">
        <ele>4.3</ele>
        <time>2018-03-31T14:46:03.000Z</time>
      </trkpt>
      <trkpt lat="47.5701" lon="-3.10038">
        <ele>4.3</ele>
        <time>2018-03-31T14:46:04.000Z</time>
      </trkpt>
      <trkpt lat="47.5701" lon="-3.10038">
        <ele>4.3</ele>
        <time>2018-03-31T14:46:05.000Z</time>
      </trkpt>
      <trkpt lat="47.5701" lon="-3.10038">
        <ele>4.3</ele>
        <time>2018-03-31T14:46:06.000Z</time>
      </trkpt>
      <trkpt lat="47.5701" lon="-3.10038">
        <ele>4.3</ele>
        <time>2018-03-31T14:46:07.000Z</time>
      </trkpt>
      <trkpt lat="47.5701" lon="-3.10038">
        <ele>4.3</ele>
        <time>2018-03-31T14:46:08.000Z</time>
      </trkpt>
      <trkpt lat="47.5701" lon="-3.10038">
        <ele>4.3</ele>
        <time>2018-03-31T14:46:09.000Z</time>
      </trkpt>
      <trkpt lat="47.5701" lon="-3.10038">
        <ele>4.3</ele>
        <time>2018-03-31T14:46:10.000Z</time>
      </trkpt>
      <trkpt lat="47.5701" lon="-3.10038">
        <ele>4.3</ele>
        <time>2018-03-31T14:46:11.000Z</time>
      </trkpt>
      <trkpt lat="47.5701" lon="-3.10038">
        <ele>4.3</ele>
        <time>2018-03-31T14:46:12.000Z</time>
      </trkpt>
      <trkpt lat="47.5701" lon="-3.10038">
        <ele>4.3</ele>
        <time>2018-03-31T14:46:13.000Z</time>
      </trkpt>
      <trkpt lat="47.5701" lon="-3.10038">
        <ele>4.3</ele>
        <time>2018-03-31T14:46:14.000Z</time>
      </trkpt>
      <trkpt lat="47.5701" lon="-3.10038">
        <ele>4.3</ele>
        <time>2018-03-31T14:46:15.000Z</time>
      </trkpt>
      <trkpt lat="47.5701" lon="-3.10038">
        <ele>4.3</ele>
        <time>2018-03-31T14:46:16.000Z</time>
      </trkpt>
      <trkpt lat="47.5701" lon="-3.10038">
        <ele>4.3</ele>
        <time>2018-03-31T14:46:17.000Z</time>
      </trkpt>
      <trkpt lat="47.5701" lon="-3.10038">
        <ele>4.3</ele>
        <time>2018-03-31T14:46:18.000Z</time>
      </trkpt>
      <trkpt lat="47.5701" lon="-3.10038">
        <ele>4.3</ele>
        <time>2018-03-31T14:46:19.000Z</time>
      </trkpt>
      <trkpt lat="47.5701" lon="-3.10038">
        <ele>4.3</ele>
        <time>2018-03-31T14:46:20.000Z</time>
      </trkpt>
      <trkpt lat="47.5701" lon="-3.10038">
        <ele>4.3</ele>
        <time>2018-03-31T14:46:21.000Z</time>
      </trkpt>
      <trkpt lat="47.5701" lon="-3.10038">
        <ele>4.3</ele>
        <time>2018-03-31T14:46:22.000Z</time>
      </trkpt>
      <trkpt lat="47.5701" lon="-3.10038">
        <ele>4.3</ele>
        <time>2018-03-31T14:46:23.000Z</time>
      </trkpt>
      <trkpt lat="47.5701" lon="-3.10038">
        <ele>4.3</ele>
        <time>2018-03-31T14:46:24.000Z</time>
      </trkpt>
      <trkpt lat="47.5701" lon="-3.10038">
        <ele>4.3</ele>
        <time>2018-03-31T14:46:25.000Z</time>
      </trkpt>
      <trkpt lat="47.5701" lon="-3.10038">
        <ele>4.3</ele>
        <time>2018-03-31T14:46:26.000Z</time>
      </trkpt>
      <trkpt lat="47.5701" lon="-3.10038">
        <ele>4.3</ele>
        <time>2018-03-31T14:46:27.000Z</time>
      </trkpt>
      <trkpt lat="47.5701" lon="-3.10038">
        <ele>4.3</ele>
        <time>2018-03-31T14:46:28.000Z</time>
      </trkpt>
      <trkpt lat="47.5701" lon="-3.10038">
        <ele>4.3</ele>
        <time>2018-03-31T14:46:29.000Z</time>
      </trkpt>
      <trkpt lat="47.5701" lon="-3.10038">
        <ele>4.3</ele>
        <time>2018-03-31T14:46:30.000Z</time>
      </trkpt>
      <trkpt lat="47.5701" lon="-3.10038">
        <ele>4.3</ele>
        <time>2018-03-31T14:46:31.000Z</time>
      </trkpt>
      <trkpt lat="47.5701" lon="-3.10038">
        <ele>4.3</ele>
        <time>2018-03-31T14:46:32.000Z</time>
      </trkpt>
      <trkpt lat="47.5701" lon="-3.10038">
        <ele>4.3</ele>
        <time>2018-03-31T14:46:33.000Z</time>
      </trkpt>
      <trkpt lat="47.5701" lon="-3.10038">
        <ele>4.3</ele>
        <time>2018-03-31T14:46:34.000Z</time>
      </trkpt>
      <trkpt lat="47.5701" lon="-3.10038">
        <ele>4.3</ele>
        <time>2018-03-31T14:46:35.000Z</time>
      </trkpt>
      <trkpt lat="47.5701" lon="-3.10038">
        <ele>4.3</ele>
        <time>2018-03-31T14:46:36.000Z</time>
      </trkpt>
      <trkpt lat="47.5701" lon="-3.10038">
        <ele>4.3</ele>
        <time>2018-03-31T14:46:37.000Z</time>
      </trkpt>
      <trkpt lat="47.5701" lon="-3.10038">
        <ele>4.3</ele>
        <time>2018-03-31T14:46:38.000Z</time>
      </trkpt>
      <trkpt lat="47.5701" lon="-3.10038">
        <ele>4.3</ele>
        <time>2018-03-31T14:46:39.000Z</time>
      </trkpt>
      <trkpt lat="47.5701" lon="-3.10038">
        <ele>4.3</ele>
        <time>2018-03-31T14:46:40.000Z</time>
      </trkpt>
      <trkpt lat="47.5701" lon="-3.10038">
        <ele>4.3</ele>
        <time>2018-03-31T14:46:41.000Z</time>
      </trkpt>
      <trkpt lat="47.5701" lon="-3.10038">
        <ele>4.3</ele>
        <time>2018-03-31T14:46:42.000Z</time>
      </trkpt>
      <trkpt lat="47.5701" lon="-3.10038">
        <ele>4.3</ele>
        <time>2018-03-31T14:46:43.000Z</time>
      </trkpt>
      <trkpt lat="47.5701" lon="-3.10038">
        <ele>4.3</ele>
        <time>2018-03-31T14:46:44.000Z</time>
      </trkpt>
      <trkpt lat="47.5701" lon="-3.10038">
        <ele>4.3</ele>
        <time>2018-03-31T14:46:45.000Z</time>
      </trkpt>
      <trkpt lat="47.5701" lon="-3.10038">
        <ele>4.3</ele>
        <time>2018-03-31T14:46:46.000Z</time>
      </trkpt>
      <trkpt lat="47.5701" lon="-3.10038">
        <ele>4.3</ele>
        <time>2018-03-31T14:46:47.000Z</time>
      </trkpt>
      <trkpt lat="47.5701" lon="-3.10038">
        <ele>4.3</ele>
        <time>2018-03-31T14:46:48.000Z</time>
      </trkpt>
      <trkpt lat="47.5701" lon="-3.10038">
        <ele>4.3</ele>
        <time>2018-03-31T14:46:49.000Z</time>
      </trkpt>
      <trkpt lat="47.5701" lon="-3.10038">
        <ele>4.3</ele>
        <time>2018-03-31T14:46:50.000Z</time>
      </trkpt>
      <trkpt lat="47.5701" lon="-3.10038">
        <ele>4.3</ele>
        <time>2018-03-31T14:46:51.000Z</time>
      </trkpt>
      <trkpt lat="47.5701" lon="-3.10038">
        <ele>4.3</ele>
        <time>2018-03-31T14:46:52.000Z</time>
      </trkpt>
      <trkpt lat="47.5701" lon="-3.10038">
        <ele>4.3</ele>
        <time>2018-03-31T14:46:53.000Z</time>
      </trkpt>
      <trkpt lat="47.5701" lon="-3.10038">
        <ele>4.3</ele>
        <time>2018-03-31T14:46:54.000Z</time>
      </trkpt>
      <trkpt lat="47.5701" lon="-3.10038">
        <ele>4.3</ele>
        <time>2018-03-31T14:46:55.000Z</time>
      </trkpt>
      <trkpt lat="47.5701" lon="-3.10038">
        <ele>4.3</ele>
        <time>2018-03-31T14:46:56.000Z</time>
      </trkpt>
      <trkpt lat="47.5701" lon="-3.10038">
        <ele>4.3</ele>
        <time>2018-03-31T14:46:57.000Z</time>
      </trkpt>
      <trkpt lat="47.5701" lon="-3.10038">
        <ele>4.3</ele>
        <time>2018-03-31T14:46:58.000Z</time>
      </trkpt>
      <trkpt lat="47.5701" lon="-3.10038">
        <ele>4.3</ele>
        <time>2018-03-31T14:46:59.000Z</time>
      </trkpt>
      <trkpt lat="47.5701" lon="-3.10038">
        <ele>4.3</ele>
        <time>2018-03-31T14:47:00.000Z</time>
      </trkpt>
      <trkpt lat="47.5701" lon="-3.10038">
        <ele>4.3</ele>
        <time>2018-03-31T14:47:01.000Z</time>
      </trkpt>
      <trkpt lat="47.5701" lon="-3.10038">
        <ele>4.3</ele>
        <time>2018-03-31T14:47:02.000Z</time>
      </trkpt>
      <trkpt lat="47.5701" lon="-3.10038">
        <ele>4.3</ele>
        <time>2018-03-31T14:47:03.000Z</time>
      </trkpt>
      <trkpt lat="47.5701" lon="-3.10038">
        <ele>4.3</ele>
        <time>2018-03-31T14:47:04.000Z</time>
      </trkpt>
      <trkpt lat="47.5701" lon="-3.10038">
        <ele>4.3</ele>
        <time>2018-03-31T14:47:05.000Z</time>
      </trkpt>
      <trkpt lat="47.5701" lon="-3.10038">
        <ele>4.3</ele>
        <time>2018-03-31T14:47:06.000Z</time>
      </trkpt>
      <trkpt lat="47.5701" lon="-3.10038">
        <ele>4.3</ele>
        <time>2018-03-31T14:47:07.000Z</time>
      </trkpt>
      <trkpt lat="47.5701" lon="-3.10038">
        <ele>4.3</ele>
        <time>2018-03-31T14:47:08.000Z</time>
      </trkpt>
      <trkpt lat="47.5701" lon="-3.10038">
        <ele>4.3</ele>
        <time>2018-03-31T14:47:09.000Z</time>
      </trkpt>
      <trkpt lat="47.5701" lon="-3.10038">
        <ele>4.3</ele>
        <time>2018-03-31T14:47:10.000Z</time>
      </trkpt>
      <trkpt lat="47.5701" lon="-3.10038">
        <ele>4.3</ele>
        <time>2018-03-31T14:47:11.000Z</time>
      </trkpt>
      <trkpt lat="47.5701" lon="-3.10038">
        <ele>4.3</ele>
        <time>2018-03-31T14:47:12.000Z</time>
      </trkpt>
      <trkpt lat="47.5701" lon="-3.10038">
        <ele>4.3</ele>
        <time>2018-03-31T14:47:13.000Z</time>
      </trkpt>
      <trkpt lat="47.5701" lon="-3.10038">
        <ele>4.3</ele>
        <time>2018-03-31T14:47:14.000Z</time>
      </trkpt>
      <trkpt lat="47.5701" lon="-3.10038">
        <ele>4.3</ele>
        <time>2018-03-31T14:47:15.000Z</time>
      </trkpt>
      <trkpt lat="47.5701" lon="-3.10038">
        <ele>4.3</ele>
        <time>2018-03-31T14:47:16.000Z</time>
      </trkpt>
      <trkpt lat="47.5701" lon="-3.10038">
        <ele>4.3</ele>
        <time>2018-03-31T14:47:17.000Z</time>
      </trkpt>
      <trkpt lat="47.5701" lon="-3.10038">
        <ele>4.3</ele>
        <time>2018-03-31T14:47:18.000Z</time>
      </trkpt>
      <trkpt lat="47.5701" lon="-3.10038">
        <ele>4.3</ele>
        <time>2018-03-31T14:47:19.000Z</time>
      </trkpt>
      <trkpt lat="47.5701" lon="-3.10038">
        <ele>4.3</ele>
        <time>2018-03-31T14:47:20.000Z</time>
      </trkpt>
      <trkpt lat="47.5701" lon="-3.10038">
        <ele>4.3</ele>
        <time>2018-03-31T14:47:21.000Z</time>
      </trkpt>
      <trkpt lat="47.5701" lon="-3.10038">
        <ele>4.3</ele>
        <time>2018-03-31T14:47:22.000Z</time>
      </trkpt>
      <trkpt lat="47.5701" lon="-3.10038">
        <ele>4.3</ele>
        <time>2018-03-31T14:47:23.000Z</time>
      </trkpt>
      <trkpt lat="47.5701" lon="-3.10038">
        <ele>4.3</ele>
        <time>2018-03-31T14:47:24.000Z</time>
      </trkpt>
      <trkpt lat="47.5701" lon="-3.10038">
        <ele>4.3</ele>
        <time>2018-03-31T14:47:25.000Z</time>
      </trkpt>
      <trkpt lat="47.5701" lon="-3.10038">
        <ele>4.3</ele>
        <time>2018-03-31T14:47:26.000Z</time>
      </trkpt>
      <trkpt lat="47.5701" lon="-3.10038">
        <ele>4.3</ele>
        <time>2018-03-31T14:47:27.000Z</time>
      </trkpt>
      <trkpt lat="47.5701" lon="-3.10038">
        <ele>4.3</ele>
        <time>2018-03-31T14:47:28.000Z</time>
      </trkpt>
      <trkpt lat="47.5701" lon="-3.10038">
        <ele>4.3</ele>
        <time>2018-03-31T14:47:29.000Z</time>
      </trkpt>
      <trkpt lat="47.5701" lon="-3.10038">
        <ele>4.3</ele>
        <time>2018-03-31T14:47:30.000Z</time>
      </trkpt>
      <trkpt lat="47.5701" lon="-3.10038">
        <ele>4.3</ele>
        <time>2018-03-31T14:47:31.000Z</time>
      </trkpt>
      <trkpt lat="47.5701" lon="-3.10038">
        <ele>4.3</ele>
        <time>2018-03-31T14:47:32.000Z</time>
      </trkpt>
      <trkpt lat="47.5701" lon="-3.10038">
        <ele>4.3</ele>
        <time>2018-03-31T14:47:33.000Z</time>
      </trkpt>
      <trkpt lat="47.5701" lon="-3.10038">
        <ele>4.3</ele>
        <time>2018-03-31T14:47:34.000Z</time>
      </trkpt>
      <trkpt lat="47.5701" lon="-3.10038">
        <ele>4.3</ele>
        <time>2018-03-31T14:47:35.000Z</time>
      </trkpt>
      <trkpt lat="47.5701" lon="-3.10038">
        <ele>4.3</ele>
        <time>2018-03-31T14:47:36.000Z</time>
      </trkpt>
      <trkpt lat="47.5701" lon="-3.10038">
        <ele>4.3</ele>
        <time>2018-03-31T14:47:37.000Z</time>
      </trkpt>
      <trkpt lat="47.5701" lon="-3.10038">
        <ele>4.3</ele>
        <time>2018-03-31T14:47:38.000Z</time>
      </trkpt>
      <trkpt lat="47.5701" lon="-3.10038">
        <ele>4.3</ele>
        <time>2018-03-31T14:47:39.000Z</time>
      </trkpt>
      <trkpt lat="47.5701" lon="-3.10038">
        <ele>4.3</ele>
        <time>2018-03-31T14:47:40.000Z</time>
      </trkpt>
      <trkpt lat="47.5701" lon="-3.10036">
        <ele>4.3</ele>
        <time>2018-03-31T14:47:41.000Z</time>
      </trkpt>
      <trkpt lat="47.57011" lon="-3.10036">
        <ele>4.4</ele>
        <time>2018-03-31T14:47:42.000Z</time>
      </trkpt>
      <trkpt lat="47.57011" lon="-3.10036">
        <ele>4.4</ele>
        <time>2018-03-31T14:47:43.000Z</time>
      </trkpt>
      <trkpt lat="47.57011" lon="-3.10036">
        <ele>4.5</ele>
        <time>2018-03-31T14:47:44.000Z</time>
      </trkpt>
      <trkpt lat="47.57011" lon="-3.10036">
        <ele>4.5</ele>
        <time>2018-03-31T14:47:45.000Z</time>
      </trkpt>
      <trkpt lat="47.57011" lon="-3.10036">
        <ele>4.5</ele>
        <time>2018-03-31T14:47:46.000Z</time>
      </trkpt>
      <trkpt lat="47.57011" lon="-3.10036">
        <ele>4.5</ele>
        <time>2018-03-31T14:47:47.000Z</time>
      </trkpt>
      <trkpt lat="47.57011" lon="-3.10036">
        <ele>4.5</ele>
        <time>2018-03-31T14:47:48.000Z</time>
      </trkpt>
      <trkpt lat="47.57011" lon="-3.10036">
        <ele>4.5</ele>
        <time>2018-03-31T14:47:49.000Z</time>
      </trkpt>
      <trkpt lat="47.57011" lon="-3.10036">
        <ele>4.5</ele>
        <time>2018-03-31T14:47:50.000Z</time>
      </trkpt>
      <trkpt lat="47.57011" lon="-3.10036">
        <ele>4.5</ele>
        <time>2018-03-31T14:47:51.000Z</time>
      </trkpt>
      <trkpt lat="47.57011" lon="-3.10036">
        <ele>4.5</ele>
        <time>2018-03-31T14:47:52.000Z</time>
      </trkpt>
      <trkpt lat="47.57011" lon="-3.10036">
        <ele>4.5</ele>
        <time>2018-03-31T14:47:53.000Z</time>
      </trkpt>
      <trkpt lat="47.57011" lon="-3.10036">
        <ele>4.5</ele>
        <time>2018-03-31T14:47:54.000Z</time>
      </trkpt>
      <trkpt lat="47.57011" lon="-3.10036">
        <ele>4.5</ele>
        <time>2018-03-31T14:47:55.000Z</time>
      </trkpt>
      <trkpt lat="47.57011" lon="-3.10036">
        <ele>4.5</ele>
        <time>2018-03-31T14:47:56.000Z</time>
      </trkpt>
      <trkpt lat="47.57011" lon="-3.10036">
        <ele>4.5</ele>
        <time>2018-03-31T14:47:57.000Z</time>
      </trkpt>
      <trkpt lat="47.57011" lon="-3.10036">
        <ele>4.5</ele>
        <time>2018-03-31T14:47:58.000Z</time>
      </trkpt>
      <trkpt lat="47.57011" lon="-3.10036">
        <ele>4.5</ele>
        <time>2018-03-31T14:47:59.000Z</time>
      </trkpt>
      <trkpt lat="47.57013" lon="-3.10037">
        <ele>4.7</ele>
        <time>2018-03-31T14:48:00.000Z</time>
      </trkpt>
      <trkpt lat="47.57013" lon="-3.1004">
        <ele>4.8</ele>
        <time>2018-03-31T14:48:01.000Z</time>
      </trkpt>
      <trkpt lat="47.57013" lon="-3.10042">
        <ele>4.9</ele>
        <time>2018-03-31T14:48:02.000Z</time>
      </trkpt>
      <trkpt lat="47.57014" lon="-3.10044">
        <ele>5</ele>
        <time>2018-03-31T14:48:03.000Z</time>
      </trkpt>
      <trkpt lat="47.57015" lon="-3.10043">
        <ele>5.2</ele>
        <time>2018-03-31T14:48:04.000Z</time>
      </trkpt>
      <trkpt lat="47.57016" lon="-3.10045">
        <ele>5.5</ele>
        <time>2018-03-31T14:48:05.000Z</time>
      </trkpt>
      <trkpt lat="47.57018" lon="-3.10046">
        <ele>5.8</ele>
        <time>2018-03-31T14:48:06.000Z</time>
      </trkpt>
      <trkpt lat="47.57017" lon="-3.10048">
        <ele>5.8</ele>
        <time>2018-03-31T14:48:07.000Z</time>
      </trkpt>
      <trkpt lat="47.57015" lon="-3.1005">
        <ele>5.5</ele>
        <time>2018-03-31T14:48:08.000Z</time>
      </trkpt>
      <trkpt lat="47.57014" lon="-3.10051">
        <ele>5.4</ele>
        <time>2018-03-31T14:48:09.000Z</time>
      </trkpt>
      <trkpt lat="47.57014" lon="-3.10052">
        <ele>5.4</ele>
        <time>2018-03-31T14:48:10.000Z</time>
      </trkpt>
      <trkpt lat="47.57014" lon="-3.10052">
        <ele>5.4</ele>
        <time>2018-03-31T14:48:11.000Z</time>
      </trkpt>
      <trkpt lat="47.57014" lon="-3.1005">
        <ele>5.3</ele>
        <time>2018-03-31T14:48:12.000Z</time>
      </trkpt>
      <trkpt lat="47.57014" lon="-3.10049">
        <ele>5.3</ele>
        <time>2018-03-31T14:48:13.000Z</time>
      </trkpt>
      <trkpt lat="47.57014" lon="-3.10048">
        <ele>5.2</ele>
        <time>2018-03-31T14:48:14.000Z</time>
      </trkpt>
      <trkpt lat="47.57014" lon="-3.10048">
        <ele>5.3</ele>
        <time>2018-03-31T14:48:15.000Z</time>
      </trkpt>
      <trkpt lat="47.57014" lon="-3.10048">
        <ele>5.3</ele>
        <time>2018-03-31T14:48:16.000Z</time>
      </trkpt>
      <trkpt lat="47.57015" lon="-3.10049">
        <ele>5.5</ele>
        <time>2018-03-31T14:48:17.000Z</time>
      </trkpt>
      <trkpt lat="47.57015" lon="-3.10049">
        <ele>5.5</ele>
        <time>2018-03-31T14:48:18.000Z</time>
      </trkpt>
      <trkpt lat="47.57015" lon="-3.10049">
        <ele>5.5</ele>
        <time>2018-03-31T14:48:19.000Z</time>
      </trkpt>
      <trkpt lat="47.57015" lon="-3.10049">
        <ele>5.5</ele>
        <time>2018-03-31T14:48:20.000Z</time>
      </trkpt>
      <trkpt lat="47.57015" lon="-3.10049">
        <ele>5.5</ele>
        <time>2018-03-31T14:48:21.000Z</time>
      </trkpt>
      <trkpt lat="47.57015" lon="-3.10049">
        <ele>5.5</ele>
        <time>2018-03-31T14:48:22.000Z</time>
      </trkpt>
      <trkpt lat="47.57015" lon="-3.10049">
        <ele>5.5</ele>
        <time>2018-03-31T14:48:23.000Z</time>
      </trkpt>
      <trkpt lat="47.57015" lon="-3.10049">
        <ele>5.5</ele>
        <time>2018-03-31T14:48:24.000Z</time>
      </trkpt>
      <trkpt lat="47.57015" lon="-3.10049">
        <ele>5.5</ele>
        <time>2018-03-31T14:48:25.000Z</time>
      </trkpt>
      <trkpt lat="47.57015" lon="-3.10049">
        <ele>5.5</ele>
        <time>2018-03-31T14:48:26.000Z</time>
      </trkpt>
      <trkpt lat="47.57015" lon="-3.10049">
        <ele>5.5</ele>
        <time>2018-03-31T14:48:27.000Z</time>
      </trkpt>
      <trkpt lat="47.57015" lon="-3.10049">
        <ele>5.5</ele>
        <time>2018-03-31T14:48:28.000Z</time>
      </trkpt>
      <trkpt lat="47.57015" lon="-3.10049">
        <ele>5.5</ele>
        <time>2018-03-31T14:48:29.000Z</time>
      </trkpt>
      <trkpt lat="47.57015" lon="-3.10049">
        <ele>5.5</ele>
        <time>2018-03-31T14:48:30.000Z</time>
      </trkpt>
      <trkpt lat="47.57015" lon="-3.10049">
        <ele>5.5</ele>
        <time>2018-03-31T14:48:31.000Z</time>
      </trkpt>
      <trkpt lat="47.57015" lon="-3.10049">
        <ele>5.5</ele>
        <time>2018-03-31T14:48:32.000Z</time>
      </trkpt>
      <trkpt lat="47.57015" lon="-3.10049">
        <ele>5.5</ele>
        <time>2018-03-31T14:48:33.000Z</time>
      </trkpt>
      <trkpt lat="47.57015" lon="-3.10049">
        <ele>5.5</ele>
        <time>2018-03-31T14:48:34.000Z</time>
      </trkpt>
      <trkpt lat="47.57015" lon="-3.10049">
        <ele>5.5</ele>
        <time>2018-03-31T14:48:35.000Z</time>
      </trkpt>
      <trkpt lat="47.57015" lon="-3.10049">
        <ele>5.5</ele>
        <time>2018-03-31T14:48:36.000Z</time>
      </trkpt>
      <trkpt lat="47.57015" lon="-3.10049">
        <ele>5.5</ele>
        <time>2018-03-31T14:48:37.000Z</time>
      </trkpt>
      <trkpt lat="47.57015" lon="-3.10049">
        <ele>5.5</ele>
        <time>2018-03-31T14:48:38.000Z</time>
      </trkpt>
      <trkpt lat="47.57015" lon="-3.10049">
        <ele>5.5</ele>
        <time>2018-03-31T14:48:39.000Z</time>
      </trkpt>
      <trkpt lat="47.57015" lon="-3.10049">
        <ele>5.5</ele>
        <time>2018-03-31T14:48:40.000Z</time>
      </trkpt>
      <trkpt lat="47.57015" lon="-3.10049">
        <ele>5.5</ele>
        <time>2018-03-31T14:48:41.000Z</time>
      </trkpt>
      <trkpt lat="47.57015" lon="-3.10049">
        <ele>5.5</ele>
        <time>2018-03-31T14:48:42.000Z</time>
      </trkpt>
      <trkpt lat="47.57015" lon="-3.10049">
        <ele>5.5</ele>
        <time>2018-03-31T14:48:43.000Z</time>
      </trkpt>
      <trkpt lat="47.57015" lon="-3.10049">
        <ele>5.5</ele>
        <time>2018-03-31T14:48:44.000Z</time>
      </trkpt>
      <trkpt lat="47.57015" lon="-3.10049">
        <ele>5.5</ele>
        <time>2018-03-31T14:48:45.000Z</time>
      </trkpt>
      <trkpt lat="47.57015" lon="-3.10049">
        <ele>5.5</ele>
        <time>2018-03-31T14:48:46.000Z</time>
      </trkpt>
      <trkpt lat="47.57015" lon="-3.10049">
        <ele>5.5</ele>
        <time>2018-03-31T14:48:47.000Z</time>
      </trkpt>
      <trkpt lat="47.57015" lon="-3.10049">
        <ele>5.5</ele>
        <time>2018-03-31T14:48:48.000Z</time>
      </trkpt>
      <trkpt lat="47.57015" lon="-3.10049">
        <ele>5.5</ele>
        <time>2018-03-31T14:48:49.000Z</time>
      </trkpt>
      <trkpt lat="47.57015" lon="-3.10049">
        <ele>5.5</ele>
        <time>2018-03-31T14:48:50.000Z</time>
      </trkpt>
      <trkpt lat="47.57015" lon="-3.10049">
        <ele>5.5</ele>
        <time>2018-03-31T14:48:51.000Z</time>
      </trkpt>
      <trkpt lat="47.57015" lon="-3.10049">
        <ele>5.5</ele>
        <time>2018-03-31T14:48:52.000Z</time>
      </trkpt>
      <trkpt lat="47.57015" lon="-3.10049">
        <ele>5.5</ele>
        <time>2018-03-31T14:48:53.000Z</time>
      </trkpt>
      <trkpt lat="47.57015" lon="-3.10049">
        <ele>5.5</ele>
        <time>2018-03-31T14:48:54.000Z</time>
      </trkpt>
      <trkpt lat="47.57015" lon="-3.10049">
        <ele>5.5</ele>
        <time>2018-03-31T14:48:55.000Z</time>
      </trkpt>
      <trkpt lat="47.57015" lon="-3.10049">
        <ele>5.5</ele>
        <time>2018-03-31T14:48:56.000Z</time>
      </trkpt>
      <trkpt lat="47.57015" lon="-3.10049">
        <ele>5.5</ele>
        <time>2018-03-31T14:48:57.000Z</time>
      </trkpt>
      <trkpt lat="47.57015" lon="-3.10049">
        <ele>5.5</ele>
        <time>2018-03-31T14:48:58.000Z</time>
      </trkpt>
      <trkpt lat="47.57015" lon="-3.10049">
        <ele>5.5</ele>
        <time>2018-03-31T14:48:59.000Z</time>
      </trkpt>
      <trkpt lat="47.57015" lon="-3.10049">
        <ele>5.5</ele>
        <time>2018-03-31T14:49:00.000Z</time>
      </trkpt>
      <trkpt lat="47.57015" lon="-3.10049">
        <ele>5.5</ele>
        <time>2018-03-31T14:49:01.000Z</time>
      </trkpt>
      <trkpt lat="47.57015" lon="-3.10049">
        <ele>5.5</ele>
        <time>2018-03-31T14:49:02.000Z</time>
      </trkpt>
      <trkpt lat="47.57015" lon="-3.10049">
        <ele>5.5</ele>
        <time>2018-03-31T14:49:03.000Z</time>
      </trkpt>
      <trkpt lat="47.57015" lon="-3.10049">
        <ele>5.5</ele>
        <time>2018-03-31T14:49:04.000Z</time>
      </trkpt>
      <trkpt lat="47.57015" lon="-3.10049">
        <ele>5.5</ele>
        <time>2018-03-31T14:49:05.000Z</time>
      </trkpt>
      <trkpt lat="47.57015" lon="-3.10049">
        <ele>5.5</ele>
        <time>2018-03-31T14:49:06.000Z</time>
      </trkpt>
      <trkpt lat="47.57015" lon="-3.10049">
        <ele>5.5</ele>
        <time>2018-03-31T14:49:07.000Z</time>
      </trkpt>
      <trkpt lat="47.57015" lon="-3.10049">
        <ele>5.5</ele>
        <time>2018-03-31T14:49:08.000Z</time>
      </trkpt>
      <trkpt lat="47.57015" lon="-3.10049">
        <ele>5.5</ele>
        <time>2018-03-31T14:49:09.000Z</time>
      </trkpt>
      <trkpt lat="47.57015" lon="-3.10049">
        <ele>5.5</ele>
        <time>2018-03-31T14:49:10.000Z</time>
      </trkpt>
      <trkpt lat="47.57011" lon="-3.10048">
        <ele>4.8</ele>
        <time>2018-03-31T14:49:11.000Z</time>
      </trkpt>
      <trkpt lat="47.5701" lon="-3.10049">
        <ele>4.7</ele>
        <time>2018-03-31T14:49:12.000Z</time>
      </trkpt>
      <trkpt lat="47.5701" lon="-3.1005">
        <ele>4.6</ele>
        <time>2018-03-31T14:49:13.000Z</time>
      </trkpt>
      <trkpt lat="47.5701" lon="-3.1005">
        <ele>4.6</ele>
        <time>2018-03-31T14:49:14.000Z</time>
      </trkpt>
      <trkpt lat="47.5701" lon="-3.1005">
        <ele>4.6</ele>
        <time>2018-03-31T14:49:15.000Z</time>
      </trkpt>
      <trkpt lat="47.5701" lon="-3.1005">
        <ele>4.6</ele>
        <time>2018-03-31T14:49:16.000Z</time>
      </trkpt>
      <trkpt lat="47.5701" lon="-3.1005">
        <ele>4.6</ele>
        <time>2018-03-31T14:49:17.000Z</time>
      </trkpt>
      <trkpt lat="47.5701" lon="-3.1005">
        <ele>4.6</ele>
        <time>2018-03-31T14:49:18.000Z</time>
      </trkpt>
      <trkpt lat="47.5701" lon="-3.1005">
        <ele>4.6</ele>
        <time>2018-03-31T14:49:19.000Z</time>
      </trkpt>
      <trkpt lat="47.5701" lon="-3.1005">
        <ele>4.6</ele>
        <time>2018-03-31T14:49:20.000Z</time>
      </trkpt>
      <trkpt lat="47.5701" lon="-3.1005">
        <ele>4.6</ele>
        <time>2018-03-31T14:49:21.000Z</time>
      </trkpt>
      <trkpt lat="47.5701" lon="-3.1005">
        <ele>4.6</ele>
        <time>2018-03-31T14:49:22.000Z</time>
      </trkpt>
      <trkpt lat="47.5701" lon="-3.1005">
        <ele>4.6</ele>
        <time>2018-03-31T14:49:23.000Z</time>
      </trkpt>
      <trkpt lat="47.5701" lon="-3.1005">
        <ele>4.6</ele>
        <time>2018-03-31T14:49:24.000Z</time>
      </trkpt>
      <trkpt lat="47.5701" lon="-3.1005">
        <ele>4.6</ele>
        <time>2018-03-31T14:49:25.000Z</time>
      </trkpt>
      <trkpt lat="47.5701" lon="-3.1005">
        <ele>4.6</ele>
        <time>2018-03-31T14:49:26.000Z</time>
      </trkpt>
      <trkpt lat="47.5701" lon="-3.1005">
        <ele>4.6</ele>
        <time>2018-03-31T14:49:27.000Z</time>
      </trkpt>
      <trkpt lat="47.5701" lon="-3.1005">
        <ele>4.6</ele>
        <time>2018-03-31T14:49:28.000Z</time>
      </trkpt>
      <trkpt lat="47.5701" lon="-3.1005">
        <ele>4.6</ele>
        <time>2018-03-31T14:49:29.000Z</time>
      </trkpt>
      <trkpt lat="47.5701" lon="-3.1005">
        <ele>4.6</ele>
        <time>2018-03-31T14:49:30.000Z</time>
      </trkpt>
      <trkpt lat="47.57006" lon="-3.10056">
        <ele>4.1</ele>
        <time>2018-03-31T14:49:31.000Z</time>
      </trkpt>
      <trkpt lat="47.57007" lon="-3.10056">
        <ele>4.3</ele>
        <time>2018-03-31T14:49:32.000Z</time>
      </trkpt>
      <trkpt lat="47.57009" lon="-3.10057">
        <ele>4.6</ele>
        <time>2018-03-31T14:49:33.000Z</time>
      </trkpt>
      <trkpt lat="47.5701" lon="-3.10057">
        <ele>4.8</ele>
        <time>2018-03-31T14:49:34.000Z</time>
      </trkpt>
      <trkpt lat="47.5701" lon="-3.10057">
        <ele>4.8</ele>
        <time>2018-03-31T14:49:35.000Z</time>
      </trkpt>
      <trkpt lat="47.5701" lon="-3.10057">
        <ele>4.8</ele>
        <time>2018-03-31T14:49:36.000Z</time>
      </trkpt>
      <trkpt lat="47.5701" lon="-3.10057">
        <ele>4.8</ele>
        <time>2018-03-31T14:49:37.000Z</time>
      </trkpt>
      <trkpt lat="47.5701" lon="-3.10057">
        <ele>4.8</ele>
        <time>2018-03-31T14:49:38.000Z</time>
      </trkpt>
      <trkpt lat="47.5701" lon="-3.10057">
        <ele>4.8</ele>
        <time>2018-03-31T14:49:39.000Z</time>
      </trkpt>
      <trkpt lat="47.5701" lon="-3.10057">
        <ele>4.8</ele>
        <time>2018-03-31T14:49:40.000Z</time>
      </trkpt>
      <trkpt lat="47.5701" lon="-3.10057">
        <ele>4.8</ele>
        <time>2018-03-31T14:49:41.000Z</time>
      </trkpt>
      <trkpt lat="47.5701" lon="-3.10057">
        <ele>4.8</ele>
        <time>2018-03-31T14:49:42.000Z</time>
      </trkpt>
      <trkpt lat="47.5701" lon="-3.10057">
        <ele>4.8</ele>
        <time>2018-03-31T14:49:43.000Z</time>
      </trkpt>
      <trkpt lat="47.5701" lon="-3.10057">
        <ele>4.8</ele>
        <time>2018-03-31T14:49:44.000Z</time>
      </trkpt>
      <trkpt lat="47.5701" lon="-3.10057">
        <ele>4.8</ele>
        <time>2018-03-31T14:49:45.000Z</time>
      </trkpt>
      <trkpt lat="47.5701" lon="-3.10057">
        <ele>4.8</ele>
        <time>2018-03-31T14:49:46.000Z</time>
      </trkpt>
      <trkpt lat="47.5701" lon="-3.10057">
        <ele>4.8</ele>
        <time>2018-03-31T14:49:47.000Z</time>
      </trkpt>
      <trkpt lat="47.5701" lon="-3.10057">
        <ele>4.8</ele>
        <time>2018-03-31T14:49:48.000Z</time>
      </trkpt>
      <trkpt lat="47.5701" lon="-3.10057">
        <ele>4.8</ele>
        <time>2018-03-31T14:49:49.000Z</time>
      </trkpt>
      <trkpt lat="47.5701" lon="-3.10057">
        <ele>4.8</ele>
        <time>2018-03-31T14:49:50.000Z</time>
      </trkpt>
      <trkpt lat="47.5701" lon="-3.10057">
        <ele>4.8</ele>
        <time>2018-03-31T14:49:51.000Z</time>
      </trkpt>
      <trkpt lat="47.5701" lon="-3.10057">
        <ele>4.8</ele>
        <time>2018-03-31T14:49:52.000Z</time>
      </trkpt>
      <trkpt lat="47.5701" lon="-3.10057">
        <ele>4.8</ele>
        <time>2018-03-31T14:49:53.000Z</time>
      </trkpt>
      <trkpt lat="47.5701" lon="-3.10057">
        <ele>4.8</ele>
        <time>2018-03-31T14:49:54.000Z</time>
      </trkpt>
      <trkpt lat="47.5701" lon="-3.10057">
        <ele>4.8</ele>
        <time>2018-03-31T14:49:55.000Z</time>
      </trkpt>
      <trkpt lat="47.57008" lon="-3.10057">
        <ele>4.4</ele>
        <time>2018-03-31T14:49:56.000Z</time>
      </trkpt>
      <trkpt lat="47.57007" lon="-3.10057">
        <ele>4.3</ele>
        <time>2018-03-31T14:49:57.000Z</time>
      </trkpt>
      <trkpt lat="47.57006" lon="-3.10056">
        <ele>4.1</ele>
        <time>2018-03-31T14:49:58.000Z</time>
      </trkpt>
      <trkpt lat="47.57006" lon="-3.10055">
        <ele>4.1</ele>
        <time>2018-03-31T14:49:59.000Z</time>
      </trkpt>
      <trkpt lat="47.57008" lon="-3.10055">
        <ele>4.4</ele>
        <time>2018-03-31T14:50:00.000Z</time>
      </trkpt>
      <trkpt lat="47.57008" lon="-3.10055">
        <ele>4.4</ele>
        <time>2018-03-31T14:50:01.000Z</time>
      </trkpt>
      <trkpt lat="47.57008" lon="-3.10055">
        <ele>4.4</ele>
        <time>2018-03-31T14:50:02.000Z</time>
      </trkpt>
      <trkpt lat="47.57008" lon="-3.10055">
        <ele>4.4</ele>
        <time>2018-03-31T14:50:03.000Z</time>
      </trkpt>
      <trkpt lat="47.57008" lon="-3.10055">
        <ele>4.4</ele>
        <time>2018-03-31T14:50:04.000Z</time>
      </trkpt>
      <trkpt lat="47.57008" lon="-3.10055">
        <ele>4.4</ele>
        <time>2018-03-31T14:50:05.000Z</time>
      </trkpt>
      <trkpt lat="47.57008" lon="-3.10055">
        <ele>4.4</ele>
        <time>2018-03-31T14:50:06.000Z</time>
      </trkpt>
      <trkpt lat="47.57008" lon="-3.10055">
        <ele>4.4</ele>
        <time>2018-03-31T14:50:07.000Z</time>
      </trkpt>
      <trkpt lat="47.57008" lon="-3.10055">
        <ele>4.4</ele>
        <time>2018-03-31T14:50:08.000Z</time>
      </trkpt>
      <trkpt lat="47.57008" lon="-3.10055">
        <ele>4.4</ele>
        <time>2018-03-31T14:50:09.000Z</time>
      </trkpt>
      <trkpt lat="47.57008" lon="-3.10055">
        <ele>4.4</ele>
        <time>2018-03-31T14:50:10.000Z</time>
      </trkpt>
      <trkpt lat="47.57008" lon="-3.10055">
        <ele>4.4</ele>
        <time>2018-03-31T14:50:11.000Z</time>
      </trkpt>
      <trkpt lat="47.57008" lon="-3.10055">
        <ele>4.4</ele>
        <time>2018-03-31T14:50:12.000Z</time>
      </trkpt>
      <trkpt lat="47.57008" lon="-3.10055">
        <ele>4.4</ele>
        <time>2018-03-31T14:50:13.000Z</time>
      </trkpt>
      <trkpt lat="47.57008" lon="-3.10055">
        <ele>4.4</ele>
        <time>2018-03-31T14:50:14.000Z</time>
      </trkpt>
      <trkpt lat="47.57008" lon="-3.10055">
        <ele>4.4</ele>
        <time>2018-03-31T14:50:15.000Z</time>
      </trkpt>
      <trkpt lat="47.57008" lon="-3.10055">
        <ele>4.4</ele>
        <time>2018-03-31T14:50:16.000Z</time>
      </trkpt>
      <trkpt lat="47.57008" lon="-3.10055">
        <ele>4.4</ele>
        <time>2018-03-31T14:50:17.000Z</time>
      </trkpt>
      <trkpt lat="47.57018" lon="-3.10056">
        <ele>6.3</ele>
        <time>2018-03-31T14:50:18.000Z</time>
      </trkpt>
      <trkpt lat="47.5702" lon="-3.10055">
        <ele>6.6</ele>
        <time>2018-03-31T14:50:19.000Z</time>
      </trkpt>
      <trkpt lat="47.57022" lon="-3.10054">
        <ele>6.8</ele>
        <time>2018-03-31T14:50:20.000Z</time>
      </trkpt>
      <trkpt lat="47.57023" lon="-3.10053">
        <ele>7</ele>
        <time>2018-03-31T14:50:21.000Z</time>
      </trkpt>
      <trkpt lat="47.57023" lon="-3.10053">
        <ele>7</ele>
        <time>2018-03-31T14:50:22.000Z</time>
      </trkpt>
      <trkpt lat="47.57023" lon="-3.10053">
        <ele>7</ele>
        <time>2018-03-31T14:50:23.000Z</time>
      </trkpt>
      <trkpt lat="47.57023" lon="-3.10053">
        <ele>7</ele>
        <time>2018-03-31T14:50:24.000Z</time>
      </trkpt>
      <trkpt lat="47.57023" lon="-3.10053">
        <ele>7</ele>
        <time>2018-03-31T14:50:25.000Z</time>
      </trkpt>
      <trkpt lat="47.57023" lon="-3.10053">
        <ele>7</ele>
        <time>2018-03-31T14:50:26.000Z</time>
      </trkpt>
      <trkpt lat="47.57023" lon="-3.10053">
        <ele>7</ele>
        <time>2018-03-31T14:50:27.000Z</time>
      </trkpt>
      <trkpt lat="47.57023" lon="-3.10053">
        <ele>7</ele>
        <time>2018-03-31T14:50:28.000Z</time>
      </trkpt>
      <trkpt lat="47.57023" lon="-3.10053">
        <ele>7</ele>
        <time>2018-03-31T14:50:29.000Z</time>
      </trkpt>
      <trkpt lat="47.57023" lon="-3.10053">
        <ele>7</ele>
        <time>2018-03-31T14:50:30.000Z</time>
      </trkpt>
      <trkpt lat="47.57023" lon="-3.10053">
        <ele>7</ele>
        <time>2018-03-31T14:50:31.000Z</time>
      </trkpt>
      <trkpt lat="47.57023" lon="-3.10053">
        <ele>7</ele>
        <time>2018-03-31T14:50:32.000Z</time>
      </trkpt>
      <trkpt lat="47.57015" lon="-3.10059">
        <ele>5.8</ele>
        <time>2018-03-31T14:50:33.000Z</time>
      </trkpt>
      <trkpt lat="47.57013" lon="-3.10059">
        <ele>5.4</ele>
        <time>2018-03-31T14:50:34.000Z</time>
      </trkpt>
      <trkpt lat="47.57011" lon="-3.10059">
        <ele>5</ele>
        <time>2018-03-31T14:50:35.000Z</time>
      </trkpt>
      <trkpt lat="47.5701" lon="-3.10059">
        <ele>4.8</ele>
        <time>2018-03-31T14:50:36.000Z</time>
      </trkpt>
      <trkpt lat="47.57009" lon="-3.1006">
        <ele>4.7</ele>
        <time>2018-03-31T14:50:37.000Z</time>
      </trkpt>
      <trkpt lat="47.57007" lon="-3.1006">
        <ele>4.4</ele>
        <time>2018-03-31T14:50:38.000Z</time>
      </trkpt>
      <trkpt lat="47.57007" lon="-3.1006">
        <ele>4.4</ele>
        <time>2018-03-31T14:50:39.000Z</time>
      </trkpt>
      <trkpt lat="47.57004" lon="-3.10061">
        <ele>3.8</ele>
        <time>2018-03-31T14:50:40.000Z</time>
      </trkpt>
      <trkpt lat="47.57009" lon="-3.10055">
        <ele>4.6</ele>
        <time>2018-03-31T14:50:41.000Z</time>
      </trkpt>
      <trkpt lat="47.5701" lon="-3.10053">
        <ele>4.7</ele>
        <time>2018-03-31T14:50:42.000Z</time>
      </trkpt>
      <trkpt lat="47.57009" lon="-3.10053">
        <ele>4.5</ele>
        <time>2018-03-31T14:50:43.000Z</time>
      </trkpt>
      <trkpt lat="47.57009" lon="-3.10051">
        <ele>4.4</ele>
        <time>2018-03-31T14:50:44.000Z</time>
      </trkpt>
      <trkpt lat="47.57008" lon="-3.10049">
        <ele>4.4</ele>
        <time>2018-03-31T14:50:45.000Z</time>
      </trkpt>
      <trkpt lat="47.57008" lon="-3.1005">
        <ele>4.2</ele>
        <time>2018-03-31T14:50:46.000Z</time>
      </trkpt>
      <trkpt lat="47.57006" lon="-3.10049">
        <ele>4</ele>
        <time>2018-03-31T14:50:47.000Z</time>
      </trkpt>
      <trkpt lat="47.57006" lon="-3.10049">
        <ele>4</ele>
        <time>2018-03-31T14:50:48.000Z</time>
      </trkpt>
      <trkpt lat="47.57006" lon="-3.10049">
        <ele>4</ele>
        <time>2018-03-31T14:50:49.000Z</time>
      </trkpt>
      <trkpt lat="47.57006" lon="-3.10049">
        <ele>4</ele>
        <time>2018-03-31T14:50:50.000Z</time>
      </trkpt>
      <trkpt lat="47.57006" lon="-3.10049">
        <ele>4</ele>
        <time>2018-03-31T14:50:51.000Z</time>
      </trkpt>
      <trkpt lat="47.57006" lon="-3.10049">
        <ele>4</ele>
        <time>2018-03-31T14:50:52.000Z</time>
      </trkpt>
      <trkpt lat="47.57006" lon="-3.10049">
        <ele>4</ele>
        <time>2018-03-31T14:50:53.000Z</time>
      </trkpt>
      <trkpt lat="47.57007" lon="-3.10047">
        <ele>4.1</ele>
        <time>2018-03-31T14:50:54.000Z</time>
      </trkpt>
      <trkpt lat="47.57008" lon="-3.10045">
        <ele>4.2</ele>
        <time>2018-03-31T14:50:55.000Z</time>
      </trkpt>
      <trkpt lat="47.57008" lon="-3.10044">
        <ele>4.1</ele>
        <time>2018-03-31T14:50:56.000Z</time>
      </trkpt>
      <trkpt lat="47.57008" lon="-3.10043">
        <ele>4.1</ele>
        <time>2018-03-31T14:50:57.000Z</time>
      </trkpt>
      <trkpt lat="47.57008" lon="-3.10041">
        <ele>4.1</ele>
        <time>2018-03-31T14:50:58.000Z</time>
      </trkpt>
      <trkpt lat="47.57008" lon="-3.10041">
        <ele>4.1</ele>
        <time>2018-03-31T14:50:59.000Z</time>
      </trkpt>
      <trkpt lat="47.57008" lon="-3.10041">
        <ele>4.1</ele>
        <time>2018-03-31T14:51:00.000Z</time>
      </trkpt>
      <trkpt lat="47.57008" lon="-3.10041">
        <ele>4.1</ele>
        <time>2018-03-31T14:51:01.000Z</time>
      </trkpt>
      <trkpt lat="47.57008" lon="-3.10041">
        <ele>4.1</ele>
        <time>2018-03-31T14:51:02.000Z</time>
      </trkpt>
      <trkpt lat="47.57008" lon="-3.10041">
        <ele>4.1</ele>
        <time>2018-03-31T14:51:03.000Z</time>
      </trkpt>
      <trkpt lat="47.57008" lon="-3.10041">
        <ele>4.1</ele>
        <time>2018-03-31T14:51:04.000Z</time>
      </trkpt>
      <trkpt lat="47.57006" lon="-3.1003">
        <ele>3.7</ele>
        <time>2018-03-31T14:51:05.000Z</time>
      </trkpt>
      <trkpt lat="47.57006" lon="-3.10028">
        <ele>3.7</ele>
        <time>2018-03-31T14:51:06.000Z</time>
      </trkpt>
      <trkpt lat="47.57006" lon="-3.10026">
        <ele>3.7</ele>
        <time>2018-03-31T14:51:07.000Z</time>
      </trkpt>
      <trkpt lat="47.57006" lon="-3.10023">
        <ele>3.8</ele>
        <time>2018-03-31T14:51:08.000Z</time>
      </trkpt>
      <trkpt lat="47.57006" lon="-3.1002">
        <ele>3.8</ele>
        <time>2018-03-31T14:51:09.000Z</time>
      </trkpt>
      <trkpt lat="47.57006" lon="-3.1002">
        <ele>3.8</ele>
        <time>2018-03-31T14:51:10.000Z</time>
      </trkpt>
      <trkpt lat="47.57006" lon="-3.1002">
        <ele>3.8</ele>
        <time>2018-03-31T14:51:11.000Z</time>
      </trkpt>
      <trkpt lat="47.57006" lon="-3.1002">
        <ele>3.8</ele>
        <time>2018-03-31T14:51:12.000Z</time>
      </trkpt>
      <trkpt lat="47.57006" lon="-3.1002">
        <ele>3.8</ele>
        <time>2018-03-31T14:51:13.000Z</time>
      </trkpt>
      <trkpt lat="47.57006" lon="-3.1002">
        <ele>3.8</ele>
        <time>2018-03-31T14:51:14.000Z</time>
      </trkpt>
      <trkpt lat="47.57006" lon="-3.1002">
        <ele>3.8</ele>
        <time>2018-03-31T14:51:15.000Z</time>
      </trkpt>
      <trkpt lat="47.57006" lon="-3.1002">
        <ele>3.8</ele>
        <time>2018-03-31T14:51:16.000Z</time>
      </trkpt>
      <trkpt lat="47.57006" lon="-3.1002">
        <ele>3.8</ele>
        <time>2018-03-31T14:51:17.000Z</time>
      </trkpt>
      <trkpt lat="47.57006" lon="-3.1002">
        <ele>3.8</ele>
        <time>2018-03-31T14:51:18.000Z</time>
      </trkpt>
      <trkpt lat="47.57006" lon="-3.1002">
        <ele>3.8</ele>
        <time>2018-03-31T14:51:19.000Z</time>
      </trkpt>
      <trkpt lat="47.57006" lon="-3.1002">
        <ele>3.8</ele>
        <time>2018-03-31T14:51:20.000Z</time>
      </trkpt>
      <trkpt lat="47.57006" lon="-3.1002">
        <ele>3.8</ele>
        <time>2018-03-31T14:51:21.000Z</time>
      </trkpt>
      <trkpt lat="47.57002" lon="-3.10007">
        <ele>3.9</ele>
        <time>2018-03-31T14:51:22.000Z</time>
      </trkpt>
      <trkpt lat="47.57001" lon="-3.10006">
        <ele>3.9</ele>
        <time>2018-03-31T14:51:23.000Z</time>
      </trkpt>
      <trkpt lat="47.57" lon="-3.10006">
        <ele>3.8</ele>
        <time>2018-03-31T14:51:24.000Z</time>
      </trkpt>
      <trkpt lat="47.57" lon="-3.10006">
        <ele>3.8</ele>
        <time>2018-03-31T14:51:25.000Z</time>
      </trkpt>
      <trkpt lat="47.56999" lon="-3.10005">
        <ele>3.8</ele>
        <time>2018-03-31T14:51:26.000Z</time>
      </trkpt>
      <trkpt lat="47.56999" lon="-3.10005">
        <ele>3.8</ele>
        <time>2018-03-31T14:51:27.000Z</time>
      </trkpt>
      <trkpt lat="47.56999" lon="-3.10005">
        <ele>3.8</ele>
        <time>2018-03-31T14:51:28.000Z</time>
      </trkpt>
      <trkpt lat="47.56999" lon="-3.10005">
        <ele>3.8</ele>
        <time>2018-03-31T14:51:29.000Z</time>
      </trkpt>
      <trkpt lat="47.56999" lon="-3.10005">
        <ele>3.8</ele>
        <time>2018-03-31T14:51:30.000Z</time>
      </trkpt>
      <trkpt lat="47.56999" lon="-3.10005">
        <ele>3.8</ele>
        <time>2018-03-31T14:51:31.000Z</time>
      </trkpt>
      <trkpt lat="47.56999" lon="-3.10005">
        <ele>3.8</ele>
        <time>2018-03-31T14:51:32.000Z</time>
      </trkpt>
      <trkpt lat="47.57" lon="-3.10009">
        <ele>3.7</ele>
        <time>2018-03-31T14:51:33.000Z</time>
      </trkpt>
      <trkpt lat="47.57001" lon="-3.10011">
        <ele>3.7</ele>
        <time>2018-03-31T14:51:34.000Z</time>
      </trkpt>
      <trkpt lat="47.57" lon="-3.10013">
        <ele>3.6</ele>
        <time>2018-03-31T14:51:35.000Z</time>
      </trkpt>
      <trkpt lat="47.57" lon="-3.10015">
        <ele>3.5</ele>
        <time>2018-03-31T14:51:36.000Z</time>
      </trkpt>
      <trkpt lat="47.56999" lon="-3.10016">
        <ele>3.4</ele>
        <time>2018-03-31T14:51:37.000Z</time>
      </trkpt>
      <trkpt lat="47.56999" lon="-3.10016">
        <ele>3.3</ele>
        <time>2018-03-31T14:51:38.000Z</time>
      </trkpt>
      <trkpt lat="47.56999" lon="-3.10018">
        <ele>3.2</ele>
        <time>2018-03-31T14:51:39.000Z</time>
      </trkpt>
      <trkpt lat="47.56998" lon="-3.1002">
        <ele>3.1</ele>
        <time>2018-03-31T14:51:40.000Z</time>
      </trkpt>
      <trkpt lat="47.56998" lon="-3.10021">
        <ele>3.1</ele>
        <time>2018-03-31T14:51:41.000Z</time>
      </trkpt>
      <trkpt lat="47.56998" lon="-3.10022">
        <ele>3.1</ele>
        <time>2018-03-31T14:51:42.000Z</time>
      </trkpt>
      <trkpt lat="47.56999" lon="-3.10023">
        <ele>3</ele>
        <time>2018-03-31T14:51:43.000Z</time>
      </trkpt>
      <trkpt lat="47.56999" lon="-3.10024">
        <ele>3</ele>
        <time>2018-03-31T14:51:44.000Z</time>
      </trkpt>
      <trkpt lat="47.56999" lon="-3.10025">
        <ele>3</ele>
        <time>2018-03-31T14:51:45.000Z</time>
      </trkpt>
      <trkpt lat="47.56999" lon="-3.10026">
        <ele>3</ele>
        <time>2018-03-31T14:51:46.000Z</time>
      </trkpt>
      <trkpt lat="47.56999" lon="-3.10027">
        <ele>3</ele>
        <time>2018-03-31T14:51:47.000Z</time>
      </trkpt>
      <trkpt lat="47.56999" lon="-3.10027">
        <ele>3</ele>
        <time>2018-03-31T14:51:48.000Z</time>
      </trkpt>
      <trkpt lat="47.56999" lon="-3.10027">
        <ele>3</ele>
        <time>2018-03-31T14:51:49.000Z</time>
      </trkpt>
      <trkpt lat="47.56999" lon="-3.10027">
        <ele>3</ele>
        <time>2018-03-31T14:51:50.000Z</time>
      </trkpt>
      <trkpt lat="47.56999" lon="-3.10027">
        <ele>3</ele>
        <time>2018-03-31T14:51:51.000Z</time>
      </trkpt>
      <trkpt lat="47.56999" lon="-3.10027">
        <ele>3</ele>
        <time>2018-03-31T14:51:52.000Z</time>
      </trkpt>
      <trkpt lat="47.56999" lon="-3.10027">
        <ele>3</ele>
        <time>2018-03-31T14:51:53.000Z</time>
      </trkpt>
      <trkpt lat="47.56999" lon="-3.10027">
        <ele>3</ele>
        <time>2018-03-31T14:51:54.000Z</time>
      </trkpt>
      <trkpt lat="47.56999" lon="-3.10027">
        <ele>3</ele>
        <time>2018-03-31T14:51:55.000Z</time>
      </trkpt>
      <trkpt lat="47.56999" lon="-3.10027">
        <ele>3</ele>
        <time>2018-03-31T14:51:56.000Z</time>
      </trkpt>
      <trkpt lat="47.56999" lon="-3.10027">
        <ele>3</ele>
        <time>2018-03-31T14:51:57.000Z</time>
      </trkpt>
      <trkpt lat="47.56999" lon="-3.10027">
        <ele>3</ele>
        <time>2018-03-31T14:51:58.000Z</time>
      </trkpt>
      <trkpt lat="47.56999" lon="-3.10027">
        <ele>3</ele>
        <time>2018-03-31T14:51:59.000Z</time>
      </trkpt>
      <trkpt lat="47.56999" lon="-3.10027">
        <ele>3</ele>
        <time>2018-03-31T14:52:00.000Z</time>
      </trkpt>
      <trkpt lat="47.56999" lon="-3.10027">
        <ele>3</ele>
        <time>2018-03-31T14:52:01.000Z</time>
      </trkpt>
      <trkpt lat="47.56999" lon="-3.10027">
        <ele>3</ele>
        <time>2018-03-31T14:52:02.000Z</time>
      </trkpt>
      <trkpt lat="47.56999" lon="-3.10027">
        <ele>3</ele>
        <time>2018-03-31T14:52:03.000Z</time>
      </trkpt>
      <trkpt lat="47.56999" lon="-3.10027">
        <ele>3</ele>
        <time>2018-03-31T14:52:04.000Z</time>
      </trkpt>
      <trkpt lat="47.56999" lon="-3.10027">
        <ele>3</ele>
        <time>2018-03-31T14:52:05.000Z</time>
      </trkpt>
      <trkpt lat="47.57008" lon="-3.10034">
        <ele>3.9</ele>
        <time>2018-03-31T14:52:06.000Z</time>
      </trkpt>
      <trkpt lat="47.57008" lon="-3.10035">
        <ele>4</ele>
        <time>2018-03-31T14:52:07.000Z</time>
      </trkpt>
      <trkpt lat="47.57008" lon="-3.10038">
        <ele>4.1</ele>
        <time>2018-03-31T14:52:08.000Z</time>
      </trkpt>
      <trkpt lat="47.57008" lon="-3.10041">
        <ele>4.2</ele>
        <time>2018-03-31T14:52:09.000Z</time>
      </trkpt>
      <trkpt lat="47.57008" lon="-3.10043">
        <ele>4.2</ele>
        <time>2018-03-31T14:52:10.000Z</time>
      </trkpt>
      <trkpt lat="47.57008" lon="-3.10044">
        <ele>4.2</ele>
        <time>2018-03-31T14:52:11.000Z</time>
      </trkpt>
      <trkpt lat="47.57008" lon="-3.10045">
        <ele>4.3</ele>
        <time>2018-03-31T14:52:12.000Z</time>
      </trkpt>
      <trkpt lat="47.57008" lon="-3.10047">
        <ele>4.3</ele>
        <time>2018-03-31T14:52:13.000Z</time>
      </trkpt>
      <trkpt lat="47.5701" lon="-3.10049">
        <ele>4.6</ele>
        <time>2018-03-31T14:52:14.000Z</time>
      </trkpt>
      <trkpt lat="47.5701" lon="-3.10049">
        <ele>4.6</ele>
        <time>2018-03-31T14:52:15.000Z</time>
      </trkpt>
      <trkpt lat="47.5701" lon="-3.10049">
        <ele>4.6</ele>
        <time>2018-03-31T14:52:16.000Z</time>
      </trkpt>
      <trkpt lat="47.5701" lon="-3.10049">
        <ele>4.6</ele>
        <time>2018-03-31T14:52:17.000Z</time>
      </trkpt>
      <trkpt lat="47.5701" lon="-3.10049">
        <ele>4.6</ele>
        <time>2018-03-31T14:52:18.000Z</time>
      </trkpt>
      <trkpt lat="47.5701" lon="-3.10049">
        <ele>4.6</ele>
        <time>2018-03-31T14:52:19.000Z</time>
      </trkpt>
      <trkpt lat="47.5701" lon="-3.10049">
        <ele>4.6</ele>
        <time>2018-03-31T14:52:20.000Z</time>
      </trkpt>
      <trkpt lat="47.5701" lon="-3.10049">
        <ele>4.6</ele>
        <time>2018-03-31T14:52:21.000Z</time>
      </trkpt>
      <trkpt lat="47.5701" lon="-3.10049">
        <ele>4.6</ele>
        <time>2018-03-31T14:52:22.000Z</time>
      </trkpt>
      <trkpt lat="47.5701" lon="-3.10049">
        <ele>4.6</ele>
        <time>2018-03-31T14:52:23.000Z</time>
      </trkpt>
      <trkpt lat="47.5701" lon="-3.10049">
        <ele>4.6</ele>
        <time>2018-03-31T14:52:24.000Z</time>
      </trkpt>
      <trkpt lat="47.5701" lon="-3.10049">
        <ele>4.6</ele>
        <time>2018-03-31T14:52:25.000Z</time>
      </trkpt>
      <trkpt lat="47.5701" lon="-3.10049">
        <ele>4.6</ele>
        <time>2018-03-31T14:52:26.000Z</time>
      </trkpt>
      <trkpt lat="47.5701" lon="-3.10049">
        <ele>4.6</ele>
        <time>2018-03-31T14:52:27.000Z</time>
      </trkpt>
      <trkpt lat="47.5701" lon="-3.10049">
        <ele>4.6</ele>
        <time>2018-03-31T14:52:28.000Z</time>
      </trkpt>
      <trkpt lat="47.5701" lon="-3.10049">
        <ele>4.6</ele>
        <time>2018-03-31T14:52:29.000Z</time>
      </trkpt>
      <trkpt lat="47.5701" lon="-3.10049">
        <ele>4.6</ele>
        <time>2018-03-31T14:52:30.000Z</time>
      </trkpt>
      <trkpt lat="47.5701" lon="-3.10049">
        <ele>4.6</ele>
        <time>2018-03-31T14:52:31.000Z</time>
      </trkpt>
      <trkpt lat="47.5701" lon="-3.10049">
        <ele>4.6</ele>
        <time>2018-03-31T14:52:32.000Z</time>
      </trkpt>
      <trkpt lat="47.5701" lon="-3.10049">
        <ele>4.6</ele>
        <time>2018-03-31T14:52:33.000Z</time>
      </trkpt>
      <trkpt lat="47.5701" lon="-3.10049">
        <ele>4.6</ele>
        <time>2018-03-31T14:52:34.000Z</time>
      </trkpt>
      <trkpt lat="47.5701" lon="-3.10049">
        <ele>4.6</ele>
        <time>2018-03-31T14:52:35.000Z</time>
      </trkpt>
      <trkpt lat="47.5701" lon="-3.10049">
        <ele>4.6</ele>
        <time>2018-03-31T14:52:36.000Z</time>
      </trkpt>
      <trkpt lat="47.5701" lon="-3.10049">
        <ele>4.6</ele>
        <time>2018-03-31T14:52:37.000Z</time>
      </trkpt>
      <trkpt lat="47.5701" lon="-3.10049">
        <ele>4.6</ele>
        <time>2018-03-31T14:52:38.000Z</time>
      </trkpt>
      <trkpt lat="47.5701" lon="-3.10049">
        <ele>4.6</ele>
        <time>2018-03-31T14:52:39.000Z</time>
      </trkpt>
      <trkpt lat="47.5701" lon="-3.10049">
        <ele>4.6</ele>
        <time>2018-03-31T14:52:40.000Z</time>
      </trkpt>
      <trkpt lat="47.5701" lon="-3.10049">
        <ele>4.6</ele>
        <time>2018-03-31T14:52:41.000Z</time>
      </trkpt>
      <trkpt lat="47.5701" lon="-3.10049">
        <ele>4.6</ele>
        <time>2018-03-31T14:52:42.000Z</time>
      </trkpt>
      <trkpt lat="47.5701" lon="-3.10049">
        <ele>4.6</ele>
        <time>2018-03-31T14:52:43.000Z</time>
      </trkpt>
      <trkpt lat="47.5701" lon="-3.10049">
        <ele>4.6</ele>
        <time>2018-03-31T14:52:44.000Z</time>
      </trkpt>
      <trkpt lat="47.5701" lon="-3.10049">
        <ele>4.6</ele>
        <time>2018-03-31T14:52:45.000Z</time>
      </trkpt>
      <trkpt lat="47.5701" lon="-3.10049">
        <ele>4.6</ele>
        <time>2018-03-31T14:52:46.000Z</time>
      </trkpt>
      <trkpt lat="47.5701" lon="-3.10049">
        <ele>4.6</ele>
        <time>2018-03-31T14:52:47.000Z</time>
      </trkpt>
      <trkpt lat="47.5701" lon="-3.10049">
        <ele>4.6</ele>
        <time>2018-03-31T14:52:48.000Z</time>
      </trkpt>
      <trkpt lat="47.5701" lon="-3.10049">
        <ele>4.6</ele>
        <time>2018-03-31T14:52:49.000Z</time>
      </trkpt>
      <trkpt lat="47.5701" lon="-3.10049">
        <ele>4.6</ele>
        <time>2018-03-31T14:52:50.000Z</time>
      </trkpt>
      <trkpt lat="47.5701" lon="-3.10049">
        <ele>4.6</ele>
        <time>2018-03-31T14:52:51.000Z</time>
      </trkpt>
      <trkpt lat="47.5701" lon="-3.10049">
        <ele>4.6</ele>
        <time>2018-03-31T14:52:52.000Z</time>
      </trkpt>
      <trkpt lat="47.5701" lon="-3.10049">
        <ele>4.6</ele>
        <time>2018-03-31T14:52:53.000Z</time>
      </trkpt>
      <trkpt lat="47.5701" lon="-3.10049">
        <ele>4.6</ele>
        <time>2018-03-31T14:52:54.000Z</time>
      </trkpt>
      <trkpt lat="47.5701" lon="-3.10049">
        <ele>4.6</ele>
        <time>2018-03-31T14:52:55.000Z</time>
      </trkpt>
      <trkpt lat="47.5701" lon="-3.10049">
        <ele>4.6</ele>
        <time>2018-03-31T14:52:56.000Z</time>
      </trkpt>
      <trkpt lat="47.5701" lon="-3.10049">
        <ele>4.6</ele>
        <time>2018-03-31T14:52:57.000Z</time>
      </trkpt>
      <trkpt lat="47.5701" lon="-3.10049">
        <ele>4.6</ele>
        <time>2018-03-31T14:52:58.000Z</time>
      </trkpt>
      <trkpt lat="47.5701" lon="-3.10049">
        <ele>4.6</ele>
        <time>2018-03-31T14:52:59.000Z</time>
      </trkpt>
      <trkpt lat="47.5701" lon="-3.10049">
        <ele>4.6</ele>
        <time>2018-03-31T14:53:00.000Z</time>
      </trkpt>
      <trkpt lat="47.5701" lon="-3.10049">
        <ele>4.6</ele>
        <time>2018-03-31T14:53:01.000Z</time>
      </trkpt>
      <trkpt lat="47.5701" lon="-3.10049">
        <ele>4.6</ele>
        <time>2018-03-31T14:53:02.000Z</time>
      </trkpt>
      <trkpt lat="47.5701" lon="-3.10049">
        <ele>4.6</ele>
        <time>2018-03-31T14:53:03.000Z</time>
      </trkpt>
      <trkpt lat="47.5701" lon="-3.10049">
        <ele>4.6</ele>
        <time>2018-03-31T14:53:04.000Z</time>
      </trkpt>
      <trkpt lat="47.5701" lon="-3.10049">
        <ele>4.6</ele>
        <time>2018-03-31T14:53:05.000Z</time>
      </trkpt>
      <trkpt lat="47.5701" lon="-3.10049">
        <ele>4.6</ele>
        <time>2018-03-31T14:53:06.000Z</time>
      </trkpt>
      <trkpt lat="47.5701" lon="-3.10049">
        <ele>4.6</ele>
        <time>2018-03-31T14:53:07.000Z</time>
      </trkpt>
      <trkpt lat="47.5701" lon="-3.10049">
        <ele>4.6</ele>
        <time>2018-03-31T14:53:08.000Z</time>
      </trkpt>
      <trkpt lat="47.5701" lon="-3.10049">
        <ele>4.6</ele>
        <time>2018-03-31T14:53:09.000Z</time>
      </trkpt>
      <trkpt lat="47.5701" lon="-3.10049">
        <ele>4.6</ele>
        <time>2018-03-31T14:53:10.000Z</time>
      </trkpt>
      <trkpt lat="47.5701" lon="-3.10049">
        <ele>4.6</ele>
        <time>2018-03-31T14:53:11.000Z</time>
      </trkpt>
      <trkpt lat="47.5701" lon="-3.10049">
        <ele>4.6</ele>
        <time>2018-03-31T14:53:12.000Z</time>
      </trkpt>
      <trkpt lat="47.5701" lon="-3.10049">
        <ele>4.6</ele>
        <time>2018-03-31T14:53:13.000Z</time>
      </trkpt>
      <trkpt lat="47.5701" lon="-3.10049">
        <ele>4.6</ele>
        <time>2018-03-31T14:53:14.000Z</time>
      </trkpt>
      <trkpt lat="47.5701" lon="-3.10049">
        <ele>4.6</ele>
        <time>2018-03-31T14:53:15.000Z</time>
      </trkpt>
      <trkpt lat="47.5701" lon="-3.10049">
        <ele>4.6</ele>
        <time>2018-03-31T14:53:16.000Z</time>
      </trkpt>
      <trkpt lat="47.5701" lon="-3.10049">
        <ele>4.6</ele>
        <time>2018-03-31T14:53:17.000Z</time>
      </trkpt>
      <trkpt lat="47.57012" lon="-3.10054">
        <ele>5.2</ele>
        <time>2018-03-31T14:53:18.000Z</time>
      </trkpt>
      <trkpt lat="47.57013" lon="-3.10055">
        <ele>5.3</ele>
        <time>2018-03-31T14:53:19.000Z</time>
      </trkpt>
      <trkpt lat="47.57013" lon="-3.10055">
        <ele>5.4</ele>
        <time>2018-03-31T14:53:20.000Z</time>
      </trkpt>
      <trkpt lat="47.57014" lon="-3.10056">
        <ele>5.5</ele>
        <time>2018-03-31T14:53:21.000Z</time>
      </trkpt>
      <trkpt lat="47.57014" lon="-3.10056">
        <ele>5.5</ele>
        <time>2018-03-31T14:53:22.000Z</time>
      </trkpt>
      <trkpt lat="47.57014" lon="-3.10056">
        <ele>5.5</ele>
        <time>2018-03-31T14:53:23.000Z</time>
      </trkpt>
      <trkpt lat="47.57014" lon="-3.10056">
        <ele>5.5</ele>
        <time>2018-03-31T14:53:24.000Z</time>
      </trkpt>
      <trkpt lat="47.57014" lon="-3.10056">
        <ele>5.5</ele>
        <time>2018-03-31T14:53:25.000Z</time>
      </trkpt>
      <trkpt lat="47.57014" lon="-3.10056">
        <ele>5.5</ele>
        <time>2018-03-31T14:53:26.000Z</time>
      </trkpt>
      <trkpt lat="47.57014" lon="-3.10056">
        <ele>5.5</ele>
        <time>2018-03-31T14:53:27.000Z</time>
      </trkpt>
      <trkpt lat="47.57014" lon="-3.10056">
        <ele>5.5</ele>
        <time>2018-03-31T14:53:28.000Z</time>
      </trkpt>
      <trkpt lat="47.57014" lon="-3.10056">
        <ele>5.5</ele>
        <time>2018-03-31T14:53:29.000Z</time>
      </trkpt>
      <trkpt lat="47.57014" lon="-3.10056">
        <ele>5.5</ele>
        <time>2018-03-31T14:53:30.000Z</time>
      </trkpt>
      <trkpt lat="47.57014" lon="-3.10056">
        <ele>5.5</ele>
        <time>2018-03-31T14:53:31.000Z</time>
      </trkpt>
      <trkpt lat="47.57014" lon="-3.10056">
        <ele>5.5</ele>
        <time>2018-03-31T14:53:32.000Z</time>
      </trkpt>
      <trkpt lat="47.57014" lon="-3.10056">
        <ele>5.5</ele>
        <time>2018-03-31T14:53:33.000Z</time>
      </trkpt>
      <trkpt lat="47.57014" lon="-3.10056">
        <ele>5.5</ele>
        <time>2018-03-31T14:53:34.000Z</time>
      </trkpt>
      <trkpt lat="47.57014" lon="-3.10056">
        <ele>5.5</ele>
        <time>2018-03-31T14:53:35.000Z</time>
      </trkpt>
      <trkpt lat="47.57014" lon="-3.10056">
        <ele>5.5</ele>
        <time>2018-03-31T14:53:36.000Z</time>
      </trkpt>
      <trkpt lat="47.57014" lon="-3.10056">
        <ele>5.5</ele>
        <time>2018-03-31T14:53:37.000Z</time>
      </trkpt>
      <trkpt lat="47.57014" lon="-3.10056">
        <ele>5.5</ele>
        <time>2018-03-31T14:53:38.000Z</time>
      </trkpt>
      <trkpt lat="47.57014" lon="-3.10056">
        <ele>5.5</ele>
        <time>2018-03-31T14:53:39.000Z</time>
      </trkpt>
      <trkpt lat="47.57014" lon="-3.10056">
        <ele>5.5</ele>
        <time>2018-03-31T14:53:40.000Z</time>
      </trkpt>
      <trkpt lat="47.57014" lon="-3.10056">
        <ele>5.5</ele>
        <time>2018-03-31T14:53:41.000Z</time>
      </trkpt>
      <trkpt lat="47.57014" lon="-3.10056">
        <ele>5.5</ele>
        <time>2018-03-31T14:53:42.000Z</time>
      </trkpt>
      <trkpt lat="47.57014" lon="-3.10056">
        <ele>5.5</ele>
        <time>2018-03-31T14:53:43.000Z</time>
      </trkpt>
      <trkpt lat="47.57014" lon="-3.10056">
        <ele>5.5</ele>
        <time>2018-03-31T14:53:44.000Z</time>
      </trkpt>
      <trkpt lat="47.57014" lon="-3.10056">
        <ele>5.5</ele>
        <time>2018-03-31T14:53:45.000Z</time>
      </trkpt>
      <trkpt lat="47.57014" lon="-3.10056">
        <ele>5.5</ele>
        <time>2018-03-31T14:53:46.000Z</time>
      </trkpt>
      <trkpt lat="47.57014" lon="-3.10056">
        <ele>5.5</ele>
        <time>2018-03-31T14:53:47.000Z</time>
      </trkpt>
      <trkpt lat="47.57014" lon="-3.10056">
        <ele>5.5</ele>
        <time>2018-03-31T14:53:48.000Z</time>
      </trkpt>
      <trkpt lat="47.57014" lon="-3.10056">
        <ele>5.5</ele>
        <time>2018-03-31T14:53:49.000Z</time>
      </trkpt>
      <trkpt lat="47.57014" lon="-3.10056">
        <ele>5.5</ele>
        <time>2018-03-31T14:53:50.000Z</time>
      </trkpt>
      <trkpt lat="47.57014" lon="-3.10056">
        <ele>5.5</ele>
        <time>2018-03-31T14:53:51.000Z</time>
      </trkpt>
      <trkpt lat="47.57014" lon="-3.10056">
        <ele>5.5</ele>
        <time>2018-03-31T14:53:52.000Z</time>
      </trkpt>
      <trkpt lat="47.57014" lon="-3.10056">
        <ele>5.5</ele>
        <time>2018-03-31T14:53:53.000Z</time>
      </trkpt>
      <trkpt lat="47.57014" lon="-3.10056">
        <ele>5.5</ele>
        <time>2018-03-31T14:53:54.000Z</time>
      </trkpt>
      <trkpt lat="47.57014" lon="-3.10056">
        <ele>5.5</ele>
        <time>2018-03-31T14:53:55.000Z</time>
      </trkpt>
      <trkpt lat="47.57014" lon="-3.10056">
        <ele>5.5</ele>
        <time>2018-03-31T14:53:56.000Z</time>
      </trkpt>
      <trkpt lat="47.57014" lon="-3.10056">
        <ele>5.5</ele>
        <time>2018-03-31T14:53:57.000Z</time>
      </trkpt>
      <trkpt lat="47.57014" lon="-3.10056">
        <ele>5.5</ele>
        <time>2018-03-31T14:53:58.000Z</time>
      </trkpt>
      <trkpt lat="47.57014" lon="-3.10056">
        <ele>5.5</ele>
        <time>2018-03-31T14:53:59.000Z</time>
      </trkpt>
      <trkpt lat="47.57014" lon="-3.10056">
        <ele>5.5</ele>
        <time>2018-03-31T14:54:00.000Z</time>
      </trkpt>
      <trkpt lat="47.57014" lon="-3.10056">
        <ele>5.5</ele>
        <time>2018-03-31T14:54:01.000Z</time>
      </trkpt>
      <trkpt lat="47.57014" lon="-3.10056">
        <ele>5.5</ele>
        <time>2018-03-31T14:54:02.000Z</time>
      </trkpt>
      <trkpt lat="47.57014" lon="-3.10056">
        <ele>5.5</ele>
        <time>2018-03-31T14:54:03.000Z</time>
      </trkpt>
      <trkpt lat="47.57014" lon="-3.10056">
        <ele>5.5</ele>
        <time>2018-03-31T14:54:04.000Z</time>
      </trkpt>
      <trkpt lat="47.57014" lon="-3.10056">
        <ele>5.5</ele>
        <time>2018-03-31T14:54:05.000Z</time>
      </trkpt>
      <trkpt lat="47.57014" lon="-3.10056">
        <ele>5.5</ele>
        <time>2018-03-31T14:54:06.000Z</time>
      </trkpt>
      <trkpt lat="47.57014" lon="-3.10056">
        <ele>5.5</ele>
        <time>2018-03-31T14:54:07.000Z</time>
      </trkpt>
      <trkpt lat="47.57014" lon="-3.10056">
        <ele>5.5</ele>
        <time>2018-03-31T14:54:08.000Z</time>
      </trkpt>
      <trkpt lat="47.57014" lon="-3.10056">
        <ele>5.5</ele>
        <time>2018-03-31T14:54:09.000Z</time>
      </trkpt>
      <trkpt lat="47.57014" lon="-3.10056">
        <ele>5.5</ele>
        <time>2018-03-31T14:54:10.000Z</time>
      </trkpt>
      <trkpt lat="47.57014" lon="-3.10056">
        <ele>5.5</ele>
        <time>2018-03-31T14:54:11.000Z</time>
      </trkpt>
      <trkpt lat="47.57014" lon="-3.10056">
        <ele>5.5</ele>
        <time>2018-03-31T14:54:12.000Z</time>
      </trkpt>
      <trkpt lat="47.57014" lon="-3.10056">
        <ele>5.5</ele>
        <time>2018-03-31T14:54:13.000Z</time>
      </trkpt>
      <trkpt lat="47.57014" lon="-3.10056">
        <ele>5.5</ele>
        <time>2018-03-31T14:54:14.000Z</time>
      </trkpt>
      <trkpt lat="47.57014" lon="-3.10056">
        <ele>5.5</ele>
        <time>2018-03-31T14:54:15.000Z</time>
      </trkpt>
      <trkpt lat="47.57014" lon="-3.10056">
        <ele>5.5</ele>
        <time>2018-03-31T14:54:16.000Z</time>
      </trkpt>
      <trkpt lat="47.57014" lon="-3.10056">
        <ele>5.5</ele>
        <time>2018-03-31T14:54:17.000Z</time>
      </trkpt>
      <trkpt lat="47.57014" lon="-3.10056">
        <ele>5.5</ele>
        <time>2018-03-31T14:54:18.000Z</time>
      </trkpt>
      <trkpt lat="47.57014" lon="-3.10056">
        <ele>5.5</ele>
        <time>2018-03-31T14:54:19.000Z</time>
      </trkpt>
      <trkpt lat="47.57014" lon="-3.10056">
        <ele>5.5</ele>
        <time>2018-03-31T14:54:20.000Z</time>
      </trkpt>
      <trkpt lat="47.57014" lon="-3.10056">
        <ele>5.5</ele>
        <time>2018-03-31T14:54:21.000Z</time>
      </trkpt>
      <trkpt lat="47.57014" lon="-3.10056">
        <ele>5.5</ele>
        <time>2018-03-31T14:54:22.000Z</time>
      </trkpt>
      <trkpt lat="47.57014" lon="-3.10056">
        <ele>5.5</ele>
        <time>2018-03-31T14:54:23.000Z</time>
      </trkpt>
      <trkpt lat="47.57014" lon="-3.10056">
        <ele>5.5</ele>
        <time>2018-03-31T14:54:24.000Z</time>
      </trkpt>
      <trkpt lat="47.57014" lon="-3.10056">
        <ele>5.5</ele>
        <time>2018-03-31T14:54:25.000Z</time>
      </trkpt>
      <trkpt lat="47.57014" lon="-3.10056">
        <ele>5.5</ele>
        <time>2018-03-31T14:54:26.000Z</time>
      </trkpt>
      <trkpt lat="47.57014" lon="-3.10056">
        <ele>5.5</ele>
        <time>2018-03-31T14:54:27.000Z</time>
      </trkpt>
      <trkpt lat="47.57014" lon="-3.10056">
        <ele>5.5</ele>
        <time>2018-03-31T14:54:28.000Z</time>
      </trkpt>
      <trkpt lat="47.57014" lon="-3.10056">
        <ele>5.5</ele>
        <time>2018-03-31T14:54:29.000Z</time>
      </trkpt>
      <trkpt lat="47.57014" lon="-3.10056">
        <ele>5.5</ele>
        <time>2018-03-31T14:54:30.000Z</time>
      </trkpt>
      <trkpt lat="47.57014" lon="-3.10056">
        <ele>5.5</ele>
        <time>2018-03-31T14:54:31.000Z</time>
      </trkpt>
      <trkpt lat="47.57014" lon="-3.10056">
        <ele>5.5</ele>
        <time>2018-03-31T14:54:32.000Z</time>
      </trkpt>
      <trkpt lat="47.57014" lon="-3.10056">
        <ele>5.5</ele>
        <time>2018-03-31T14:54:33.000Z</time>
      </trkpt>
      <trkpt lat="47.57014" lon="-3.10056">
        <ele>5.5</ele>
        <time>2018-03-31T14:54:34.000Z</time>
      </trkpt>
      <trkpt lat="47.57014" lon="-3.10056">
        <ele>5.5</ele>
        <time>2018-03-31T14:54:35.000Z</time>
      </trkpt>
      <trkpt lat="47.57014" lon="-3.10056">
        <ele>5.5</ele>
        <time>2018-03-31T14:54:36.000Z</time>
      </trkpt>
      <trkpt lat="47.57014" lon="-3.10056">
        <ele>5.5</ele>
        <time>2018-03-31T14:54:37.000Z</time>
      </trkpt>
      <trkpt lat="47.57014" lon="-3.10056">
        <ele>5.5</ele>
        <time>2018-03-31T14:54:38.000Z</time>
      </trkpt>
      <trkpt lat="47.57014" lon="-3.10056">
        <ele>5.5</ele>
        <time>2018-03-31T14:54:39.000Z</time>
      </trkpt>
      <trkpt lat="47.57014" lon="-3.10056">
        <ele>5.5</ele>
        <time>2018-03-31T14:54:40.000Z</time>
      </trkpt>
      <trkpt lat="47.57014" lon="-3.10056">
        <ele>5.5</ele>
        <time>2018-03-31T14:54:41.000Z</time>
      </trkpt>
      <trkpt lat="47.57014" lon="-3.10056">
        <ele>5.5</ele>
        <time>2018-03-31T14:54:42.000Z</time>
      </trkpt>
      <trkpt lat="47.57014" lon="-3.10056">
        <ele>5.5</ele>
        <time>2018-03-31T14:54:43.000Z</time>
      </trkpt>
      <trkpt lat="47.57014" lon="-3.10056">
        <ele>5.5</ele>
        <time>2018-03-31T14:54:44.000Z</time>
      </trkpt>
      <trkpt lat="47.57014" lon="-3.10056">
        <ele>5.5</ele>
        <time>2018-03-31T14:54:45.000Z</time>
      </trkpt>
      <trkpt lat="47.57014" lon="-3.10056">
        <ele>5.5</ele>
        <time>2018-03-31T14:54:46.000Z</time>
      </trkpt>
      <trkpt lat="47.57014" lon="-3.10056">
        <ele>5.5</ele>
        <time>2018-03-31T14:54:47.000Z</time>
      </trkpt>
      <trkpt lat="47.57014" lon="-3.10056">
        <ele>5.5</ele>
        <time>2018-03-31T14:54:48.000Z</time>
      </trkpt>
      <trkpt lat="47.57014" lon="-3.10056">
        <ele>5.5</ele>
        <time>2018-03-31T14:54:49.000Z</time>
      </trkpt>
      <trkpt lat="47.57014" lon="-3.10056">
        <ele>5.5</ele>
        <time>2018-03-31T14:54:50.000Z</time>
      </trkpt>
      <trkpt lat="47.57014" lon="-3.10056">
        <ele>5.5</ele>
        <time>2018-03-31T14:54:51.000Z</time>
      </trkpt>
      <trkpt lat="47.57014" lon="-3.10056">
        <ele>5.5</ele>
        <time>2018-03-31T14:54:52.000Z</time>
      </trkpt>
      <trkpt lat="47.57014" lon="-3.10056">
        <ele>5.5</ele>
        <time>2018-03-31T14:54:53.000Z</time>
      </trkpt>
      <trkpt lat="47.57014" lon="-3.10056">
        <ele>5.5</ele>
        <time>2018-03-31T14:54:54.000Z</time>
      </trkpt>
      <trkpt lat="47.57014" lon="-3.10056">
        <ele>5.5</ele>
        <time>2018-03-31T14:54:55.000Z</time>
      </trkpt>
      <trkpt lat="47.57014" lon="-3.10056">
        <ele>5.5</ele>
        <time>2018-03-31T14:54:56.000Z</time>
      </trkpt>
      <trkpt lat="47.57014" lon="-3.10056">
        <ele>5.5</ele>
        <time>2018-03-31T14:54:57.000Z</time>
      </trkpt>
      <trkpt lat="47.57014" lon="-3.10056">
        <ele>5.5</ele>
        <time>2018-03-31T14:54:58.000Z</time>
      </trkpt>
      <trkpt lat="47.57014" lon="-3.10056">
        <ele>5.5</ele>
        <time>2018-03-31T14:54:59.000Z</time>
      </trkpt>
      <trkpt lat="47.57014" lon="-3.10056">
        <ele>5.5</ele>
        <time>2018-03-31T14:55:00.000Z</time>
      </trkpt>
      <trkpt lat="47.57014" lon="-3.10056">
        <ele>5.5</ele>
        <time>2018-03-31T14:55:01.000Z</time>
      </trkpt>
      <trkpt lat="47.57014" lon="-3.10056">
        <ele>5.5</ele>
        <time>2018-03-31T14:55:02.000Z</time>
      </trkpt>
      <trkpt lat="47.57014" lon="-3.10056">
        <ele>5.5</ele>
        <time>2018-03-31T14:55:03.000Z</time>
      </trkpt>
      <trkpt lat="47.57014" lon="-3.10056">
        <ele>5.5</ele>
        <time>2018-03-31T14:55:04.000Z</time>
      </trkpt>
      <trkpt lat="47.57014" lon="-3.10056">
        <ele>5.5</ele>
        <time>2018-03-31T14:55:05.000Z</time>
      </trkpt>
      <trkpt lat="47.57014" lon="-3.10056">
        <ele>5.5</ele>
        <time>2018-03-31T14:55:06.000Z</time>
      </trkpt>
      <trkpt lat="47.57014" lon="-3.10056">
        <ele>5.5</ele>
        <time>2018-03-31T14:55:07.000Z</time>
      </trkpt>
      <trkpt lat="47.57014" lon="-3.10056">
        <ele>5.5</ele>
        <time>2018-03-31T14:55:08.000Z</time>
      </trkpt>
      <trkpt lat="47.57014" lon="-3.10055">
        <ele>5.5</ele>
        <time>2018-03-31T14:55:09.000Z</time>
      </trkpt>
      <trkpt lat="47.57015" lon="-3.10053">
        <ele>5.5</ele>
        <time>2018-03-31T14:55:10.000Z</time>
      </trkpt>
      <trkpt lat="47.57015" lon="-3.10052">
        <ele>5.6</ele>
        <time>2018-03-31T14:55:11.000Z</time>
      </trkpt>
      <trkpt lat="47.57016" lon="-3.10052">
        <ele>5.6</ele>
        <time>2018-03-31T14:55:12.000Z</time>
      </trkpt>
      <trkpt lat="47.57016" lon="-3.10051">
        <ele>5.6</ele>
        <time>2018-03-31T14:55:13.000Z</time>
      </trkpt>
      <trkpt lat="47.57016" lon="-3.10051">
        <ele>5.6</ele>
        <time>2018-03-31T14:55:14.000Z</time>
      </trkpt>
      <trkpt lat="47.57016" lon="-3.10051">
        <ele>5.6</ele>
        <time>2018-03-31T14:55:15.000Z</time>
      </trkpt>
      <trkpt lat="47.57016" lon="-3.10051">
        <ele>5.6</ele>
        <time>2018-03-31T14:55:16.000Z</time>
      </trkpt>
      <trkpt lat="47.57016" lon="-3.10051">
        <ele>5.6</ele>
        <time>2018-03-31T14:55:17.000Z</time>
      </trkpt>
      <trkpt lat="47.57016" lon="-3.10051">
        <ele>5.6</ele>
        <time>2018-03-31T14:55:18.000Z</time>
      </trkpt>
      <trkpt lat="47.57016" lon="-3.10051">
        <ele>5.6</ele>
        <time>2018-03-31T14:55:19.000Z</time>
      </trkpt>
      <trkpt lat="47.57016" lon="-3.10051">
        <ele>5.6</ele>
        <time>2018-03-31T14:55:20.000Z</time>
      </trkpt>
      <trkpt lat="47.57016" lon="-3.10051">
        <ele>5.6</ele>
        <time>2018-03-31T14:55:21.000Z</time>
      </trkpt>
      <trkpt lat="47.57016" lon="-3.10051">
        <ele>5.6</ele>
        <time>2018-03-31T14:55:22.000Z</time>
      </trkpt>
      <trkpt lat="47.57016" lon="-3.10051">
        <ele>5.6</ele>
        <time>2018-03-31T14:55:23.000Z</time>
      </trkpt>
      <trkpt lat="47.57016" lon="-3.10051">
        <ele>5.6</ele>
        <time>2018-03-31T14:55:24.000Z</time>
      </trkpt>
      <trkpt lat="47.57016" lon="-3.10051">
        <ele>5.6</ele>
        <time>2018-03-31T14:55:25.000Z</time>
      </trkpt>
      <trkpt lat="47.57016" lon="-3.10051">
        <ele>5.6</ele>
        <time>2018-03-31T14:55:26.000Z</time>
      </trkpt>
      <trkpt lat="47.57016" lon="-3.10051">
        <ele>5.6</ele>
        <time>2018-03-31T14:55:27.000Z</time>
      </trkpt>
      <trkpt lat="47.57016" lon="-3.10051">
        <ele>5.6</ele>
        <time>2018-03-31T14:55:28.000Z</time>
      </trkpt>
      <trkpt lat="47.57016" lon="-3.10051">
        <ele>5.6</ele>
        <time>2018-03-31T14:55:29.000Z</time>
      </trkpt>
      <trkpt lat="47.57016" lon="-3.10051">
        <ele>5.6</ele>
        <time>2018-03-31T14:55:30.000Z</time>
      </trkpt>
      <trkpt lat="47.57016" lon="-3.10051">
        <ele>5.6</ele>
        <time>2018-03-31T14:55:31.000Z</time>
      </trkpt>
      <trkpt lat="47.57016" lon="-3.10051">
        <ele>5.6</ele>
        <time>2018-03-31T14:55:32.000Z</time>
      </trkpt>
      <trkpt lat="47.57016" lon="-3.10051">
        <ele>5.6</ele>
        <time>2018-03-31T14:55:33.000Z</time>
      </trkpt>
      <trkpt lat="47.57016" lon="-3.10051">
        <ele>5.6</ele>
        <time>2018-03-31T14:55:34.000Z</time>
      </trkpt>
      <trkpt lat="47.57016" lon="-3.10051">
        <ele>5.6</ele>
        <time>2018-03-31T14:55:35.000Z</time>
      </trkpt>
      <trkpt lat="47.57016" lon="-3.10051">
        <ele>5.6</ele>
        <time>2018-03-31T14:55:36.000Z</time>
      </trkpt>
      <trkpt lat="47.57016" lon="-3.10051">
        <ele>5.6</ele>
        <time>2018-03-31T14:55:37.000Z</time>
      </trkpt>
      <trkpt lat="47.57016" lon="-3.10051">
        <ele>5.6</ele>
        <time>2018-03-31T14:55:38.000Z</time>
      </trkpt>
      <trkpt lat="47.57016" lon="-3.10051">
        <ele>5.6</ele>
        <time>2018-03-31T14:55:39.000Z</time>
      </trkpt>
      <trkpt lat="47.57016" lon="-3.10051">
        <ele>5.6</ele>
        <time>2018-03-31T14:55:40.000Z</time>
      </trkpt>
      <trkpt lat="47.57016" lon="-3.10051">
        <ele>5.6</ele>
        <time>2018-03-31T14:55:41.000Z</time>
      </trkpt>
      <trkpt lat="47.57016" lon="-3.10051">
        <ele>5.6</ele>
        <time>2018-03-31T14:55:42.000Z</time>
      </trkpt>
      <trkpt lat="47.57016" lon="-3.10051">
        <ele>5.6</ele>
        <time>2018-03-31T14:55:43.000Z</time>
      </trkpt>
      <trkpt lat="47.57016" lon="-3.10051">
        <ele>5.6</ele>
        <time>2018-03-31T14:55:44.000Z</time>
      </trkpt>
      <trkpt lat="47.57016" lon="-3.10051">
        <ele>5.6</ele>
        <time>2018-03-31T14:55:45.000Z</time>
      </trkpt>
      <trkpt lat="47.57016" lon="-3.10051">
        <ele>5.6</ele>
        <time>2018-03-31T14:55:46.000Z</time>
      </trkpt>
      <trkpt lat="47.57016" lon="-3.10051">
        <ele>5.6</ele>
        <time>2018-03-31T14:55:47.000Z</time>
      </trkpt>
      <trkpt lat="47.57016" lon="-3.10051">
        <ele>5.6</ele>
        <time>2018-03-31T14:55:48.000Z</time>
      </trkpt>
      <trkpt lat="47.57016" lon="-3.10051">
        <ele>5.6</ele>
        <time>2018-03-31T14:55:49.000Z</time>
      </trkpt>
      <trkpt lat="47.57016" lon="-3.10051">
        <ele>5.6</ele>
        <time>2018-03-31T14:55:50.000Z</time>
      </trkpt>
      <trkpt lat="47.57016" lon="-3.10051">
        <ele>5.6</ele>
        <time>2018-03-31T14:55:51.000Z</time>
      </trkpt>
      <trkpt lat="47.57016" lon="-3.10051">
        <ele>5.6</ele>
        <time>2018-03-31T14:55:52.000Z</time>
      </trkpt>
      <trkpt lat="47.57016" lon="-3.10051">
        <ele>5.6</ele>
        <time>2018-03-31T14:55:53.000Z</time>
      </trkpt>
      <trkpt lat="47.57016" lon="-3.10051">
        <ele>5.6</ele>
        <time>2018-03-31T14:55:54.000Z</time>
      </trkpt>
      <trkpt lat="47.57016" lon="-3.10051">
        <ele>5.6</ele>
        <time>2018-03-31T14:55:55.000Z</time>
      </trkpt>
      <trkpt lat="47.57016" lon="-3.10051">
        <ele>5.6</ele>
        <time>2018-03-31T14:55:56.000Z</time>
      </trkpt>
      <trkpt lat="47.57016" lon="-3.10051">
        <ele>5.6</ele>
        <time>2018-03-31T14:55:57.000Z</time>
      </trkpt>
      <trkpt lat="47.57016" lon="-3.10051">
        <ele>5.6</ele>
        <time>2018-03-31T14:55:58.000Z</time>
      </trkpt>
      <trkpt lat="47.57016" lon="-3.10051">
        <ele>5.6</ele>
        <time>2018-03-31T14:55:59.000Z</time>
      </trkpt>
      <trkpt lat="47.57016" lon="-3.10051">
        <ele>5.6</ele>
        <time>2018-03-31T14:56:00.000Z</time>
      </trkpt>
      <trkpt lat="47.57016" lon="-3.10051">
        <ele>5.6</ele>
        <time>2018-03-31T14:56:01.000Z</time>
      </trkpt>
      <trkpt lat="47.57016" lon="-3.10051">
        <ele>5.6</ele>
        <time>2018-03-31T14:56:02.000Z</time>
      </trkpt>
      <trkpt lat="47.57016" lon="-3.10051">
        <ele>5.6</ele>
        <time>2018-03-31T14:56:03.000Z</time>
      </trkpt>
      <trkpt lat="47.57016" lon="-3.10051">
        <ele>5.6</ele>
        <time>2018-03-31T14:56:04.000Z</time>
      </trkpt>
      <trkpt lat="47.57016" lon="-3.10051">
        <ele>5.6</ele>
        <time>2018-03-31T14:56:05.000Z</time>
      </trkpt>
      <trkpt lat="47.57016" lon="-3.10051">
        <ele>5.6</ele>
        <time>2018-03-31T14:56:06.000Z</time>
      </trkpt>
      <trkpt lat="47.57016" lon="-3.10051">
        <ele>5.6</ele>
        <time>2018-03-31T14:56:07.000Z</time>
      </trkpt>
      <trkpt lat="47.57016" lon="-3.10051">
        <ele>5.6</ele>
        <time>2018-03-31T14:56:08.000Z</time>
      </trkpt>
      <trkpt lat="47.57016" lon="-3.10051">
        <ele>5.6</ele>
        <time>2018-03-31T14:56:09.000Z</time>
      </trkpt>
      <trkpt lat="47.57016" lon="-3.10051">
        <ele>5.6</ele>
        <time>2018-03-31T14:56:10.000Z</time>
      </trkpt>
      <trkpt lat="47.57016" lon="-3.10051">
        <ele>5.6</ele>
        <time>2018-03-31T14:56:11.000Z</time>
      </trkpt>
      <trkpt lat="47.57016" lon="-3.10051">
        <ele>5.6</ele>
        <time>2018-03-31T14:56:12.000Z</time>
      </trkpt>
      <trkpt lat="47.57016" lon="-3.10051">
        <ele>5.6</ele>
        <time>2018-03-31T14:56:13.000Z</time>
      </trkpt>
      <trkpt lat="47.57016" lon="-3.10051">
        <ele>5.6</ele>
        <time>2018-03-31T14:56:14.000Z</time>
      </trkpt>
      <trkpt lat="47.57016" lon="-3.10051">
        <ele>5.6</ele>
        <time>2018-03-31T14:56:15.000Z</time>
      </trkpt>
      <trkpt lat="47.57016" lon="-3.10051">
        <ele>5.6</ele>
        <time>2018-03-31T14:56:16.000Z</time>
      </trkpt>
      <trkpt lat="47.57016" lon="-3.10051">
        <ele>5.6</ele>
        <time>2018-03-31T14:56:17.000Z</time>
      </trkpt>
      <trkpt lat="47.57016" lon="-3.10051">
        <ele>5.6</ele>
        <time>2018-03-31T14:56:18.000Z</time>
      </trkpt>
      <trkpt lat="47.57016" lon="-3.10051">
        <ele>5.6</ele>
        <time>2018-03-31T14:56:19.000Z</time>
      </trkpt>
      <trkpt lat="47.57016" lon="-3.10051">
        <ele>5.6</ele>
        <time>2018-03-31T14:56:20.000Z</time>
      </trkpt>
      <trkpt lat="47.57016" lon="-3.10051">
        <ele>5.6</ele>
        <time>2018-03-31T14:56:21.000Z</time>
      </trkpt>
      <trkpt lat="47.57016" lon="-3.10051">
        <ele>5.6</ele>
        <time>2018-03-31T14:56:22.000Z</time>
      </trkpt>
      <trkpt lat="47.57016" lon="-3.10051">
        <ele>5.6</ele>
        <time>2018-03-31T14:56:23.000Z</time>
      </trkpt>
      <trkpt lat="47.57016" lon="-3.10051">
        <ele>5.6</ele>
        <time>2018-03-31T14:56:24.000Z</time>
      </trkpt>
      <trkpt lat="47.57016" lon="-3.10051">
        <ele>5.6</ele>
        <time>2018-03-31T14:56:25.000Z</time>
      </trkpt>
      <trkpt lat="47.57016" lon="-3.10051">
        <ele>5.6</ele>
        <time>2018-03-31T14:56:26.000Z</time>
      </trkpt>
      <trkpt lat="47.57016" lon="-3.10051">
        <ele>5.6</ele>
        <time>2018-03-31T14:56:27.000Z</time>
      </trkpt>
      <trkpt lat="47.57016" lon="-3.10051">
        <ele>5.6</ele>
        <time>2018-03-31T14:56:28.000Z</time>
      </trkpt>
      <trkpt lat="47.57016" lon="-3.10051">
        <ele>5.6</ele>
        <time>2018-03-31T14:56:29.000Z</time>
      </trkpt>
      <trkpt lat="47.57016" lon="-3.10051">
        <ele>5.6</ele>
        <time>2018-03-31T14:56:30.000Z</time>
      </trkpt>
      <trkpt lat="47.57016" lon="-3.10051">
        <ele>5.6</ele>
        <time>2018-03-31T14:56:31.000Z</time>
      </trkpt>
      <trkpt lat="47.57016" lon="-3.10051">
        <ele>5.6</ele>
        <time>2018-03-31T14:56:32.000Z</time>
      </trkpt>
      <trkpt lat="47.57016" lon="-3.10051">
        <ele>5.6</ele>
        <time>2018-03-31T14:56:33.000Z</time>
      </trkpt>
      <trkpt lat="47.57016" lon="-3.10051">
        <ele>5.6</ele>
        <time>2018-03-31T14:56:34.000Z</time>
      </trkpt>
      <trkpt lat="47.57016" lon="-3.10051">
        <ele>5.6</ele>
        <time>2018-03-31T14:56:35.000Z</time>
      </trkpt>
      <trkpt lat="47.57016" lon="-3.10051">
        <ele>5.6</ele>
        <time>2018-03-31T14:56:36.000Z</time>
      </trkpt>
      <trkpt lat="47.57016" lon="-3.10051">
        <ele>5.6</ele>
        <time>2018-03-31T14:56:37.000Z</time>
      </trkpt>
      <trkpt lat="47.57016" lon="-3.10051">
        <ele>5.6</ele>
        <time>2018-03-31T14:56:38.000Z</time>
      </trkpt>
      <trkpt lat="47.57016" lon="-3.10051">
        <ele>5.6</ele>
        <time>2018-03-31T14:56:39.000Z</time>
      </trkpt>
      <trkpt lat="47.57016" lon="-3.10051">
        <ele>5.6</ele>
        <time>2018-03-31T14:56:40.000Z</time>
      </trkpt>
      <trkpt lat="47.57016" lon="-3.10051">
        <ele>5.6</ele>
        <time>2018-03-31T14:56:41.000Z</time>
      </trkpt>
      <trkpt lat="47.57016" lon="-3.10051">
        <ele>5.6</ele>
        <time>2018-03-31T14:56:42.000Z</time>
      </trkpt>
      <trkpt lat="47.57016" lon="-3.10051">
        <ele>5.6</ele>
        <time>2018-03-31T14:56:43.000Z</time>
      </trkpt>
      <trkpt lat="47.57016" lon="-3.10051">
        <ele>5.6</ele>
        <time>2018-03-31T14:56:44.000Z</time>
      </trkpt>
      <trkpt lat="47.57016" lon="-3.10051">
        <ele>5.6</ele>
        <time>2018-03-31T14:56:45.000Z</time>
      </trkpt>
      <trkpt lat="47.57016" lon="-3.10051">
        <ele>5.6</ele>
        <time>2018-03-31T14:56:46.000Z</time>
      </trkpt>
      <trkpt lat="47.57016" lon="-3.10051">
        <ele>5.6</ele>
        <time>2018-03-31T14:56:47.000Z</time>
      </trkpt>
      <trkpt lat="47.57016" lon="-3.10051">
        <ele>5.6</ele>
        <time>2018-03-31T14:56:48.000Z</time>
      </trkpt>
      <trkpt lat="47.57016" lon="-3.10051">
        <ele>5.6</ele>
        <time>2018-03-31T14:56:49.000Z</time>
      </trkpt>
      <trkpt lat="47.57016" lon="-3.10051">
        <ele>5.6</ele>
        <time>2018-03-31T14:56:50.000Z</time>
      </trkpt>
      <trkpt lat="47.57016" lon="-3.10051">
        <ele>5.6</ele>
        <time>2018-03-31T14:56:51.000Z</time>
      </trkpt>
      <trkpt lat="47.57016" lon="-3.10051">
        <ele>5.6</ele>
        <time>2018-03-31T14:56:52.000Z</time>
      </trkpt>
      <trkpt lat="47.57016" lon="-3.10051">
        <ele>5.6</ele>
        <time>2018-03-31T14:56:53.000Z</time>
      </trkpt>
      <trkpt lat="47.57016" lon="-3.10051">
        <ele>5.6</ele>
        <time>2018-03-31T14:56:54.000Z</time>
      </trkpt>
      <trkpt lat="47.57016" lon="-3.10051">
        <ele>5.6</ele>
        <time>2018-03-31T14:56:55.000Z</time>
      </trkpt>
      <trkpt lat="47.57016" lon="-3.10051">
        <ele>5.6</ele>
        <time>2018-03-31T14:56:56.000Z</time>
      </trkpt>
      <trkpt lat="47.57016" lon="-3.10051">
        <ele>5.6</ele>
        <time>2018-03-31T14:56:57.000Z</time>
      </trkpt>
      <trkpt lat="47.57016" lon="-3.10051">
        <ele>5.6</ele>
        <time>2018-03-31T14:56:58.000Z</time>
      </trkpt>
      <trkpt lat="47.57016" lon="-3.10051">
        <ele>5.6</ele>
        <time>2018-03-31T14:56:59.000Z</time>
      </trkpt>
      <trkpt lat="47.57016" lon="-3.10051">
        <ele>5.6</ele>
        <time>2018-03-31T14:57:00.000Z</time>
      </trkpt>
      <trkpt lat="47.57016" lon="-3.10051">
        <ele>5.6</ele>
        <time>2018-03-31T14:57:01.000Z</time>
      </trkpt>
      <trkpt lat="47.57016" lon="-3.10051">
        <ele>5.6</ele>
        <time>2018-03-31T14:57:02.000Z</time>
      </trkpt>
      <trkpt lat="47.57016" lon="-3.10051">
        <ele>5.6</ele>
        <time>2018-03-31T14:57:03.000Z</time>
      </trkpt>
      <trkpt lat="47.57016" lon="-3.10051">
        <ele>5.6</ele>
        <time>2018-03-31T14:57:04.000Z</time>
      </trkpt>
      <trkpt lat="47.57016" lon="-3.10051">
        <ele>5.6</ele>
        <time>2018-03-31T14:57:05.000Z</time>
      </trkpt>
      <trkpt lat="47.57016" lon="-3.10051">
        <ele>5.6</ele>
        <time>2018-03-31T14:57:06.000Z</time>
      </trkpt>
      <trkpt lat="47.57016" lon="-3.10051">
        <ele>5.6</ele>
        <time>2018-03-31T14:57:07.000Z</time>
      </trkpt>
      <trkpt lat="47.57016" lon="-3.10051">
        <ele>5.6</ele>
        <time>2018-03-31T14:57:08.000Z</time>
      </trkpt>
      <trkpt lat="47.57016" lon="-3.10051">
        <ele>5.6</ele>
        <time>2018-03-31T14:57:09.000Z</time>
      </trkpt>
      <trkpt lat="47.57016" lon="-3.10051">
        <ele>5.6</ele>
        <time>2018-03-31T14:57:10.000Z</time>
      </trkpt>
      <trkpt lat="47.57016" lon="-3.10051">
        <ele>5.6</ele>
        <time>2018-03-31T14:57:11.000Z</time>
      </trkpt>
      <trkpt lat="47.57016" lon="-3.10051">
        <ele>5.6</ele>
        <time>2018-03-31T14:57:12.000Z</time>
      </trkpt>
      <trkpt lat="47.57016" lon="-3.10051">
        <ele>5.6</ele>
        <time>2018-03-31T14:57:13.000Z</time>
      </trkpt>
      <trkpt lat="47.57016" lon="-3.10051">
        <ele>5.6</ele>
        <time>2018-03-31T14:57:14.000Z</time>
      </trkpt>
      <trkpt lat="47.57016" lon="-3.10051">
        <ele>5.6</ele>
        <time>2018-03-31T14:57:15.000Z</time>
      </trkpt>
      <trkpt lat="47.57016" lon="-3.10051">
        <ele>5.6</ele>
        <time>2018-03-31T14:57:16.000Z</time>
      </trkpt>
      <trkpt lat="47.57016" lon="-3.10051">
        <ele>5.6</ele>
        <time>2018-03-31T14:57:17.000Z</time>
      </trkpt>
      <trkpt lat="47.57016" lon="-3.10051">
        <ele>5.6</ele>
        <time>2018-03-31T14:57:18.000Z</time>
      </trkpt>
      <trkpt lat="47.57016" lon="-3.10051">
        <ele>5.6</ele>
        <time>2018-03-31T14:57:19.000Z</time>
      </trkpt>
      <trkpt lat="47.57016" lon="-3.10051">
        <ele>5.6</ele>
        <time>2018-03-31T14:57:20.000Z</time>
      </trkpt>
      <trkpt lat="47.57016" lon="-3.10051">
        <ele>5.6</ele>
        <time>2018-03-31T14:57:21.000Z</time>
      </trkpt>
      <trkpt lat="47.57016" lon="-3.10051">
        <ele>5.6</ele>
        <time>2018-03-31T14:57:22.000Z</time>
      </trkpt>
      <trkpt lat="47.57016" lon="-3.10051">
        <ele>5.6</ele>
        <time>2018-03-31T14:57:23.000Z</time>
      </trkpt>
      <trkpt lat="47.57016" lon="-3.10051">
        <ele>5.6</ele>
        <time>2018-03-31T14:57:24.000Z</time>
      </trkpt>
      <trkpt lat="47.57016" lon="-3.10051">
        <ele>5.6</ele>
        <time>2018-03-31T14:57:25.000Z</time>
      </trkpt>
      <trkpt lat="47.57016" lon="-3.10051">
        <ele>5.6</ele>
        <time>2018-03-31T14:57:26.000Z</time>
      </trkpt>
      <trkpt lat="47.57016" lon="-3.10051">
        <ele>5.6</ele>
        <time>2018-03-31T14:57:27.000Z</time>
      </trkpt>
      <trkpt lat="47.57016" lon="-3.10051">
        <ele>5.6</ele>
        <time>2018-03-31T14:57:28.000Z</time>
      </trkpt>
      <trkpt lat="47.57016" lon="-3.10051">
        <ele>5.6</ele>
        <time>2018-03-31T14:57:29.000Z</time>
      </trkpt>
      <trkpt lat="47.57016" lon="-3.10051">
        <ele>5.6</ele>
        <time>2018-03-31T14:57:30.000Z</time>
      </trkpt>
      <trkpt lat="47.57016" lon="-3.10051">
        <ele>5.6</ele>
        <time>2018-03-31T14:57:31.000Z</time>
      </trkpt>
      <trkpt lat="47.57016" lon="-3.10051">
        <ele>5.6</ele>
        <time>2018-03-31T14:57:32.000Z</time>
      </trkpt>
      <trkpt lat="47.57016" lon="-3.10051">
        <ele>5.6</ele>
        <time>2018-03-31T14:57:33.000Z</time>
      </trkpt>
      <trkpt lat="47.57016" lon="-3.10051">
        <ele>5.6</ele>
        <time>2018-03-31T14:57:34.000Z</time>
      </trkpt>
      <trkpt lat="47.57016" lon="-3.10051">
        <ele>5.6</ele>
        <time>2018-03-31T14:57:35.000Z</time>
      </trkpt>
      <trkpt lat="47.57016" lon="-3.10051">
        <ele>5.6</ele>
        <time>2018-03-31T14:57:36.000Z</time>
      </trkpt>
      <trkpt lat="47.57016" lon="-3.10051">
        <ele>5.6</ele>
        <time>2018-03-31T14:57:37.000Z</time>
      </trkpt>
      <trkpt lat="47.57016" lon="-3.10051">
        <ele>5.6</ele>
        <time>2018-03-31T14:57:38.000Z</time>
      </trkpt>
      <trkpt lat="47.57016" lon="-3.10051">
        <ele>5.6</ele>
        <time>2018-03-31T14:57:39.000Z</time>
      </trkpt>
      <trkpt lat="47.57016" lon="-3.10051">
        <ele>5.6</ele>
        <time>2018-03-31T14:57:40.000Z</time>
      </trkpt>
      <trkpt lat="47.57016" lon="-3.10051">
        <ele>5.6</ele>
        <time>2018-03-31T14:57:41.000Z</time>
      </trkpt>
      <trkpt lat="47.57016" lon="-3.10051">
        <ele>5.6</ele>
        <time>2018-03-31T14:57:42.000Z</time>
      </trkpt>
      <trkpt lat="47.57016" lon="-3.10051">
        <ele>5.6</ele>
        <time>2018-03-31T14:57:43.000Z</time>
      </trkpt>
      <trkpt lat="47.57016" lon="-3.10051">
        <ele>5.6</ele>
        <time>2018-03-31T14:57:44.000Z</time>
      </trkpt>
      <trkpt lat="47.57016" lon="-3.10051">
        <ele>5.6</ele>
        <time>2018-03-31T14:57:45.000Z</time>
      </trkpt>
      <trkpt lat="47.57016" lon="-3.10051">
        <ele>5.6</ele>
        <time>2018-03-31T14:57:46.000Z</time>
      </trkpt>
      <trkpt lat="47.57016" lon="-3.10051">
        <ele>5.6</ele>
        <time>2018-03-31T14:57:47.000Z</time>
      </trkpt>
      <trkpt lat="47.57016" lon="-3.10051">
        <ele>5.6</ele>
        <time>2018-03-31T14:57:48.000Z</time>
      </trkpt>
      <trkpt lat="47.57016" lon="-3.10051">
        <ele>5.6</ele>
        <time>2018-03-31T14:57:49.000Z</time>
      </trkpt>
      <trkpt lat="47.57016" lon="-3.10051">
        <ele>5.6</ele>
        <time>2018-03-31T14:57:50.000Z</time>
      </trkpt>
      <trkpt lat="47.57016" lon="-3.10051">
        <ele>5.6</ele>
        <time>2018-03-31T14:57:51.000Z</time>
      </trkpt>
      <trkpt lat="47.57016" lon="-3.10051">
        <ele>5.6</ele>
        <time>2018-03-31T14:57:52.000Z</time>
      </trkpt>
      <trkpt lat="47.57016" lon="-3.10051">
        <ele>5.6</ele>
        <time>2018-03-31T14:57:53.000Z</time>
      </trkpt>
      <trkpt lat="47.57016" lon="-3.10051">
        <ele>5.6</ele>
        <time>2018-03-31T14:57:54.000Z</time>
      </trkpt>
      <trkpt lat="47.57016" lon="-3.10051">
        <ele>5.6</ele>
        <time>2018-03-31T14:57:55.000Z</time>
      </trkpt>
      <trkpt lat="47.57016" lon="-3.10051">
        <ele>5.6</ele>
        <time>2018-03-31T14:57:56.000Z</time>
      </trkpt>
      <trkpt lat="47.57016" lon="-3.10051">
        <ele>5.6</ele>
        <time>2018-03-31T14:57:57.000Z</time>
      </trkpt>
      <trkpt lat="47.57016" lon="-3.10051">
        <ele>5.6</ele>
        <time>2018-03-31T14:57:58.000Z</time>
      </trkpt>
      <trkpt lat="47.57016" lon="-3.10051">
        <ele>5.6</ele>
        <time>2018-03-31T14:57:59.000Z</time>
      </trkpt>
      <trkpt lat="47.57016" lon="-3.10051">
        <ele>5.6</ele>
        <time>2018-03-31T14:58:00.000Z</time>
      </trkpt>
      <trkpt lat="47.57016" lon="-3.10051">
        <ele>5.6</ele>
        <time>2018-03-31T14:58:01.000Z</time>
      </trkpt>
      <trkpt lat="47.57016" lon="-3.10051">
        <ele>5.6</ele>
        <time>2018-03-31T14:58:02.000Z</time>
      </trkpt>
      <trkpt lat="47.57016" lon="-3.10051">
        <ele>5.6</ele>
        <time>2018-03-31T14:58:03.000Z</time>
      </trkpt>
      <trkpt lat="47.57016" lon="-3.10051">
        <ele>5.6</ele>
        <time>2018-03-31T14:58:04.000Z</time>
      </trkpt>
      <trkpt lat="47.57016" lon="-3.10051">
        <ele>5.6</ele>
        <time>2018-03-31T14:58:05.000Z</time>
      </trkpt>
      <trkpt lat="47.57016" lon="-3.10051">
        <ele>5.6</ele>
        <time>2018-03-31T14:58:06.000Z</time>
      </trkpt>
      <trkpt lat="47.57016" lon="-3.10051">
        <ele>5.6</ele>
        <time>2018-03-31T14:58:07.000Z</time>
      </trkpt>
      <trkpt lat="47.57016" lon="-3.10051">
        <ele>5.6</ele>
        <time>2018-03-31T14:58:08.000Z</time>
      </trkpt>
      <trkpt lat="47.57016" lon="-3.10051">
        <ele>5.6</ele>
        <time>2018-03-31T14:58:09.000Z</time>
      </trkpt>
      <trkpt lat="47.57016" lon="-3.10051">
        <ele>5.6</ele>
        <time>2018-03-31T14:58:10.000Z</time>
      </trkpt>
      <trkpt lat="47.57016" lon="-3.10051">
        <ele>5.6</ele>
        <time>2018-03-31T14:58:11.000Z</time>
      </trkpt>
      <trkpt lat="47.57016" lon="-3.10051">
        <ele>5.6</ele>
        <time>2018-03-31T14:58:12.000Z</time>
      </trkpt>
      <trkpt lat="47.57016" lon="-3.10051">
        <ele>5.6</ele>
        <time>2018-03-31T14:58:13.000Z</time>
      </trkpt>
      <trkpt lat="47.57016" lon="-3.10051">
        <ele>5.6</ele>
        <time>2018-03-31T14:58:14.000Z</time>
      </trkpt>
      <trkpt lat="47.57016" lon="-3.10051">
        <ele>5.6</ele>
        <time>2018-03-31T14:58:15.000Z</time>
      </trkpt>
      <trkpt lat="47.57016" lon="-3.10051">
        <ele>5.6</ele>
        <time>2018-03-31T14:58:16.000Z</time>
      </trkpt>
      <trkpt lat="47.57016" lon="-3.10051">
        <ele>5.6</ele>
        <time>2018-03-31T14:58:17.000Z</time>
      </trkpt>
      <trkpt lat="47.57016" lon="-3.10051">
        <ele>5.6</ele>
        <time>2018-03-31T14:58:18.000Z</time>
      </trkpt>
      <trkpt lat="47.57016" lon="-3.10051">
        <ele>5.6</ele>
        <time>2018-03-31T14:58:19.000Z</time>
      </trkpt>
      <trkpt lat="47.57016" lon="-3.10051">
        <ele>5.6</ele>
        <time>2018-03-31T14:58:20.000Z</time>
      </trkpt>
      <trkpt lat="47.57016" lon="-3.10051">
        <ele>5.6</ele>
        <time>2018-03-31T14:58:21.000Z</time>
      </trkpt>
      <trkpt lat="47.57016" lon="-3.10051">
        <ele>5.6</ele>
        <time>2018-03-31T14:58:22.000Z</time>
      </trkpt>
      <trkpt lat="47.57016" lon="-3.10051">
        <ele>5.6</ele>
        <time>2018-03-31T14:58:23.000Z</time>
      </trkpt>
      <trkpt lat="47.57016" lon="-3.10051">
        <ele>5.6</ele>
        <time>2018-03-31T14:58:24.000Z</time>
      </trkpt>
      <trkpt lat="47.57016" lon="-3.10051">
        <ele>5.6</ele>
        <time>2018-03-31T14:58:25.000Z</time>
      </trkpt>
      <trkpt lat="47.57016" lon="-3.10051">
        <ele>5.6</ele>
        <time>2018-03-31T14:58:26.000Z</time>
      </trkpt>
      <trkpt lat="47.57016" lon="-3.10051">
        <ele>5.6</ele>
        <time>2018-03-31T14:58:27.000Z</time>
      </trkpt>
      <trkpt lat="47.57016" lon="-3.10051">
        <ele>5.6</ele>
        <time>2018-03-31T14:58:28.000Z</time>
      </trkpt>
      <trkpt lat="47.57016" lon="-3.10051">
        <ele>5.6</ele>
        <time>2018-03-31T14:58:29.000Z</time>
      </trkpt>
      <trkpt lat="47.57016" lon="-3.10051">
        <ele>5.6</ele>
        <time>2018-03-31T14:58:30.000Z</time>
      </trkpt>
      <trkpt lat="47.57016" lon="-3.10051">
        <ele>5.6</ele>
        <time>2018-03-31T14:58:31.000Z</time>
      </trkpt>
      <trkpt lat="47.57016" lon="-3.10051">
        <ele>5.6</ele>
        <time>2018-03-31T14:58:32.000Z</time>
      </trkpt>
      <trkpt lat="47.57016" lon="-3.10051">
        <ele>5.6</ele>
        <time>2018-03-31T14:58:33.000Z</time>
      </trkpt>
      <trkpt lat="47.57016" lon="-3.10051">
        <ele>5.6</ele>
        <time>2018-03-31T14:58:34.000Z</time>
      </trkpt>
      <trkpt lat="47.57016" lon="-3.10051">
        <ele>5.6</ele>
        <time>2018-03-31T14:58:35.000Z</time>
      </trkpt>
      <trkpt lat="47.57016" lon="-3.10051">
        <ele>5.6</ele>
        <time>2018-03-31T14:58:36.000Z</time>
      </trkpt>
      <trkpt lat="47.57016" lon="-3.10051">
        <ele>5.6</ele>
        <time>2018-03-31T14:58:37.000Z</time>
      </trkpt>
      <trkpt lat="47.57016" lon="-3.10051">
        <ele>5.6</ele>
        <time>2018-03-31T14:58:38.000Z</time>
      </trkpt>
      <trkpt lat="47.57016" lon="-3.10051">
        <ele>5.6</ele>
        <time>2018-03-31T14:58:39.000Z</time>
      </trkpt>
      <trkpt lat="47.57013" lon="-3.10055">
        <ele>5.4</ele>
        <time>2018-03-31T14:58:40.000Z</time>
      </trkpt>
      <trkpt lat="47.57013" lon="-3.10057">
        <ele>5.4</ele>
        <time>2018-03-31T14:58:41.000Z</time>
      </trkpt>
      <trkpt lat="47.57013" lon="-3.10056">
        <ele>5.3</ele>
        <time>2018-03-31T14:58:42.000Z</time>
      </trkpt>
      <trkpt lat="47.57013" lon="-3.10057">
        <ele>5.4</ele>
        <time>2018-03-31T14:58:43.000Z</time>
      </trkpt>
      <trkpt lat="47.57013" lon="-3.10057">
        <ele>5.4</ele>
        <time>2018-03-31T14:58:44.000Z</time>
      </trkpt>
      <trkpt lat="47.57013" lon="-3.10057">
        <ele>5.4</ele>
        <time>2018-03-31T14:58:45.000Z</time>
      </trkpt>
      <trkpt lat="47.57013" lon="-3.10057">
        <ele>5.4</ele>
        <time>2018-03-31T14:58:46.000Z</time>
      </trkpt>
      <trkpt lat="47.57013" lon="-3.10057">
        <ele>5.4</ele>
        <time>2018-03-31T14:58:47.000Z</time>
      </trkpt>
      <trkpt lat="47.57013" lon="-3.10057">
        <ele>5.4</ele>
        <time>2018-03-31T14:58:48.000Z</time>
      </trkpt>
      <trkpt lat="47.57013" lon="-3.10057">
        <ele>5.4</ele>
        <time>2018-03-31T14:58:49.000Z</time>
      </trkpt>
      <trkpt lat="47.57013" lon="-3.10057">
        <ele>5.4</ele>
        <time>2018-03-31T14:58:50.000Z</time>
      </trkpt>
      <trkpt lat="47.57013" lon="-3.10057">
        <ele>5.4</ele>
        <time>2018-03-31T14:58:51.000Z</time>
      </trkpt>
      <trkpt lat="47.57013" lon="-3.10057">
        <ele>5.4</ele>
        <time>2018-03-31T14:58:52.000Z</time>
      </trkpt>
      <trkpt lat="47.57013" lon="-3.10057">
        <ele>5.4</ele>
        <time>2018-03-31T14:58:53.000Z</time>
      </trkpt>
      <trkpt lat="47.57013" lon="-3.10057">
        <ele>5.4</ele>
        <time>2018-03-31T14:58:54.000Z</time>
      </trkpt>
      <trkpt lat="47.57013" lon="-3.10057">
        <ele>5.4</ele>
        <time>2018-03-31T14:58:55.000Z</time>
      </trkpt>
      <trkpt lat="47.57013" lon="-3.10057">
        <ele>5.4</ele>
        <time>2018-03-31T14:58:56.000Z</time>
      </trkpt>
      <trkpt lat="47.57015" lon="-3.10043">
        <ele>5.2</ele>
        <time>2018-03-31T14:58:57.000Z</time>
      </trkpt>
      <trkpt lat="47.57015" lon="-3.10042">
        <ele>5.1</ele>
        <time>2018-03-31T14:58:58.000Z</time>
      </trkpt>
      <trkpt lat="47.57014" lon="-3.10042">
        <ele>5.1</ele>
        <time>2018-03-31T14:58:59.000Z</time>
      </trkpt>
      <trkpt lat="47.57014" lon="-3.10042">
        <ele>5</ele>
        <time>2018-03-31T14:59:00.000Z</time>
      </trkpt>
      <trkpt lat="47.57014" lon="-3.10042">
        <ele>5</ele>
        <time>2018-03-31T14:59:01.000Z</time>
      </trkpt>
      <trkpt lat="47.57014" lon="-3.10042">
        <ele>5</ele>
        <time>2018-03-31T14:59:02.000Z</time>
      </trkpt>
      <trkpt lat="47.57014" lon="-3.10042">
        <ele>5</ele>
        <time>2018-03-31T14:59:03.000Z</time>
      </trkpt>
      <trkpt lat="47.57014" lon="-3.10042">
        <ele>5</ele>
        <time>2018-03-31T14:59:04.000Z</time>
      </trkpt>
      <trkpt lat="47.57014" lon="-3.10042">
        <ele>5</ele>
        <time>2018-03-31T14:59:05.000Z</time>
      </trkpt>
      <trkpt lat="47.57014" lon="-3.10042">
        <ele>5</ele>
        <time>2018-03-31T14:59:06.000Z</time>
      </trkpt>
      <trkpt lat="47.57014" lon="-3.10042">
        <ele>5</ele>
        <time>2018-03-31T14:59:07.000Z</time>
      </trkpt>
      <trkpt lat="47.57014" lon="-3.10042">
        <ele>5</ele>
        <time>2018-03-31T14:59:08.000Z</time>
      </trkpt>
      <trkpt lat="47.57014" lon="-3.10042">
        <ele>5</ele>
        <time>2018-03-31T14:59:09.000Z</time>
      </trkpt>
      <trkpt lat="47.57014" lon="-3.10042">
        <ele>5</ele>
        <time>2018-03-31T14:59:10.000Z</time>
      </trkpt>
      <trkpt lat="47.57014" lon="-3.10042">
        <ele>5</ele>
        <time>2018-03-31T14:59:11.000Z</time>
      </trkpt>
      <trkpt lat="47.57014" lon="-3.10042">
        <ele>5</ele>
        <time>2018-03-31T14:59:12.000Z</time>
      </trkpt>
      <trkpt lat="47.57014" lon="-3.10042">
        <ele>5</ele>
        <time>2018-03-31T14:59:13.000Z</time>
      </trkpt>
      <trkpt lat="47.57014" lon="-3.10042">
        <ele>5</ele>
        <time>2018-03-31T14:59:14.000Z</time>
      </trkpt>
      <trkpt lat="47.57014" lon="-3.10042">
        <ele>5</ele>
        <time>2018-03-31T14:59:15.000Z</time>
      </trkpt>
      <trkpt lat="47.57014" lon="-3.10042">
        <ele>5</ele>
        <time>2018-03-31T14:59:16.000Z</time>
      </trkpt>
      <trkpt lat="47.57014" lon="-3.10042">
        <ele>5</ele>
        <time>2018-03-31T14:59:17.000Z</time>
      </trkpt>
      <trkpt lat="47.57014" lon="-3.10042">
        <ele>5</ele>
        <time>2018-03-31T14:59:18.000Z</time>
      </trkpt>
      <trkpt lat="47.57014" lon="-3.10043">
        <ele>5</ele>
        <time>2018-03-31T14:59:19.000Z</time>
      </trkpt>
      <trkpt lat="47.57013" lon="-3.10043">
        <ele>4.9</ele>
        <time>2018-03-31T14:59:20.000Z</time>
      </trkpt>
      <trkpt lat="47.57013" lon="-3.10042">
        <ele>4.9</ele>
        <time>2018-03-31T14:59:21.000Z</time>
      </trkpt>
      <trkpt lat="47.57013" lon="-3.10043">
        <ele>4.9</ele>
        <time>2018-03-31T14:59:22.000Z</time>
      </trkpt>
      <trkpt lat="47.57013" lon="-3.10043">
        <ele>4.9</ele>
        <time>2018-03-31T14:59:23.000Z</time>
      </trkpt>
      <trkpt lat="47.57013" lon="-3.10043">
        <ele>4.9</ele>
        <time>2018-03-31T14:59:24.000Z</time>
      </trkpt>
      <trkpt lat="47.57013" lon="-3.10043">
        <ele>4.9</ele>
        <time>2018-03-31T14:59:25.000Z</time>
      </trkpt>
      <trkpt lat="47.57013" lon="-3.10043">
        <ele>4.9</ele>
        <time>2018-03-31T14:59:26.000Z</time>
      </trkpt>
      <trkpt lat="47.57013" lon="-3.10043">
        <ele>4.9</ele>
        <time>2018-03-31T14:59:27.000Z</time>
      </trkpt>
      <trkpt lat="47.57013" lon="-3.10043">
        <ele>4.9</ele>
        <time>2018-03-31T14:59:28.000Z</time>
      </trkpt>
      <trkpt lat="47.57013" lon="-3.10043">
        <ele>4.9</ele>
        <time>2018-03-31T14:59:29.000Z</time>
      </trkpt>
      <trkpt lat="47.57013" lon="-3.10043">
        <ele>4.9</ele>
        <time>2018-03-31T14:59:30.000Z</time>
      </trkpt>
      <trkpt lat="47.57013" lon="-3.10043">
        <ele>4.9</ele>
        <time>2018-03-31T14:59:31.000Z</time>
      </trkpt>
      <trkpt lat="47.57016" lon="-3.10038">
        <ele>5.1</ele>
        <time>2018-03-31T14:59:32.000Z</time>
      </trkpt>
      <trkpt lat="47.57017" lon="-3.10037">
        <ele>5.2</ele>
        <time>2018-03-31T14:59:33.000Z</time>
      </trkpt>
      <trkpt lat="47.57017" lon="-3.10036">
        <ele>5.2</ele>
        <time>2018-03-31T14:59:34.000Z</time>
      </trkpt>
      <trkpt lat="47.57018" lon="-3.10035">
        <ele>5.2</ele>
        <time>2018-03-31T14:59:35.000Z</time>
      </trkpt>
      <trkpt lat="47.57018" lon="-3.10034">
        <ele>5.2</ele>
        <time>2018-03-31T14:59:36.000Z</time>
      </trkpt>
      <trkpt lat="47.57018" lon="-3.10033">
        <ele>5.2</ele>
        <time>2018-03-31T14:59:37.000Z</time>
      </trkpt>
      <trkpt lat="47.57018" lon="-3.10033">
        <ele>5.2</ele>
        <time>2018-03-31T14:59:38.000Z</time>
      </trkpt>
      <trkpt lat="47.57018" lon="-3.10033">
        <ele>5.2</ele>
        <time>2018-03-31T14:59:39.000Z</time>
      </trkpt>
      <trkpt lat="47.57018" lon="-3.10033">
        <ele>5.2</ele>
        <time>2018-03-31T14:59:40.000Z</time>
      </trkpt>
      <trkpt lat="47.57018" lon="-3.10033">
        <ele>5.2</ele>
        <time>2018-03-31T14:59:41.000Z</time>
      </trkpt>
      <trkpt lat="47.57018" lon="-3.10033">
        <ele>5.2</ele>
        <time>2018-03-31T14:59:42.000Z</time>
      </trkpt>
      <trkpt lat="47.57018" lon="-3.10033">
        <ele>5.2</ele>
        <time>2018-03-31T14:59:43.000Z</time>
      </trkpt>
      <trkpt lat="47.57018" lon="-3.10033">
        <ele>5.2</ele>
        <time>2018-03-31T14:59:44.000Z</time>
      </trkpt>
      <trkpt lat="47.57018" lon="-3.10033">
        <ele>5.2</ele>
        <time>2018-03-31T14:59:45.000Z</time>
      </trkpt>
      <trkpt lat="47.57018" lon="-3.10033">
        <ele>5.2</ele>
        <time>2018-03-31T14:59:46.000Z</time>
      </trkpt>
      <trkpt lat="47.57018" lon="-3.10033">
        <ele>5.2</ele>
        <time>2018-03-31T14:59:47.000Z</time>
      </trkpt>
      <trkpt lat="47.57018" lon="-3.10033">
        <ele>5.2</ele>
        <time>2018-03-31T14:59:48.000Z</time>
      </trkpt>
      <trkpt lat="47.57018" lon="-3.10033">
        <ele>5.2</ele>
        <time>2018-03-31T14:59:49.000Z</time>
      </trkpt>
      <trkpt lat="47.57018" lon="-3.10033">
        <ele>5.2</ele>
        <time>2018-03-31T14:59:50.000Z</time>
      </trkpt>
      <trkpt lat="47.57018" lon="-3.10033">
        <ele>5.2</ele>
        <time>2018-03-31T14:59:51.000Z</time>
      </trkpt>
      <trkpt lat="47.57018" lon="-3.10033">
        <ele>5.2</ele>
        <time>2018-03-31T14:59:52.000Z</time>
      </trkpt>
      <trkpt lat="47.57018" lon="-3.10033">
        <ele>5.2</ele>
        <time>2018-03-31T14:59:53.000Z</time>
      </trkpt>
      <trkpt lat="47.57018" lon="-3.10033">
        <ele>5.2</ele>
        <time>2018-03-31T14:59:54.000Z</time>
      </trkpt>
      <trkpt lat="47.57018" lon="-3.10033">
        <ele>5.2</ele>
        <time>2018-03-31T14:59:55.000Z</time>
      </trkpt>
      <trkpt lat="47.57018" lon="-3.10033">
        <ele>5.2</ele>
        <time>2018-03-31T14:59:56.000Z</time>
      </trkpt>
      <trkpt lat="47.57018" lon="-3.10033">
        <ele>5.2</ele>
        <time>2018-03-31T14:59:57.000Z</time>
      </trkpt>
      <trkpt lat="47.57018" lon="-3.10033">
        <ele>5.2</ele>
        <time>2018-03-31T14:59:58.000Z</time>
      </trkpt>
      <trkpt lat="47.57018" lon="-3.10033">
        <ele>5.2</ele>
        <time>2018-03-31T14:59:59.000Z</time>
      </trkpt>
      <trkpt lat="47.57018" lon="-3.10033">
        <ele>5.2</ele>
        <time>2018-03-31T15:00:00.000Z</time>
      </trkpt>
      <trkpt lat="47.57018" lon="-3.10033">
        <ele>5.2</ele>
        <time>2018-03-31T15:00:01.000Z</time>
      </trkpt>
      <trkpt lat="47.57015" lon="-3.10024">
        <ele>4.7</ele>
        <time>2018-03-31T15:00:02.000Z</time>
      </trkpt>
      <trkpt lat="47.57014" lon="-3.10024">
        <ele>4.6</ele>
        <time>2018-03-31T15:00:03.000Z</time>
      </trkpt>
      <trkpt lat="47.57014" lon="-3.10024">
        <ele>4.6</ele>
        <time>2018-03-31T15:00:04.000Z</time>
      </trkpt>
      <trkpt lat="47.57014" lon="-3.10024">
        <ele>4.6</ele>
        <time>2018-03-31T15:00:05.000Z</time>
      </trkpt>
      <trkpt lat="47.57014" lon="-3.10024">
        <ele>4.6</ele>
        <time>2018-03-31T15:00:06.000Z</time>
      </trkpt>
      <trkpt lat="47.57014" lon="-3.10024">
        <ele>4.6</ele>
        <time>2018-03-31T15:00:07.000Z</time>
      </trkpt>
      <trkpt lat="47.57014" lon="-3.10024">
        <ele>4.6</ele>
        <time>2018-03-31T15:00:08.000Z</time>
      </trkpt>
      <trkpt lat="47.57014" lon="-3.10024">
        <ele>4.6</ele>
        <time>2018-03-31T15:00:09.000Z</time>
      </trkpt>
      <trkpt lat="47.57014" lon="-3.10024">
        <ele>4.6</ele>
        <time>2018-03-31T15:00:10.000Z</time>
      </trkpt>
      <trkpt lat="47.57014" lon="-3.10024">
        <ele>4.6</ele>
        <time>2018-03-31T15:00:11.000Z</time>
      </trkpt>
      <trkpt lat="47.57014" lon="-3.10024">
        <ele>4.6</ele>
        <time>2018-03-31T15:00:12.000Z</time>
      </trkpt>
      <trkpt lat="47.57014" lon="-3.10024">
        <ele>4.6</ele>
        <time>2018-03-31T15:00:13.000Z</time>
      </trkpt>
      <trkpt lat="47.57014" lon="-3.10024">
        <ele>4.6</ele>
        <time>2018-03-31T15:00:14.000Z</time>
      </trkpt>
      <trkpt lat="47.57014" lon="-3.10024">
        <ele>4.6</ele>
        <time>2018-03-31T15:00:15.000Z</time>
      </trkpt>
      <trkpt lat="47.57014" lon="-3.10024">
        <ele>4.6</ele>
        <time>2018-03-31T15:00:16.000Z</time>
      </trkpt>
      <trkpt lat="47.57014" lon="-3.10024">
        <ele>4.6</ele>
        <time>2018-03-31T15:00:17.000Z</time>
      </trkpt>
      <trkpt lat="47.57014" lon="-3.10024">
        <ele>4.6</ele>
        <time>2018-03-31T15:00:18.000Z</time>
      </trkpt>
      <trkpt lat="47.57014" lon="-3.10024">
        <ele>4.6</ele>
        <time>2018-03-31T15:00:19.000Z</time>
      </trkpt>
      <trkpt lat="47.57014" lon="-3.10024">
        <ele>4.6</ele>
        <time>2018-03-31T15:00:20.000Z</time>
      </trkpt>
      <trkpt lat="47.57014" lon="-3.10024">
        <ele>4.6</ele>
        <time>2018-03-31T15:00:21.000Z</time>
      </trkpt>
      <trkpt lat="47.57014" lon="-3.10024">
        <ele>4.6</ele>
        <time>2018-03-31T15:00:22.000Z</time>
      </trkpt>
      <trkpt lat="47.57014" lon="-3.10024">
        <ele>4.6</ele>
        <time>2018-03-31T15:00:23.000Z</time>
      </trkpt>
      <trkpt lat="47.57014" lon="-3.10024">
        <ele>4.6</ele>
        <time>2018-03-31T15:00:24.000Z</time>
      </trkpt>
      <trkpt lat="47.57014" lon="-3.10024">
        <ele>4.6</ele>
        <time>2018-03-31T15:00:25.000Z</time>
      </trkpt>
      <trkpt lat="47.57014" lon="-3.10024">
        <ele>4.6</ele>
        <time>2018-03-31T15:00:26.000Z</time>
      </trkpt>
      <trkpt lat="47.57014" lon="-3.10024">
        <ele>4.6</ele>
        <time>2018-03-31T15:00:27.000Z</time>
      </trkpt>
      <trkpt lat="47.57014" lon="-3.10024">
        <ele>4.6</ele>
        <time>2018-03-31T15:00:28.000Z</time>
      </trkpt>
      <trkpt lat="47.57014" lon="-3.10024">
        <ele>4.6</ele>
        <time>2018-03-31T15:00:29.000Z</time>
      </trkpt>
      <trkpt lat="47.57014" lon="-3.10024">
        <ele>4.6</ele>
        <time>2018-03-31T15:00:30.000Z</time>
      </trkpt>
      <trkpt lat="47.57014" lon="-3.10024">
        <ele>4.6</ele>
        <time>2018-03-31T15:00:31.000Z</time>
      </trkpt>
      <trkpt lat="47.57014" lon="-3.10024">
        <ele>4.6</ele>
        <time>2018-03-31T15:00:32.000Z</time>
      </trkpt>
      <trkpt lat="47.57014" lon="-3.10024">
        <ele>4.6</ele>
        <time>2018-03-31T15:00:33.000Z</time>
      </trkpt>
      <trkpt lat="47.57014" lon="-3.10024">
        <ele>4.6</ele>
        <time>2018-03-31T15:00:34.000Z</time>
      </trkpt>
      <trkpt lat="47.57014" lon="-3.10024">
        <ele>4.6</ele>
        <time>2018-03-31T15:00:35.000Z</time>
      </trkpt>
      <trkpt lat="47.57014" lon="-3.10024">
        <ele>4.6</ele>
        <time>2018-03-31T15:00:36.000Z</time>
      </trkpt>
      <trkpt lat="47.57014" lon="-3.10024">
        <ele>4.6</ele>
        <time>2018-03-31T15:00:37.000Z</time>
      </trkpt>
      <trkpt lat="47.57014" lon="-3.10024">
        <ele>4.6</ele>
        <time>2018-03-31T15:00:38.000Z</time>
      </trkpt>
      <trkpt lat="47.57014" lon="-3.10024">
        <ele>4.6</ele>
        <time>2018-03-31T15:00:39.000Z</time>
      </trkpt>
      <trkpt lat="47.57014" lon="-3.10024">
        <ele>4.6</ele>
        <time>2018-03-31T15:00:40.000Z</time>
      </trkpt>
      <trkpt lat="47.57014" lon="-3.10024">
        <ele>4.6</ele>
        <time>2018-03-31T15:00:41.000Z</time>
      </trkpt>
      <trkpt lat="47.57014" lon="-3.10028">
        <ele>4.5</ele>
        <time>2018-03-31T15:00:42.000Z</time>
      </trkpt>
      <trkpt lat="47.57014" lon="-3.10029">
        <ele>4.5</ele>
        <time>2018-03-31T15:00:43.000Z</time>
      </trkpt>
      <trkpt lat="47.57013" lon="-3.1003">
        <ele>4.5</ele>
        <time>2018-03-31T15:00:44.000Z</time>
      </trkpt>
      <trkpt lat="47.57012" lon="-3.10031">
        <ele>4.4</ele>
        <time>2018-03-31T15:00:45.000Z</time>
      </trkpt>
      <trkpt lat="47.57012" lon="-3.10032">
        <ele>4.4</ele>
        <time>2018-03-31T15:00:46.000Z</time>
      </trkpt>
      <trkpt lat="47.57012" lon="-3.10033">
        <ele>4.4</ele>
        <time>2018-03-31T15:00:47.000Z</time>
      </trkpt>
      <trkpt lat="47.57012" lon="-3.10033">
        <ele>4.4</ele>
        <time>2018-03-31T15:00:48.000Z</time>
      </trkpt>
      <trkpt lat="47.57012" lon="-3.10033">
        <ele>4.4</ele>
        <time>2018-03-31T15:00:49.000Z</time>
      </trkpt>
      <trkpt lat="47.57012" lon="-3.10033">
        <ele>4.4</ele>
        <time>2018-03-31T15:00:50.000Z</time>
      </trkpt>
      <trkpt lat="47.57011" lon="-3.10029">
        <ele>4.2</ele>
        <time>2018-03-31T15:00:51.000Z</time>
      </trkpt>
      <trkpt lat="47.5701" lon="-3.10028">
        <ele>4.1</ele>
        <time>2018-03-31T15:00:52.000Z</time>
      </trkpt>
      <trkpt lat="47.57009" lon="-3.10027">
        <ele>4</ele>
        <time>2018-03-31T15:00:53.000Z</time>
      </trkpt>
      <trkpt lat="47.57009" lon="-3.10025">
        <ele>4</ele>
        <time>2018-03-31T15:00:54.000Z</time>
      </trkpt>
      <trkpt lat="47.57008" lon="-3.10024">
        <ele>4</ele>
        <time>2018-03-31T15:00:55.000Z</time>
      </trkpt>
      <trkpt lat="47.57008" lon="-3.10021">
        <ele>4</ele>
        <time>2018-03-31T15:00:56.000Z</time>
      </trkpt>
      <trkpt lat="47.57008" lon="-3.10021">
        <ele>4</ele>
        <time>2018-03-31T15:00:57.000Z</time>
      </trkpt>
      <trkpt lat="47.57007" lon="-3.1002">
        <ele>4</ele>
        <time>2018-03-31T15:00:58.000Z</time>
      </trkpt>
      <trkpt lat="47.57007" lon="-3.10018">
        <ele>4</ele>
        <time>2018-03-31T15:00:59.000Z</time>
      </trkpt>
      <trkpt lat="47.57007" lon="-3.10017">
        <ele>4</ele>
        <time>2018-03-31T15:01:00.000Z</time>
      </trkpt>
      <trkpt lat="47.57006" lon="-3.10015">
        <ele>4</ele>
        <time>2018-03-31T15:01:01.000Z</time>
      </trkpt>
      <trkpt lat="47.57006" lon="-3.10014">
        <ele>4</ele>
        <time>2018-03-31T15:01:02.000Z</time>
      </trkpt>
      <trkpt lat="47.57006" lon="-3.10014">
        <ele>4</ele>
        <time>2018-03-31T15:01:03.000Z</time>
      </trkpt>
      <trkpt lat="47.57006" lon="-3.10014">
        <ele>4</ele>
        <time>2018-03-31T15:01:04.000Z</time>
      </trkpt>
      <trkpt lat="47.57006" lon="-3.10014">
        <ele>4</ele>
        <time>2018-03-31T15:01:05.000Z</time>
      </trkpt>
      <trkpt lat="47.57006" lon="-3.10014">
        <ele>4</ele>
        <time>2018-03-31T15:01:06.000Z</time>
      </trkpt>
      <trkpt lat="47.57006" lon="-3.10014">
        <ele>4</ele>
        <time>2018-03-31T15:01:07.000Z</time>
      </trkpt>
      <trkpt lat="47.57006" lon="-3.10014">
        <ele>4</ele>
        <time>2018-03-31T15:01:08.000Z</time>
      </trkpt>
      <trkpt lat="47.57006" lon="-3.10014">
        <ele>4</ele>
        <time>2018-03-31T15:01:09.000Z</time>
      </trkpt>
      <trkpt lat="47.57006" lon="-3.10014">
        <ele>4</ele>
        <time>2018-03-31T15:01:10.000Z</time>
      </trkpt>
      <trkpt lat="47.57006" lon="-3.10014">
        <ele>4</ele>
        <time>2018-03-31T15:01:11.000Z</time>
      </trkpt>
      <trkpt lat="47.57001" lon="-3.10011">
        <ele>3.7</ele>
        <time>2018-03-31T15:01:12.000Z</time>
      </trkpt>
      <trkpt lat="47.57" lon="-3.10011">
        <ele>3.6</ele>
        <time>2018-03-31T15:01:13.000Z</time>
      </trkpt>
      <trkpt lat="47.56999" lon="-3.10011">
        <ele>3.5</ele>
        <time>2018-03-31T15:01:14.000Z</time>
      </trkpt>
      <trkpt lat="47.56998" lon="-3.10012">
        <ele>3.4</ele>
        <time>2018-03-31T15:01:15.000Z</time>
      </trkpt>
      <trkpt lat="47.56996" lon="-3.10012">
        <ele>3.2</ele>
        <time>2018-03-31T15:01:16.000Z</time>
      </trkpt>
      <trkpt lat="47.56995" lon="-3.10013">
        <ele>3</ele>
        <time>2018-03-31T15:01:17.000Z</time>
      </trkpt>
      <trkpt lat="47.56994" lon="-3.10013">
        <ele>3</ele>
        <time>2018-03-31T15:01:18.000Z</time>
      </trkpt>
      <trkpt lat="47.56994" lon="-3.10011">
        <ele>3</ele>
        <time>2018-03-31T15:01:19.000Z</time>
      </trkpt>
      <trkpt lat="47.56994" lon="-3.10011">
        <ele>3</ele>
        <time>2018-03-31T15:01:20.000Z</time>
      </trkpt>
      <trkpt lat="47.56994" lon="-3.10011">
        <ele>3</ele>
        <time>2018-03-31T15:01:21.000Z</time>
      </trkpt>
      <trkpt lat="47.56994" lon="-3.10011">
        <ele>3</ele>
        <time>2018-03-31T15:01:22.000Z</time>
      </trkpt>
      <trkpt lat="47.56994" lon="-3.10011">
        <ele>3</ele>
        <time>2018-03-31T15:01:23.000Z</time>
      </trkpt>
      <trkpt lat="47.56994" lon="-3.10011">
        <ele>3</ele>
        <time>2018-03-31T15:01:24.000Z</time>
      </trkpt>
      <trkpt lat="47.56994" lon="-3.10011">
        <ele>3</ele>
        <time>2018-03-31T15:01:25.000Z</time>
      </trkpt>
      <trkpt lat="47.56994" lon="-3.10011">
        <ele>3</ele>
        <time>2018-03-31T15:01:26.000Z</time>
      </trkpt>
      <trkpt lat="47.56994" lon="-3.10011">
        <ele>3</ele>
        <time>2018-03-31T15:01:27.000Z</time>
      </trkpt>
      <trkpt lat="47.56994" lon="-3.10011">
        <ele>3</ele>
        <time>2018-03-31T15:01:28.000Z</time>
      </trkpt>
      <trkpt lat="47.56994" lon="-3.10011">
        <ele>3</ele>
        <time>2018-03-31T15:01:29.000Z</time>
      </trkpt>
      <trkpt lat="47.56994" lon="-3.10011">
        <ele>3</ele>
        <time>2018-03-31T15:01:30.000Z</time>
      </trkpt>
      <trkpt lat="47.56994" lon="-3.10011">
        <ele>3</ele>
        <time>2018-03-31T15:01:31.000Z</time>
      </trkpt>
      <trkpt lat="47.56994" lon="-3.10011">
        <ele>3</ele>
        <time>2018-03-31T15:01:32.000Z</time>
      </trkpt>
      <trkpt lat="47.57002" lon="-3.10004">
        <ele>4</ele>
        <time>2018-03-31T15:01:33.000Z</time>
      </trkpt>
      <trkpt lat="47.57004" lon="-3.10005">
        <ele>4.1</ele>
        <time>2018-03-31T15:01:34.000Z</time>
      </trkpt>
      <trkpt lat="47.57004" lon="-3.10005">
        <ele>4.1</ele>
        <time>2018-03-31T15:01:35.000Z</time>
      </trkpt>
      <trkpt lat="47.57005" lon="-3.10006">
        <ele>4.2</ele>
        <time>2018-03-31T15:01:36.000Z</time>
      </trkpt>
      <trkpt lat="47.57005" lon="-3.10007">
        <ele>4.2</ele>
        <time>2018-03-31T15:01:37.000Z</time>
      </trkpt>
      <trkpt lat="47.57005" lon="-3.10007">
        <ele>4.2</ele>
        <time>2018-03-31T15:01:38.000Z</time>
      </trkpt>
      <trkpt lat="47.57006" lon="-3.10008">
        <ele>4.2</ele>
        <time>2018-03-31T15:01:39.000Z</time>
      </trkpt>
      <trkpt lat="47.57006" lon="-3.10009">
        <ele>4.2</ele>
        <time>2018-03-31T15:01:40.000Z</time>
      </trkpt>
      <trkpt lat="47.57006" lon="-3.10011">
        <ele>4.2</ele>
        <time>2018-03-31T15:01:41.000Z</time>
      </trkpt>
      <trkpt lat="47.57007" lon="-3.10012">
        <ele>4.2</ele>
        <time>2018-03-31T15:01:42.000Z</time>
      </trkpt>
      <trkpt lat="47.57007" lon="-3.10013">
        <ele>4.2</ele>
        <time>2018-03-31T15:01:43.000Z</time>
      </trkpt>
      <trkpt lat="47.57008" lon="-3.10013">
        <ele>4.2</ele>
        <time>2018-03-31T15:01:44.000Z</time>
      </trkpt>
      <trkpt lat="47.57008" lon="-3.10015">
        <ele>4.2</ele>
        <time>2018-03-31T15:01:45.000Z</time>
      </trkpt>
      <trkpt lat="47.57009" lon="-3.10017">
        <ele>4.3</ele>
        <time>2018-03-31T15:01:46.000Z</time>
      </trkpt>
      <trkpt lat="47.5701" lon="-3.10018">
        <ele>4.3</ele>
        <time>2018-03-31T15:01:47.000Z</time>
      </trkpt>
      <trkpt lat="47.5701" lon="-3.10018">
        <ele>4.3</ele>
        <time>2018-03-31T15:01:48.000Z</time>
      </trkpt>
      <trkpt lat="47.57009" lon="-3.10019">
        <ele>4.2</ele>
        <time>2018-03-31T15:01:49.000Z</time>
      </trkpt>
      <trkpt lat="47.57009" lon="-3.10019">
        <ele>4.2</ele>
        <time>2018-03-31T15:01:50.000Z</time>
      </trkpt>
      <trkpt lat="47.57009" lon="-3.10019">
        <ele>4.2</ele>
        <time>2018-03-31T15:01:51.000Z</time>
      </trkpt>
      <trkpt lat="47.57009" lon="-3.10019">
        <ele>4.2</ele>
        <time>2018-03-31T15:01:52.000Z</time>
      </trkpt>
      <trkpt lat="47.57009" lon="-3.10019">
        <ele>4.2</ele>
        <time>2018-03-31T15:01:53.000Z</time>
      </trkpt>
      <trkpt lat="47.57009" lon="-3.10019">
        <ele>4.2</ele>
        <time>2018-03-31T15:01:54.000Z</time>
      </trkpt>
      <trkpt lat="47.57009" lon="-3.10019">
        <ele>4.2</ele>
        <time>2018-03-31T15:01:55.000Z</time>
      </trkpt>
      <trkpt lat="47.57009" lon="-3.10032">
        <ele>4.1</ele>
        <time>2018-03-31T15:01:56.000Z</time>
      </trkpt>
      <trkpt lat="47.57008" lon="-3.10035">
        <ele>4</ele>
        <time>2018-03-31T15:01:57.000Z</time>
      </trkpt>
      <trkpt lat="47.57009" lon="-3.10035">
        <ele>4.1</ele>
        <time>2018-03-31T15:01:58.000Z</time>
      </trkpt>
      <trkpt lat="47.57009" lon="-3.10035">
        <ele>4.2</ele>
        <time>2018-03-31T15:01:59.000Z</time>
      </trkpt>
      <trkpt lat="47.57011" lon="-3.10035">
        <ele>4.3</ele>
        <time>2018-03-31T15:02:00.000Z</time>
      </trkpt>
      <trkpt lat="47.57011" lon="-3.10034">
        <ele>4.4</ele>
        <time>2018-03-31T15:02:01.000Z</time>
      </trkpt>
      <trkpt lat="47.57012" lon="-3.10032">
        <ele>4.4</ele>
        <time>2018-03-31T15:02:02.000Z</time>
      </trkpt>
      <trkpt lat="47.57012" lon="-3.10031">
        <ele>4.4</ele>
        <time>2018-03-31T15:02:03.000Z</time>
      </trkpt>
      <trkpt lat="47.57013" lon="-3.1003">
        <ele>4.5</ele>
        <time>2018-03-31T15:02:04.000Z</time>
      </trkpt>
      <trkpt lat="47.57014" lon="-3.1003">
        <ele>4.5</ele>
        <time>2018-03-31T15:02:05.000Z</time>
      </trkpt>
      <trkpt lat="47.57014" lon="-3.10029">
        <ele>4.5</ele>
        <time>2018-03-31T15:02:06.000Z</time>
      </trkpt>
      <trkpt lat="47.57014" lon="-3.10029">
        <ele>4.5</ele>
        <time>2018-03-31T15:02:07.000Z</time>
      </trkpt>
      <trkpt lat="47.57014" lon="-3.10029">
        <ele>4.5</ele>
        <time>2018-03-31T15:02:08.000Z</time>
      </trkpt>
      <trkpt lat="47.57014" lon="-3.10029">
        <ele>4.5</ele>
        <time>2018-03-31T15:02:09.000Z</time>
      </trkpt>
      <trkpt lat="47.57014" lon="-3.10029">
        <ele>4.5</ele>
        <time>2018-03-31T15:02:10.000Z</time>
      </trkpt>
      <trkpt lat="47.57014" lon="-3.10029">
        <ele>4.5</ele>
        <time>2018-03-31T15:02:11.000Z</time>
      </trkpt>
      <trkpt lat="47.57014" lon="-3.10029">
        <ele>4.5</ele>
        <time>2018-03-31T15:02:12.000Z</time>
      </trkpt>
      <trkpt lat="47.57014" lon="-3.10029">
        <ele>4.5</ele>
        <time>2018-03-31T15:02:13.000Z</time>
      </trkpt>
      <trkpt lat="47.57014" lon="-3.10029">
        <ele>4.5</ele>
        <time>2018-03-31T15:02:14.000Z</time>
      </trkpt>
      <trkpt lat="47.57021" lon="-3.10019">
        <ele>5.3</ele>
        <time>2018-03-31T15:02:15.000Z</time>
      </trkpt>
      <trkpt lat="47.57021" lon="-3.10017">
        <ele>5.3</ele>
        <time>2018-03-31T15:02:16.000Z</time>
      </trkpt>
      <trkpt lat="47.57021" lon="-3.10015">
        <ele>5.4</ele>
        <time>2018-03-31T15:02:17.000Z</time>
      </trkpt>
      <trkpt lat="47.57022" lon="-3.10012">
        <ele>5.4</ele>
        <time>2018-03-31T15:02:18.000Z</time>
      </trkpt>
      <trkpt lat="47.57022" lon="-3.1001">
        <ele>5.5</ele>
        <time>2018-03-31T15:02:19.000Z</time>
      </trkpt>
      <trkpt lat="47.57023" lon="-3.10008">
        <ele>5.6</ele>
        <time>2018-03-31T15:02:20.000Z</time>
      </trkpt>
      <trkpt lat="47.57023" lon="-3.10006">
        <ele>5.6</ele>
        <time>2018-03-31T15:02:21.000Z</time>
      </trkpt>
      <trkpt lat="47.57024" lon="-3.10003">
        <ele>5.7</ele>
        <time>2018-03-31T15:02:22.000Z</time>
      </trkpt>
      <trkpt lat="47.57025" lon="-3.10001">
        <ele>5.8</ele>
        <time>2018-03-31T15:02:23.000Z</time>
      </trkpt>
      <trkpt lat="47.57026" lon="-3.09998">
        <ele>5.9</ele>
        <time>2018-03-31T15:02:24.000Z</time>
      </trkpt>
      <trkpt lat="47.57027" lon="-3.09996">
        <ele>5.9</ele>
        <time>2018-03-31T15:02:25.000Z</time>
      </trkpt>
      <trkpt lat="47.57027" lon="-3.09995">
        <ele>6</ele>
        <time>2018-03-31T15:02:26.000Z</time>
      </trkpt>
      <trkpt lat="47.57028" lon="-3.09994">
        <ele>6</ele>
        <time>2018-03-31T15:02:27.000Z</time>
      </trkpt>
      <trkpt lat="47.57028" lon="-3.09994">
        <ele>6</ele>
        <time>2018-03-31T15:02:28.000Z</time>
      </trkpt>
      <trkpt lat="47.57028" lon="-3.09994">
        <ele>6</ele>
        <time>2018-03-31T15:02:29.000Z</time>
      </trkpt>
      <trkpt lat="47.57028" lon="-3.09994">
        <ele>6</ele>
        <time>2018-03-31T15:02:30.000Z</time>
      </trkpt>
      <trkpt lat="47.57028" lon="-3.09994">
        <ele>6</ele>
        <time>2018-03-31T15:02:31.000Z</time>
      </trkpt>
      <trkpt lat="47.57028" lon="-3.09994">
        <ele>6</ele>
        <time>2018-03-31T15:02:32.000Z</time>
      </trkpt>
      <trkpt lat="47.57028" lon="-3.09994">
        <ele>6</ele>
        <time>2018-03-31T15:02:33.000Z</time>
      </trkpt>
      <trkpt lat="47.57028" lon="-3.09994">
        <ele>6</ele>
        <time>2018-03-31T15:02:34.000Z</time>
      </trkpt>
      <trkpt lat="47.57028" lon="-3.09994">
        <ele>6</ele>
        <time>2018-03-31T15:02:35.000Z</time>
      </trkpt>
      <trkpt lat="47.57028" lon="-3.09994">
        <ele>6</ele>
        <time>2018-03-31T15:02:36.000Z</time>
      </trkpt>
      <trkpt lat="47.57028" lon="-3.09994">
        <ele>6</ele>
        <time>2018-03-31T15:02:37.000Z</time>
      </trkpt>
      <trkpt lat="47.57028" lon="-3.09994">
        <ele>6</ele>
        <time>2018-03-31T15:02:38.000Z</time>
      </trkpt>
      <trkpt lat="47.57028" lon="-3.09994">
        <ele>6</ele>
        <time>2018-03-31T15:02:39.000Z</time>
      </trkpt>
      <trkpt lat="47.57028" lon="-3.09994">
        <ele>6</ele>
        <time>2018-03-31T15:02:40.000Z</time>
      </trkpt>
      <trkpt lat="47.57028" lon="-3.09994">
        <ele>6</ele>
        <time>2018-03-31T15:02:41.000Z</time>
      </trkpt>
      <trkpt lat="47.57032" lon="-3.09982">
        <ele>6.1</ele>
        <time>2018-03-31T15:02:42.000Z</time>
      </trkpt>
      <trkpt lat="47.57032" lon="-3.09982">
        <ele>6.1</ele>
        <time>2018-03-31T15:02:43.000Z</time>
      </trkpt>
      <trkpt lat="47.57032" lon="-3.09981">
        <ele>6</ele>
        <time>2018-03-31T15:02:44.000Z</time>
      </trkpt>
      <trkpt lat="47.57032" lon="-3.09981">
        <ele>6</ele>
        <time>2018-03-31T15:02:45.000Z</time>
      </trkpt>
      <trkpt lat="47.57032" lon="-3.09981">
        <ele>6</ele>
        <time>2018-03-31T15:02:46.000Z</time>
      </trkpt>
      <trkpt lat="47.57032" lon="-3.09981">
        <ele>6</ele>
        <time>2018-03-31T15:02:47.000Z</time>
      </trkpt>
      <trkpt lat="47.57032" lon="-3.09981">
        <ele>6</ele>
        <time>2018-03-31T15:02:48.000Z</time>
      </trkpt>
      <trkpt lat="47.57032" lon="-3.09981">
        <ele>6</ele>
        <time>2018-03-31T15:02:49.000Z</time>
      </trkpt>
      <trkpt lat="47.57032" lon="-3.09981">
        <ele>6</ele>
        <time>2018-03-31T15:02:50.000Z</time>
      </trkpt>
      <trkpt lat="47.57032" lon="-3.09981">
        <ele>6</ele>
        <time>2018-03-31T15:02:51.000Z</time>
      </trkpt>
      <trkpt lat="47.57032" lon="-3.09981">
        <ele>6</ele>
        <time>2018-03-31T15:02:52.000Z</time>
      </trkpt>
      <trkpt lat="47.57032" lon="-3.09981">
        <ele>6</ele>
        <time>2018-03-31T15:02:53.000Z</time>
      </trkpt>
      <trkpt lat="47.57032" lon="-3.09981">
        <ele>6</ele>
        <time>2018-03-31T15:02:54.000Z</time>
      </trkpt>
      <trkpt lat="47.57032" lon="-3.09981">
        <ele>6</ele>
        <time>2018-03-31T15:02:55.000Z</time>
      </trkpt>
      <trkpt lat="47.57032" lon="-3.09981">
        <ele>6</ele>
        <time>2018-03-31T15:02:56.000Z</time>
      </trkpt>
      <trkpt lat="47.57032" lon="-3.09981">
        <ele>6</ele>
        <time>2018-03-31T15:02:57.000Z</time>
      </trkpt>
      <trkpt lat="47.57032" lon="-3.09981">
        <ele>6</ele>
        <time>2018-03-31T15:02:58.000Z</time>
      </trkpt>
      <trkpt lat="47.57032" lon="-3.09981">
        <ele>6</ele>
        <time>2018-03-31T15:02:59.000Z</time>
      </trkpt>
      <trkpt lat="47.57032" lon="-3.09981">
        <ele>6</ele>
        <time>2018-03-31T15:03:00.000Z</time>
      </trkpt>
      <trkpt lat="47.57032" lon="-3.09981">
        <ele>6</ele>
        <time>2018-03-31T15:03:01.000Z</time>
      </trkpt>
      <trkpt lat="47.57032" lon="-3.09981">
        <ele>6</ele>
        <time>2018-03-31T15:03:02.000Z</time>
      </trkpt>
      <trkpt lat="47.57032" lon="-3.09981">
        <ele>6</ele>
        <time>2018-03-31T15:03:03.000Z</time>
      </trkpt>
      <trkpt lat="47.57032" lon="-3.09981">
        <ele>6</ele>
        <time>2018-03-31T15:03:04.000Z</time>
      </trkpt>
      <trkpt lat="47.57032" lon="-3.09981">
        <ele>6</ele>
        <time>2018-03-31T15:03:05.000Z</time>
      </trkpt>
      <trkpt lat="47.57032" lon="-3.09981">
        <ele>6</ele>
        <time>2018-03-31T15:03:06.000Z</time>
      </trkpt>
      <trkpt lat="47.57032" lon="-3.09981">
        <ele>6</ele>
        <time>2018-03-31T15:03:07.000Z</time>
      </trkpt>
      <trkpt lat="47.57032" lon="-3.09981">
        <ele>6</ele>
        <time>2018-03-31T15:03:08.000Z</time>
      </trkpt>
      <trkpt lat="47.57032" lon="-3.09981">
        <ele>6</ele>
        <time>2018-03-31T15:03:09.000Z</time>
      </trkpt>
      <trkpt lat="47.57032" lon="-3.09981">
        <ele>6</ele>
        <time>2018-03-31T15:03:10.000Z</time>
      </trkpt>
      <trkpt lat="47.57032" lon="-3.09981">
        <ele>6</ele>
        <time>2018-03-31T15:03:11.000Z</time>
      </trkpt>
      <trkpt lat="47.57032" lon="-3.09981">
        <ele>6</ele>
        <time>2018-03-31T15:03:12.000Z</time>
      </trkpt>
      <trkpt lat="47.57032" lon="-3.09981">
        <ele>6</ele>
        <time>2018-03-31T15:03:13.000Z</time>
      </trkpt>
      <trkpt lat="47.57032" lon="-3.09981">
        <ele>6</ele>
        <time>2018-03-31T15:03:14.000Z</time>
      </trkpt>
      <trkpt lat="47.57032" lon="-3.09981">
        <ele>6</ele>
        <time>2018-03-31T15:03:15.000Z</time>
      </trkpt>
      <trkpt lat="47.57032" lon="-3.09981">
        <ele>6</ele>
        <time>2018-03-31T15:03:16.000Z</time>
      </trkpt>
      <trkpt lat="47.57032" lon="-3.09981">
        <ele>6</ele>
        <time>2018-03-31T15:03:17.000Z</time>
      </trkpt>
      <trkpt lat="47.57032" lon="-3.09981">
        <ele>6</ele>
        <time>2018-03-31T15:03:18.000Z</time>
      </trkpt>
      <trkpt lat="47.57032" lon="-3.09981">
        <ele>6</ele>
        <time>2018-03-31T15:03:19.000Z</time>
      </trkpt>
      <trkpt lat="47.57032" lon="-3.09981">
        <ele>6</ele>
        <time>2018-03-31T15:03:20.000Z</time>
      </trkpt>
      <trkpt lat="47.57032" lon="-3.09981">
        <ele>6</ele>
        <time>2018-03-31T15:03:21.000Z</time>
      </trkpt>
      <trkpt lat="47.57032" lon="-3.09981">
        <ele>6</ele>
        <time>2018-03-31T15:03:22.000Z</time>
      </trkpt>
      <trkpt lat="47.57032" lon="-3.09981">
        <ele>6</ele>
        <time>2018-03-31T15:03:23.000Z</time>
      </trkpt>
    </trkseg>
  </trk>
</gpx>